<?xml version="1.0" encoding="UTF-8" standalone="no" ?>
<gpx xmlns="http://www.topografix.com/GPX/1/1" xmlns:xsi="http://www.w3.org/2001/XMLSchema-instance" xsi:schemaLocation="http://www.topografix.com/GPX/1/1 http://www.topografix.com/GPX/1/1/gpx.xsd" version="1.1" creator="VisuGPX - https://www.visugpx.com">
  <metadata>
    <name>Randonnée à Fyé</name>
    <desc><![CDATA[Circuit varié plaine, forêt et route dans la banlieue sud d\'Alençon.]]></desc>
  </metadata>
  <wpt lat="48.33175" lon="0.04642">
    <ele>208</ele>
  </wpt>
  <trk>
    <name><![CDATA[Randonnée à Fyé_1]]></name>
    <trkseg>
      <trkpt lat="48.33175" lon="0.04642">
        <ele>208</ele>
        <time>2013-06-07T07:06:02Z</time>
      </trkpt>
      <trkpt lat="48.33218" lon="0.04527">
        <ele>139</ele>
        <time>2013-06-07T07:06:32Z</time>
      </trkpt>
      <trkpt lat="48.33227" lon="0.04522">
        <ele>139</ele>
        <time>2013-06-07T07:06:35Z</time>
      </trkpt>
      <trkpt lat="48.33233" lon="0.04534">
        <ele>139</ele>
        <time>2013-06-07T07:07:42Z</time>
      </trkpt>
      <trkpt lat="48.33242" lon="0.04537">
        <ele>139</ele>
        <time>2013-06-07T07:07:51Z</time>
      </trkpt>
      <trkpt lat="48.33251" lon="0.04541">
        <ele>139</ele>
        <time>2013-06-07T07:08:00Z</time>
      </trkpt>
      <trkpt lat="48.33259" lon="0.04549">
        <ele>139</ele>
        <time>2013-06-07T07:08:09Z</time>
      </trkpt>
      <trkpt lat="48.33268" lon="0.04555">
        <ele>139</ele>
        <time>2013-06-07T07:08:18Z</time>
      </trkpt>
      <trkpt lat="48.33275" lon="0.04563">
        <ele>139</ele>
        <time>2013-06-07T07:08:26Z</time>
      </trkpt>
      <trkpt lat="48.33284" lon="0.04571">
        <ele>139</ele>
        <time>2013-06-07T07:08:34Z</time>
      </trkpt>
      <trkpt lat="48.33292" lon="0.04577">
        <ele>139</ele>
        <time>2013-06-07T07:08:43Z</time>
      </trkpt>
      <trkpt lat="48.333" lon="0.04585">
        <ele>139</ele>
        <time>2013-06-07T07:08:51Z</time>
      </trkpt>
      <trkpt lat="48.33308" lon="0.04593">
        <ele>139</ele>
        <time>2013-06-07T07:08:59Z</time>
      </trkpt>
      <trkpt lat="48.33317" lon="0.04602">
        <ele>139</ele>
        <time>2013-06-07T07:09:08Z</time>
      </trkpt>
      <trkpt lat="48.33326" lon="0.04608">
        <ele>139</ele>
        <time>2013-06-07T07:09:15Z</time>
      </trkpt>
      <trkpt lat="48.33335" lon="0.04616">
        <ele>139</ele>
        <time>2013-06-07T07:09:22Z</time>
      </trkpt>
      <trkpt lat="48.33344" lon="0.04622">
        <ele>139</ele>
        <time>2013-06-07T07:09:30Z</time>
      </trkpt>
      <trkpt lat="48.33352" lon="0.0463">
        <ele>139</ele>
        <time>2013-06-07T07:09:38Z</time>
      </trkpt>
      <trkpt lat="48.3336" lon="0.04641">
        <ele>139</ele>
        <time>2013-06-07T07:09:46Z</time>
      </trkpt>
      <trkpt lat="48.33363" lon="0.04655">
        <ele>139</ele>
        <time>2013-06-07T07:09:53Z</time>
      </trkpt>
      <trkpt lat="48.33371" lon="0.04666">
        <ele>139</ele>
        <time>2013-06-07T07:10:02Z</time>
      </trkpt>
      <trkpt lat="48.33377" lon="0.04678">
        <ele>139</ele>
        <time>2013-06-07T07:10:10Z</time>
      </trkpt>
      <trkpt lat="48.33381" lon="0.04693">
        <ele>139</ele>
        <time>2013-06-07T07:10:17Z</time>
      </trkpt>
      <trkpt lat="48.33387" lon="0.04705">
        <ele>139</ele>
        <time>2013-06-07T07:10:25Z</time>
      </trkpt>
      <trkpt lat="48.33392" lon="0.04719">
        <ele>139</ele>
        <time>2013-06-07T07:10:33Z</time>
      </trkpt>
      <trkpt lat="48.33395" lon="0.04733">
        <ele>139</ele>
        <time>2013-06-07T07:10:39Z</time>
      </trkpt>
      <trkpt lat="48.33404" lon="0.04742">
        <ele>139</ele>
        <time>2013-06-07T07:10:48Z</time>
      </trkpt>
      <trkpt lat="48.33411" lon="0.04752">
        <ele>139</ele>
        <time>2013-06-07T07:10:56Z</time>
      </trkpt>
      <trkpt lat="48.33418" lon="0.04763">
        <ele>139</ele>
        <time>2013-06-07T07:11:06Z</time>
      </trkpt>
      <trkpt lat="48.3342" lon="0.04778">
        <ele>139</ele>
        <time>2013-06-07T07:11:13Z</time>
      </trkpt>
      <trkpt lat="48.33424" lon="0.04792">
        <ele>139</ele>
        <time>2013-06-07T07:11:22Z</time>
      </trkpt>
      <trkpt lat="48.33426" lon="0.04805">
        <ele>139</ele>
        <time>2013-06-07T07:11:29Z</time>
      </trkpt>
      <trkpt lat="48.33429" lon="0.0482">
        <ele>139</ele>
        <time>2013-06-07T07:11:36Z</time>
      </trkpt>
      <trkpt lat="48.33439" lon="0.04821">
        <ele>139</ele>
        <time>2013-06-07T07:13:06Z</time>
      </trkpt>
      <trkpt lat="48.33429" lon="0.0482">
        <ele>144</ele>
        <time>2013-06-07T07:14:41Z</time>
      </trkpt>
      <trkpt lat="48.33438" lon="0.04824">
        <ele>150</ele>
        <time>2013-06-07T07:15:03Z</time>
      </trkpt>
      <trkpt lat="48.33444" lon="0.04812">
        <ele>150</ele>
        <time>2013-06-07T07:16:06Z</time>
      </trkpt>
      <trkpt lat="48.33452" lon="0.04802">
        <ele>150</ele>
        <time>2013-06-07T07:16:14Z</time>
      </trkpt>
      <trkpt lat="48.33457" lon="0.0479">
        <ele>150</ele>
        <time>2013-06-07T07:16:25Z</time>
      </trkpt>
      <trkpt lat="48.33465" lon="0.04782">
        <ele>150</ele>
        <time>2013-06-07T07:16:31Z</time>
      </trkpt>
      <trkpt lat="48.33472" lon="0.04771">
        <ele>150</ele>
        <time>2013-06-07T07:16:40Z</time>
      </trkpt>
      <trkpt lat="48.33481" lon="0.04761">
        <ele>150</ele>
        <time>2013-06-07T07:16:49Z</time>
      </trkpt>
      <trkpt lat="48.33487" lon="0.04749">
        <ele>150</ele>
        <time>2013-06-07T07:17:00Z</time>
      </trkpt>
      <trkpt lat="48.33495" lon="0.0474">
        <ele>150</ele>
        <time>2013-06-07T07:17:06Z</time>
      </trkpt>
      <trkpt lat="48.33501" lon="0.0473">
        <ele>150</ele>
        <time>2013-06-07T07:17:14Z</time>
      </trkpt>
      <trkpt lat="48.33508" lon="0.04721">
        <ele>150</ele>
        <time>2013-06-07T07:17:21Z</time>
      </trkpt>
      <trkpt lat="48.33515" lon="0.04711">
        <ele>150</ele>
        <time>2013-06-07T07:17:43Z</time>
      </trkpt>
      <trkpt lat="48.33522" lon="0.04702">
        <ele>150</ele>
        <time>2013-06-07T07:17:52Z</time>
      </trkpt>
      <trkpt lat="48.33529" lon="0.04691">
        <ele>150</ele>
        <time>2013-06-07T07:18:01Z</time>
      </trkpt>
      <trkpt lat="48.33537" lon="0.04682">
        <ele>150</ele>
        <time>2013-06-07T07:18:09Z</time>
      </trkpt>
      <trkpt lat="48.33544" lon="0.04673">
        <ele>150</ele>
        <time>2013-06-07T07:18:16Z</time>
      </trkpt>
      <trkpt lat="48.33551" lon="0.04663">
        <ele>144</ele>
        <time>2013-06-07T07:18:23Z</time>
      </trkpt>
      <trkpt lat="48.33557" lon="0.04652">
        <ele>144</ele>
        <time>2013-06-07T07:18:31Z</time>
      </trkpt>
      <trkpt lat="48.33562" lon="0.04639">
        <ele>144</ele>
        <time>2013-06-07T07:18:40Z</time>
      </trkpt>
      <trkpt lat="48.33565" lon="0.04625">
        <ele>144</ele>
        <time>2013-06-07T07:18:48Z</time>
      </trkpt>
      <trkpt lat="48.33568" lon="0.04611">
        <ele>144</ele>
        <time>2013-06-07T07:18:56Z</time>
      </trkpt>
      <trkpt lat="48.33571" lon="0.04597">
        <ele>144</ele>
        <time>2013-06-07T07:19:05Z</time>
      </trkpt>
      <trkpt lat="48.33571" lon="0.04581">
        <ele>144</ele>
        <time>2013-06-07T07:19:14Z</time>
      </trkpt>
      <trkpt lat="48.33571" lon="0.04567">
        <ele>150</ele>
        <time>2013-06-07T07:19:22Z</time>
      </trkpt>
      <trkpt lat="48.33571" lon="0.04553">
        <ele>150</ele>
        <time>2013-06-07T07:19:30Z</time>
      </trkpt>
      <trkpt lat="48.33571" lon="0.04538">
        <ele>150</ele>
        <time>2013-06-07T07:19:38Z</time>
      </trkpt>
      <trkpt lat="48.33572" lon="0.04524">
        <ele>145</ele>
        <time>2013-06-07T07:19:47Z</time>
      </trkpt>
      <trkpt lat="48.33572" lon="0.04509">
        <ele>145</ele>
        <time>2013-06-07T07:19:55Z</time>
      </trkpt>
      <trkpt lat="48.33569" lon="0.04495">
        <ele>145</ele>
        <time>2013-06-07T07:20:02Z</time>
      </trkpt>
      <trkpt lat="48.33567" lon="0.04482">
        <ele>145</ele>
        <time>2013-06-07T07:20:08Z</time>
      </trkpt>
      <trkpt lat="48.33568" lon="0.04467">
        <ele>145</ele>
        <time>2013-06-07T07:20:16Z</time>
      </trkpt>
      <trkpt lat="48.33566" lon="0.04452">
        <ele>151</ele>
        <time>2013-06-07T07:20:24Z</time>
      </trkpt>
      <trkpt lat="48.33565" lon="0.04437">
        <ele>151</ele>
        <time>2013-06-07T07:20:33Z</time>
      </trkpt>
      <trkpt lat="48.33566" lon="0.04422">
        <ele>151</ele>
        <time>2013-06-07T07:20:41Z</time>
      </trkpt>
      <trkpt lat="48.33566" lon="0.04406">
        <ele>151</ele>
        <time>2013-06-07T07:20:49Z</time>
      </trkpt>
      <trkpt lat="48.33569" lon="0.04393">
        <ele>151</ele>
        <time>2013-06-07T07:20:57Z</time>
      </trkpt>
      <trkpt lat="48.33571" lon="0.04378">
        <ele>151</ele>
        <time>2013-06-07T07:21:05Z</time>
      </trkpt>
      <trkpt lat="48.33577" lon="0.04367">
        <ele>151</ele>
        <time>2013-06-07T07:21:14Z</time>
      </trkpt>
      <trkpt lat="48.33583" lon="0.04354">
        <ele>151</ele>
        <time>2013-06-07T07:21:22Z</time>
      </trkpt>
      <trkpt lat="48.33589" lon="0.04343">
        <ele>151</ele>
        <time>2013-06-07T07:21:29Z</time>
      </trkpt>
      <trkpt lat="48.33595" lon="0.04332">
        <ele>151</ele>
        <time>2013-06-07T07:21:39Z</time>
      </trkpt>
      <trkpt lat="48.33602" lon="0.04322">
        <ele>151</ele>
        <time>2013-06-07T07:21:46Z</time>
      </trkpt>
      <trkpt lat="48.33611" lon="0.04313">
        <ele>151</ele>
        <time>2013-06-07T07:21:53Z</time>
      </trkpt>
      <trkpt lat="48.33619" lon="0.04303">
        <ele>151</ele>
        <time>2013-06-07T07:22:01Z</time>
      </trkpt>
      <trkpt lat="48.33625" lon="0.04291">
        <ele>151</ele>
        <time>2013-06-07T07:22:10Z</time>
      </trkpt>
      <trkpt lat="48.33634" lon="0.04283">
        <ele>151</ele>
        <time>2013-06-07T07:22:17Z</time>
      </trkpt>
      <trkpt lat="48.33642" lon="0.04273">
        <ele>151</ele>
        <time>2013-06-07T07:22:25Z</time>
      </trkpt>
      <trkpt lat="48.33648" lon="0.04263">
        <ele>151</ele>
        <time>2013-06-07T07:22:33Z</time>
      </trkpt>
      <trkpt lat="48.33656" lon="0.04254">
        <ele>151</ele>
        <time>2013-06-07T07:22:40Z</time>
      </trkpt>
      <trkpt lat="48.33664" lon="0.04245">
        <ele>151</ele>
        <time>2013-06-07T07:22:49Z</time>
      </trkpt>
      <trkpt lat="48.33671" lon="0.04236">
        <ele>151</ele>
        <time>2013-06-07T07:22:56Z</time>
      </trkpt>
      <trkpt lat="48.33679" lon="0.04227">
        <ele>151</ele>
        <time>2013-06-07T07:23:03Z</time>
      </trkpt>
      <trkpt lat="48.33686" lon="0.04217">
        <ele>151</ele>
        <time>2013-06-07T07:23:12Z</time>
      </trkpt>
      <trkpt lat="48.33693" lon="0.04208">
        <ele>151</ele>
        <time>2013-06-07T07:23:20Z</time>
      </trkpt>
      <trkpt lat="48.33701" lon="0.042">
        <ele>156</ele>
        <time>2013-06-07T07:23:27Z</time>
      </trkpt>
      <trkpt lat="48.3371" lon="0.04191">
        <ele>156</ele>
        <time>2013-06-07T07:23:35Z</time>
      </trkpt>
      <trkpt lat="48.33716" lon="0.04179">
        <ele>162</ele>
        <time>2013-06-07T07:23:44Z</time>
      </trkpt>
      <trkpt lat="48.33725" lon="0.04171">
        <ele>162</ele>
        <time>2013-06-07T07:23:51Z</time>
      </trkpt>
      <trkpt lat="48.33731" lon="0.0416">
        <ele>162</ele>
        <time>2013-06-07T07:24:00Z</time>
      </trkpt>
      <trkpt lat="48.33738" lon="0.04151">
        <ele>162</ele>
        <time>2013-06-07T07:24:08Z</time>
      </trkpt>
      <trkpt lat="48.33746" lon="0.04142">
        <ele>162</ele>
        <time>2013-06-07T07:24:16Z</time>
      </trkpt>
      <trkpt lat="48.33755" lon="0.04133">
        <ele>162</ele>
        <time>2013-06-07T07:24:24Z</time>
      </trkpt>
      <trkpt lat="48.33762" lon="0.04124">
        <ele>162</ele>
        <time>2013-06-07T07:24:32Z</time>
      </trkpt>
      <trkpt lat="48.3377" lon="0.04115">
        <ele>162</ele>
        <time>2013-06-07T07:24:39Z</time>
      </trkpt>
      <trkpt lat="48.33778" lon="0.04105">
        <ele>162</ele>
        <time>2013-06-07T07:24:47Z</time>
      </trkpt>
      <trkpt lat="48.33786" lon="0.04096">
        <ele>162</ele>
        <time>2013-06-07T07:24:55Z</time>
      </trkpt>
      <trkpt lat="48.33793" lon="0.04086">
        <ele>162</ele>
        <time>2013-06-07T07:25:03Z</time>
      </trkpt>
      <trkpt lat="48.33801" lon="0.04076">
        <ele>162</ele>
        <time>2013-06-07T07:25:11Z</time>
      </trkpt>
      <trkpt lat="48.33808" lon="0.04066">
        <ele>162</ele>
        <time>2013-06-07T07:25:19Z</time>
      </trkpt>
      <trkpt lat="48.33816" lon="0.04056">
        <ele>162</ele>
        <time>2013-06-07T07:25:27Z</time>
      </trkpt>
      <trkpt lat="48.33823" lon="0.04046">
        <ele>162</ele>
        <time>2013-06-07T07:25:35Z</time>
      </trkpt>
      <trkpt lat="48.33831" lon="0.04035">
        <ele>162</ele>
        <time>2013-06-07T07:25:44Z</time>
      </trkpt>
      <trkpt lat="48.33838" lon="0.04025">
        <ele>162</ele>
        <time>2013-06-07T07:25:52Z</time>
      </trkpt>
      <trkpt lat="48.33846" lon="0.04016">
        <ele>162</ele>
        <time>2013-06-07T07:26:00Z</time>
      </trkpt>
      <trkpt lat="48.33853" lon="0.04007">
        <ele>162</ele>
        <time>2013-06-07T07:26:07Z</time>
      </trkpt>
      <trkpt lat="48.33862" lon="0.03998">
        <ele>162</ele>
        <time>2013-06-07T07:26:15Z</time>
      </trkpt>
      <trkpt lat="48.3387" lon="0.03987">
        <ele>162</ele>
        <time>2013-06-07T07:26:23Z</time>
      </trkpt>
      <trkpt lat="48.33876" lon="0.03976">
        <ele>156</ele>
        <time>2013-06-07T07:26:31Z</time>
      </trkpt>
      <trkpt lat="48.33884" lon="0.03967">
        <ele>156</ele>
        <time>2013-06-07T07:26:42Z</time>
      </trkpt>
      <trkpt lat="48.33891" lon="0.03957">
        <ele>162</ele>
        <time>2013-06-07T07:28:02Z</time>
      </trkpt>
      <trkpt lat="48.33888" lon="0.03944">
        <ele>162</ele>
        <time>2013-06-07T07:28:11Z</time>
      </trkpt>
      <trkpt lat="48.33886" lon="0.03929">
        <ele>162</ele>
        <time>2013-06-07T07:28:19Z</time>
      </trkpt>
      <trkpt lat="48.33886" lon="0.03914">
        <ele>162</ele>
        <time>2013-06-07T07:28:28Z</time>
      </trkpt>
      <trkpt lat="48.33885" lon="0.03899">
        <ele>162</ele>
        <time>2013-06-07T07:28:36Z</time>
      </trkpt>
      <trkpt lat="48.33882" lon="0.03885">
        <ele>162</ele>
        <time>2013-06-07T07:28:42Z</time>
      </trkpt>
      <trkpt lat="48.3388" lon="0.0387">
        <ele>162</ele>
        <time>2013-06-07T07:28:50Z</time>
      </trkpt>
      <trkpt lat="48.3388" lon="0.03856">
        <ele>167</ele>
        <time>2013-06-07T07:28:58Z</time>
      </trkpt>
      <trkpt lat="48.33879" lon="0.03841">
        <ele>167</ele>
        <time>2013-06-07T07:29:07Z</time>
      </trkpt>
      <trkpt lat="48.33879" lon="0.03827">
        <ele>167</ele>
        <time>2013-06-07T07:29:15Z</time>
      </trkpt>
      <trkpt lat="48.33881" lon="0.03813">
        <ele>162</ele>
        <time>2013-06-07T07:29:24Z</time>
      </trkpt>
      <trkpt lat="48.3388" lon="0.03797">
        <ele>162</ele>
        <time>2013-06-07T07:29:33Z</time>
      </trkpt>
      <trkpt lat="48.33878" lon="0.03783">
        <ele>162</ele>
        <time>2013-06-07T07:29:42Z</time>
      </trkpt>
      <trkpt lat="48.33874" lon="0.03768">
        <ele>162</ele>
        <time>2013-06-07T07:29:49Z</time>
      </trkpt>
      <trkpt lat="48.33874" lon="0.03754">
        <ele>162</ele>
        <time>2013-06-07T07:29:59Z</time>
      </trkpt>
      <trkpt lat="48.33872" lon="0.03741">
        <ele>162</ele>
        <time>2013-06-07T07:30:07Z</time>
      </trkpt>
      <trkpt lat="48.33868" lon="0.03726">
        <ele>162</ele>
        <time>2013-06-07T07:30:16Z</time>
      </trkpt>
      <trkpt lat="48.33863" lon="0.03711">
        <ele>162</ele>
        <time>2013-06-07T07:30:25Z</time>
      </trkpt>
      <trkpt lat="48.33861" lon="0.03697">
        <ele>162</ele>
        <time>2013-06-07T07:30:36Z</time>
      </trkpt>
      <trkpt lat="48.33857" lon="0.03682">
        <ele>162</ele>
        <time>2013-06-07T07:30:45Z</time>
      </trkpt>
      <trkpt lat="48.33854" lon="0.03669">
        <ele>162</ele>
        <time>2013-06-07T07:30:54Z</time>
      </trkpt>
      <trkpt lat="48.3385" lon="0.03653">
        <ele>162</ele>
        <time>2013-06-07T07:31:03Z</time>
      </trkpt>
      <trkpt lat="48.33845" lon="0.03639">
        <ele>162</ele>
        <time>2013-06-07T07:31:10Z</time>
      </trkpt>
      <trkpt lat="48.33842" lon="0.03626">
        <ele>162</ele>
        <time>2013-06-07T07:31:18Z</time>
      </trkpt>
      <trkpt lat="48.33838" lon="0.03612">
        <ele>162</ele>
        <time>2013-06-07T07:31:26Z</time>
      </trkpt>
      <trkpt lat="48.33835" lon="0.03598">
        <ele>162</ele>
        <time>2013-06-07T07:31:34Z</time>
      </trkpt>
      <trkpt lat="48.33831" lon="0.03584">
        <ele>167</ele>
        <time>2013-06-07T07:31:40Z</time>
      </trkpt>
      <trkpt lat="48.33828" lon="0.03571">
        <ele>167</ele>
        <time>2013-06-07T07:31:47Z</time>
      </trkpt>
      <trkpt lat="48.33823" lon="0.03558">
        <ele>167</ele>
        <time>2013-06-07T07:31:53Z</time>
      </trkpt>
      <trkpt lat="48.3382" lon="0.03544">
        <ele>167</ele>
        <time>2013-06-07T07:32:02Z</time>
      </trkpt>
      <trkpt lat="48.33816" lon="0.03531">
        <ele>167</ele>
        <time>2013-06-07T07:32:09Z</time>
      </trkpt>
      <trkpt lat="48.33812" lon="0.03519">
        <ele>173</ele>
        <time>2013-06-07T07:32:16Z</time>
      </trkpt>
      <trkpt lat="48.3381" lon="0.03504">
        <ele>173</ele>
        <time>2013-06-07T07:32:25Z</time>
      </trkpt>
      <trkpt lat="48.33805" lon="0.03492">
        <ele>163</ele>
        <time>2013-06-07T07:32:35Z</time>
      </trkpt>
      <trkpt lat="48.33799" lon="0.03478">
        <ele>163</ele>
        <time>2013-06-07T07:32:42Z</time>
      </trkpt>
      <trkpt lat="48.33794" lon="0.03467">
        <ele>163</ele>
        <time>2013-06-07T07:32:49Z</time>
      </trkpt>
      <trkpt lat="48.3379" lon="0.03454">
        <ele>163</ele>
        <time>2013-06-07T07:32:55Z</time>
      </trkpt>
      <trkpt lat="48.33785" lon="0.03441">
        <ele>168</ele>
        <time>2013-06-07T07:33:02Z</time>
      </trkpt>
      <trkpt lat="48.33781" lon="0.03426">
        <ele>168</ele>
        <time>2013-06-07T07:33:11Z</time>
      </trkpt>
      <trkpt lat="48.33778" lon="0.03412">
        <ele>162</ele>
        <time>2013-06-07T07:33:20Z</time>
      </trkpt>
      <trkpt lat="48.33774" lon="0.03397">
        <ele>162</ele>
        <time>2013-06-07T07:33:29Z</time>
      </trkpt>
      <trkpt lat="48.3377" lon="0.03384">
        <ele>162</ele>
        <time>2013-06-07T07:33:37Z</time>
      </trkpt>
      <trkpt lat="48.33766" lon="0.0337">
        <ele>162</ele>
        <time>2013-06-07T07:33:47Z</time>
      </trkpt>
      <trkpt lat="48.33762" lon="0.03355">
        <ele>162</ele>
        <time>2013-06-07T07:33:56Z</time>
      </trkpt>
      <trkpt lat="48.33758" lon="0.03343">
        <ele>162</ele>
        <time>2013-06-07T07:34:03Z</time>
      </trkpt>
      <trkpt lat="48.33754" lon="0.03328">
        <ele>162</ele>
        <time>2013-06-07T07:34:11Z</time>
      </trkpt>
      <trkpt lat="48.33751" lon="0.03313">
        <ele>162</ele>
        <time>2013-06-07T07:34:19Z</time>
      </trkpt>
      <trkpt lat="48.33748" lon="0.033">
        <ele>162</ele>
        <time>2013-06-07T07:34:26Z</time>
      </trkpt>
      <trkpt lat="48.33744" lon="0.03286">
        <ele>162</ele>
        <time>2013-06-07T07:34:34Z</time>
      </trkpt>
      <trkpt lat="48.3374" lon="0.03274">
        <ele>162</ele>
        <time>2013-06-07T07:34:44Z</time>
      </trkpt>
      <trkpt lat="48.33734" lon="0.03262">
        <ele>162</ele>
        <time>2013-06-07T07:34:53Z</time>
      </trkpt>
      <trkpt lat="48.33732" lon="0.03247">
        <ele>162</ele>
        <time>2013-06-07T07:35:02Z</time>
      </trkpt>
      <trkpt lat="48.33735" lon="0.03262">
        <ele>162</ele>
        <time>2013-06-07T07:35:23Z</time>
      </trkpt>
      <trkpt lat="48.33742" lon="0.0325">
        <ele>162</ele>
        <time>2013-06-07T07:36:15Z</time>
      </trkpt>
      <trkpt lat="48.33751" lon="0.03245">
        <ele>156</ele>
        <time>2013-06-07T07:36:22Z</time>
      </trkpt>
      <trkpt lat="48.33741" lon="0.03239">
        <ele>170</ele>
        <time>2013-06-07T07:36:33Z</time>
      </trkpt>
      <trkpt lat="48.33738" lon="0.03253">
        <ele>170</ele>
        <time>2013-06-07T07:36:43Z</time>
      </trkpt>
      <trkpt lat="48.33747" lon="0.03246">
        <ele>176</ele>
        <time>2013-06-07T07:37:01Z</time>
      </trkpt>
      <trkpt lat="48.33756" lon="0.03238">
        <ele>176</ele>
        <time>2013-06-07T07:37:11Z</time>
      </trkpt>
      <trkpt lat="48.33763" lon="0.03229">
        <ele>171</ele>
        <time>2013-06-07T07:37:19Z</time>
      </trkpt>
      <trkpt lat="48.33768" lon="0.03217">
        <ele>171</ele>
        <time>2013-06-07T07:37:29Z</time>
      </trkpt>
      <trkpt lat="48.33774" lon="0.03205">
        <ele>162</ele>
        <time>2013-06-07T07:37:39Z</time>
      </trkpt>
      <trkpt lat="48.33781" lon="0.03194">
        <ele>162</ele>
        <time>2013-06-07T07:37:47Z</time>
      </trkpt>
      <trkpt lat="48.33786" lon="0.03183">
        <ele>162</ele>
        <time>2013-06-07T07:37:53Z</time>
      </trkpt>
      <trkpt lat="48.33792" lon="0.03171">
        <ele>162</ele>
        <time>2013-06-07T07:38:02Z</time>
      </trkpt>
      <trkpt lat="48.33797" lon="0.03159">
        <ele>162</ele>
        <time>2013-06-07T07:38:11Z</time>
      </trkpt>
      <trkpt lat="48.33805" lon="0.0315">
        <ele>162</ele>
        <time>2013-06-07T07:38:18Z</time>
      </trkpt>
      <trkpt lat="48.3381" lon="0.03137">
        <ele>162</ele>
        <time>2013-06-07T07:38:28Z</time>
      </trkpt>
      <trkpt lat="48.33816" lon="0.03123">
        <ele>162</ele>
        <time>2013-06-07T07:38:37Z</time>
      </trkpt>
      <trkpt lat="48.33819" lon="0.03109">
        <ele>162</ele>
        <time>2013-06-07T07:38:46Z</time>
      </trkpt>
      <trkpt lat="48.33825" lon="0.03097">
        <ele>162</ele>
        <time>2013-06-07T07:38:54Z</time>
      </trkpt>
      <trkpt lat="48.33831" lon="0.03087">
        <ele>162</ele>
        <time>2013-06-07T07:39:01Z</time>
      </trkpt>
      <trkpt lat="48.33837" lon="0.03074">
        <ele>162</ele>
        <time>2013-06-07T07:39:09Z</time>
      </trkpt>
      <trkpt lat="48.3384" lon="0.03061">
        <ele>162</ele>
        <time>2013-06-07T07:39:17Z</time>
      </trkpt>
      <trkpt lat="48.33845" lon="0.03048">
        <ele>168</ele>
        <time>2013-06-07T07:39:25Z</time>
      </trkpt>
      <trkpt lat="48.33852" lon="0.03038">
        <ele>162</ele>
        <time>2013-06-07T07:39:33Z</time>
      </trkpt>
      <trkpt lat="48.33857" lon="0.03026">
        <ele>162</ele>
        <time>2013-06-07T07:39:41Z</time>
      </trkpt>
      <trkpt lat="48.33865" lon="0.03016">
        <ele>162</ele>
        <time>2013-06-07T07:39:47Z</time>
      </trkpt>
      <trkpt lat="48.3387" lon="0.03003">
        <ele>162</ele>
        <time>2013-06-07T07:39:57Z</time>
      </trkpt>
      <trkpt lat="48.33877" lon="0.02994">
        <ele>162</ele>
        <time>2013-06-07T07:40:03Z</time>
      </trkpt>
      <trkpt lat="48.33884" lon="0.02983">
        <ele>162</ele>
        <time>2013-06-07T07:40:11Z</time>
      </trkpt>
      <trkpt lat="48.33893" lon="0.02971">
        <ele>152</ele>
        <time>2013-06-07T07:40:21Z</time>
      </trkpt>
      <trkpt lat="48.33899" lon="0.0296">
        <ele>152</ele>
        <time>2013-06-07T07:40:28Z</time>
      </trkpt>
      <trkpt lat="48.33907" lon="0.02949">
        <ele>162</ele>
        <time>2013-06-07T07:40:38Z</time>
      </trkpt>
      <trkpt lat="48.33913" lon="0.02938">
        <ele>162</ele>
        <time>2013-06-07T07:40:44Z</time>
      </trkpt>
      <trkpt lat="48.33919" lon="0.02926">
        <ele>162</ele>
        <time>2013-06-07T07:40:49Z</time>
      </trkpt>
      <trkpt lat="48.33925" lon="0.02914">
        <ele>162</ele>
        <time>2013-06-07T07:40:58Z</time>
      </trkpt>
      <trkpt lat="48.33932" lon="0.02905">
        <ele>169</ele>
        <time>2013-06-07T07:41:06Z</time>
      </trkpt>
      <trkpt lat="48.33936" lon="0.02891">
        <ele>169</ele>
        <time>2013-06-07T07:41:18Z</time>
      </trkpt>
      <trkpt lat="48.3394" lon="0.02877">
        <ele>169</ele>
        <time>2013-06-07T07:41:27Z</time>
      </trkpt>
      <trkpt lat="48.33945" lon="0.02866">
        <ele>169</ele>
        <time>2013-06-07T07:41:34Z</time>
      </trkpt>
      <trkpt lat="48.3395" lon="0.02853">
        <ele>169</ele>
        <time>2013-06-07T07:41:42Z</time>
      </trkpt>
      <trkpt lat="48.33956" lon="0.0284">
        <ele>160</ele>
        <time>2013-06-07T07:41:52Z</time>
      </trkpt>
      <trkpt lat="48.33961" lon="0.02824">
        <ele>160</ele>
        <time>2013-06-07T07:42:01Z</time>
      </trkpt>
      <trkpt lat="48.33968" lon="0.02814">
        <ele>160</ele>
        <time>2013-06-07T07:42:07Z</time>
      </trkpt>
      <trkpt lat="48.33976" lon="0.02804">
        <ele>160</ele>
        <time>2013-06-07T07:42:13Z</time>
      </trkpt>
      <trkpt lat="48.33985" lon="0.02794">
        <ele>160</ele>
        <time>2013-06-07T07:42:22Z</time>
      </trkpt>
      <trkpt lat="48.3399" lon="0.0278">
        <ele>168</ele>
        <time>2013-06-07T07:42:32Z</time>
      </trkpt>
      <trkpt lat="48.33997" lon="0.02769">
        <ele>168</ele>
        <time>2013-06-07T07:42:42Z</time>
      </trkpt>
      <trkpt lat="48.34002" lon="0.02755">
        <ele>168</ele>
        <time>2013-06-07T07:42:51Z</time>
      </trkpt>
      <trkpt lat="48.3401" lon="0.02745">
        <ele>168</ele>
        <time>2013-06-07T07:42:57Z</time>
      </trkpt>
      <trkpt lat="48.34016" lon="0.02735">
        <ele>168</ele>
        <time>2013-06-07T07:43:06Z</time>
      </trkpt>
      <trkpt lat="48.34023" lon="0.02726">
        <ele>168</ele>
        <time>2013-06-07T07:43:12Z</time>
      </trkpt>
      <trkpt lat="48.34029" lon="0.02715">
        <ele>168</ele>
        <time>2013-06-07T07:43:22Z</time>
      </trkpt>
      <trkpt lat="48.34036" lon="0.02703">
        <ele>168</ele>
        <time>2013-06-07T07:43:31Z</time>
      </trkpt>
      <trkpt lat="48.34044" lon="0.02694">
        <ele>168</ele>
        <time>2013-06-07T07:43:40Z</time>
      </trkpt>
      <trkpt lat="48.34052" lon="0.02684">
        <ele>168</ele>
        <time>2013-06-07T07:43:49Z</time>
      </trkpt>
      <trkpt lat="48.34059" lon="0.02673">
        <ele>168</ele>
        <time>2013-06-07T07:43:58Z</time>
      </trkpt>
      <trkpt lat="48.34066" lon="0.02664">
        <ele>177</ele>
        <time>2013-06-07T07:44:04Z</time>
      </trkpt>
      <trkpt lat="48.34074" lon="0.02654">
        <ele>177</ele>
        <time>2013-06-07T07:44:15Z</time>
      </trkpt>
      <trkpt lat="48.34082" lon="0.02647">
        <ele>177</ele>
        <time>2013-06-07T07:44:21Z</time>
      </trkpt>
      <trkpt lat="48.34092" lon="0.02638">
        <ele>167</ele>
        <time>2013-06-07T07:44:26Z</time>
      </trkpt>
      <trkpt lat="48.34097" lon="0.02626">
        <ele>167</ele>
        <time>2013-06-07T07:44:36Z</time>
      </trkpt>
      <trkpt lat="48.34106" lon="0.02618">
        <ele>167</ele>
        <time>2013-06-07T07:44:43Z</time>
      </trkpt>
      <trkpt lat="48.34114" lon="0.02611">
        <ele>167</ele>
        <time>2013-06-07T07:44:51Z</time>
      </trkpt>
      <trkpt lat="48.34119" lon="0.02598">
        <ele>167</ele>
        <time>2013-06-07T07:44:58Z</time>
      </trkpt>
      <trkpt lat="48.34127" lon="0.0259">
        <ele>167</ele>
        <time>2013-06-07T07:45:08Z</time>
      </trkpt>
      <trkpt lat="48.34133" lon="0.02579">
        <ele>172</ele>
        <time>2013-06-07T07:45:18Z</time>
      </trkpt>
      <trkpt lat="48.3414" lon="0.02568">
        <ele>172</ele>
        <time>2013-06-07T07:45:26Z</time>
      </trkpt>
      <trkpt lat="48.34149" lon="0.0256">
        <ele>178</ele>
        <time>2013-06-07T07:45:32Z</time>
      </trkpt>
      <trkpt lat="48.34158" lon="0.02553">
        <ele>178</ele>
        <time>2013-06-07T07:45:40Z</time>
      </trkpt>
      <trkpt lat="48.34165" lon="0.02545">
        <ele>170</ele>
        <time>2013-06-07T07:45:48Z</time>
      </trkpt>
      <trkpt lat="48.34176" lon="0.02538">
        <ele>170</ele>
        <time>2013-06-07T07:45:56Z</time>
      </trkpt>
      <trkpt lat="48.34184" lon="0.02531">
        <ele>170</ele>
        <time>2013-06-07T07:46:06Z</time>
      </trkpt>
      <trkpt lat="48.34192" lon="0.02523">
        <ele>170</ele>
        <time>2013-06-07T07:46:12Z</time>
      </trkpt>
      <trkpt lat="48.342" lon="0.02515">
        <ele>170</ele>
        <time>2013-06-07T07:46:21Z</time>
      </trkpt>
      <trkpt lat="48.34208" lon="0.02505">
        <ele>170</ele>
        <time>2013-06-07T07:46:31Z</time>
      </trkpt>
      <trkpt lat="48.34215" lon="0.02495">
        <ele>170</ele>
        <time>2013-06-07T07:46:39Z</time>
      </trkpt>
      <trkpt lat="48.34225" lon="0.02487">
        <ele>170</ele>
        <time>2013-06-07T07:46:47Z</time>
      </trkpt>
      <trkpt lat="48.34232" lon="0.02478">
        <ele>170</ele>
        <time>2013-06-07T07:46:56Z</time>
      </trkpt>
      <trkpt lat="48.34243" lon="0.02479">
        <ele>170</ele>
        <time>2013-06-07T07:47:03Z</time>
      </trkpt>
      <trkpt lat="48.34248" lon="0.02465">
        <ele>180</ele>
        <time>2013-06-07T07:47:11Z</time>
      </trkpt>
      <trkpt lat="48.34256" lon="0.02457">
        <ele>180</ele>
        <time>2013-06-07T07:47:21Z</time>
      </trkpt>
      <trkpt lat="48.34265" lon="0.02448">
        <ele>180</ele>
        <time>2013-06-07T07:47:27Z</time>
      </trkpt>
      <trkpt lat="48.34271" lon="0.02434">
        <ele>180</ele>
        <time>2013-06-07T07:47:38Z</time>
      </trkpt>
      <trkpt lat="48.34279" lon="0.02425">
        <ele>180</ele>
        <time>2013-06-07T07:47:47Z</time>
      </trkpt>
      <trkpt lat="48.34286" lon="0.02415">
        <ele>170</ele>
        <time>2013-06-07T07:47:56Z</time>
      </trkpt>
      <trkpt lat="48.34294" lon="0.02407">
        <ele>170</ele>
        <time>2013-06-07T07:48:03Z</time>
      </trkpt>
      <trkpt lat="48.34301" lon="0.02397">
        <ele>170</ele>
        <time>2013-06-07T07:48:11Z</time>
      </trkpt>
      <trkpt lat="48.34308" lon="0.02386">
        <ele>170</ele>
        <time>2013-06-07T07:48:20Z</time>
      </trkpt>
      <trkpt lat="48.34313" lon="0.02373">
        <ele>170</ele>
        <time>2013-06-07T07:48:29Z</time>
      </trkpt>
      <trkpt lat="48.34319" lon="0.02362">
        <ele>170</ele>
        <time>2013-06-07T07:48:36Z</time>
      </trkpt>
      <trkpt lat="48.34326" lon="0.0235">
        <ele>177</ele>
        <time>2013-06-07T07:48:45Z</time>
      </trkpt>
      <trkpt lat="48.34333" lon="0.0234">
        <ele>177</ele>
        <time>2013-06-07T07:48:53Z</time>
      </trkpt>
      <trkpt lat="48.3434" lon="0.0233">
        <ele>177</ele>
        <time>2013-06-07T07:49:01Z</time>
      </trkpt>
      <trkpt lat="48.34345" lon="0.02318">
        <ele>170</ele>
        <time>2013-06-07T07:49:09Z</time>
      </trkpt>
      <trkpt lat="48.34352" lon="0.02308">
        <ele>170</ele>
        <time>2013-06-07T07:49:17Z</time>
      </trkpt>
      <trkpt lat="48.34359" lon="0.02297">
        <ele>163</ele>
        <time>2013-06-07T07:49:25Z</time>
      </trkpt>
      <trkpt lat="48.34368" lon="0.0229">
        <ele>171</ele>
        <time>2013-06-07T07:49:33Z</time>
      </trkpt>
      <trkpt lat="48.34375" lon="0.0228">
        <ele>171</ele>
        <time>2013-06-07T07:49:41Z</time>
      </trkpt>
      <trkpt lat="48.34382" lon="0.02268">
        <ele>171</ele>
        <time>2013-06-07T07:49:50Z</time>
      </trkpt>
      <trkpt lat="48.34389" lon="0.02259">
        <ele>177</ele>
        <time>2013-06-07T07:49:57Z</time>
      </trkpt>
      <trkpt lat="48.34397" lon="0.02249">
        <ele>177</ele>
        <time>2013-06-07T07:50:04Z</time>
      </trkpt>
      <trkpt lat="48.34403" lon="0.02238">
        <ele>177</ele>
        <time>2013-06-07T07:50:13Z</time>
      </trkpt>
      <trkpt lat="48.34409" lon="0.02227">
        <ele>169</ele>
        <time>2013-06-07T07:50:20Z</time>
      </trkpt>
      <trkpt lat="48.34415" lon="0.02215">
        <ele>169</ele>
        <time>2013-06-07T07:50:28Z</time>
      </trkpt>
      <trkpt lat="48.34421" lon="0.02205">
        <ele>169</ele>
        <time>2013-06-07T07:50:38Z</time>
      </trkpt>
      <trkpt lat="48.34425" lon="0.02192">
        <ele>169</ele>
        <time>2013-06-07T07:50:45Z</time>
      </trkpt>
      <trkpt lat="48.34432" lon="0.02181">
        <ele>169</ele>
        <time>2013-06-07T07:50:53Z</time>
      </trkpt>
      <trkpt lat="48.34439" lon="0.02171">
        <ele>169</ele>
        <time>2013-06-07T07:51:02Z</time>
      </trkpt>
      <trkpt lat="48.34447" lon="0.02165">
        <ele>169</ele>
        <time>2013-06-07T07:51:07Z</time>
      </trkpt>
      <trkpt lat="48.34456" lon="0.02156">
        <ele>169</ele>
        <time>2013-06-07T07:51:17Z</time>
      </trkpt>
      <trkpt lat="48.34464" lon="0.02148">
        <ele>169</ele>
        <time>2013-06-07T07:51:24Z</time>
      </trkpt>
      <trkpt lat="48.34471" lon="0.02139">
        <ele>169</ele>
        <time>2013-06-07T07:51:29Z</time>
      </trkpt>
      <trkpt lat="48.34479" lon="0.02132">
        <ele>169</ele>
        <time>2013-06-07T07:51:37Z</time>
      </trkpt>
      <trkpt lat="48.34486" lon="0.02122">
        <ele>175</ele>
        <time>2013-06-07T07:51:47Z</time>
      </trkpt>
      <trkpt lat="48.34494" lon="0.02114">
        <ele>175</ele>
        <time>2013-06-07T07:51:56Z</time>
      </trkpt>
      <trkpt lat="48.34501" lon="0.02105">
        <ele>175</ele>
        <time>2013-06-07T07:52:05Z</time>
      </trkpt>
      <trkpt lat="48.34505" lon="0.02091">
        <ele>175</ele>
        <time>2013-06-07T07:52:12Z</time>
      </trkpt>
      <trkpt lat="48.34512" lon="0.02081">
        <ele>175</ele>
        <time>2013-06-07T07:52:20Z</time>
      </trkpt>
      <trkpt lat="48.34516" lon="0.02069">
        <ele>175</ele>
        <time>2013-06-07T07:52:30Z</time>
      </trkpt>
      <trkpt lat="48.34523" lon="0.02057">
        <ele>182</ele>
        <time>2013-06-07T07:52:36Z</time>
      </trkpt>
      <trkpt lat="48.34528" lon="0.02045">
        <ele>182</ele>
        <time>2013-06-07T07:52:46Z</time>
      </trkpt>
      <trkpt lat="48.34534" lon="0.02033">
        <ele>182</ele>
        <time>2013-06-07T07:52:54Z</time>
      </trkpt>
      <trkpt lat="48.3454" lon="0.0202">
        <ele>182</ele>
        <time>2013-06-07T07:53:01Z</time>
      </trkpt>
      <trkpt lat="48.34546" lon="0.0201">
        <ele>182</ele>
        <time>2013-06-07T07:53:09Z</time>
      </trkpt>
      <trkpt lat="48.34553" lon="0.02001">
        <ele>182</ele>
        <time>2013-06-07T07:53:17Z</time>
      </trkpt>
      <trkpt lat="48.34558" lon="0.01987">
        <ele>182</ele>
        <time>2013-06-07T07:53:28Z</time>
      </trkpt>
      <trkpt lat="48.34562" lon="0.01975">
        <ele>182</ele>
        <time>2013-06-07T07:53:36Z</time>
      </trkpt>
      <trkpt lat="48.34568" lon="0.01964">
        <ele>182</ele>
        <time>2013-06-07T07:53:43Z</time>
      </trkpt>
      <trkpt lat="48.34575" lon="0.01953">
        <ele>176</ele>
        <time>2013-06-07T07:53:50Z</time>
      </trkpt>
      <trkpt lat="48.3458" lon="0.01941">
        <ele>176</ele>
        <time>2013-06-07T07:53:57Z</time>
      </trkpt>
      <trkpt lat="48.34585" lon="0.01928">
        <ele>176</ele>
        <time>2013-06-07T07:54:09Z</time>
      </trkpt>
      <trkpt lat="48.34592" lon="0.01917">
        <ele>176</ele>
        <time>2013-06-07T07:54:15Z</time>
      </trkpt>
      <trkpt lat="48.34598" lon="0.01904">
        <ele>176</ele>
        <time>2013-06-07T07:54:23Z</time>
      </trkpt>
      <trkpt lat="48.34603" lon="0.01892">
        <ele>182</ele>
        <time>2013-06-07T07:54:33Z</time>
      </trkpt>
      <trkpt lat="48.34607" lon="0.01879">
        <ele>182</ele>
        <time>2013-06-07T07:54:41Z</time>
      </trkpt>
      <trkpt lat="48.34613" lon="0.01868">
        <ele>182</ele>
        <time>2013-06-07T07:54:49Z</time>
      </trkpt>
      <trkpt lat="48.34618" lon="0.01856">
        <ele>182</ele>
        <time>2013-06-07T07:55:01Z</time>
      </trkpt>
      <trkpt lat="48.34625" lon="0.01846">
        <ele>182</ele>
        <time>2013-06-07T07:55:07Z</time>
      </trkpt>
      <trkpt lat="48.34632" lon="0.01834">
        <ele>182</ele>
        <time>2013-06-07T07:55:16Z</time>
      </trkpt>
      <trkpt lat="48.34635" lon="0.01821">
        <ele>182</ele>
        <time>2013-06-07T07:55:25Z</time>
      </trkpt>
      <trkpt lat="48.34641" lon="0.01807">
        <ele>177</ele>
        <time>2013-06-07T07:55:34Z</time>
      </trkpt>
      <trkpt lat="48.34646" lon="0.01794">
        <ele>177</ele>
        <time>2013-06-07T07:55:44Z</time>
      </trkpt>
      <trkpt lat="48.3465" lon="0.01779">
        <ele>177</ele>
        <time>2013-06-07T07:55:52Z</time>
      </trkpt>
      <trkpt lat="48.34658" lon="0.01769">
        <ele>177</ele>
        <time>2013-06-07T07:55:59Z</time>
      </trkpt>
      <trkpt lat="48.34659" lon="0.01754">
        <ele>177</ele>
        <time>2013-06-07T07:56:06Z</time>
      </trkpt>
      <trkpt lat="48.34664" lon="0.01742">
        <ele>177</ele>
        <time>2013-06-07T07:56:14Z</time>
      </trkpt>
      <trkpt lat="48.34671" lon="0.01732">
        <ele>177</ele>
        <time>2013-06-07T07:56:22Z</time>
      </trkpt>
      <trkpt lat="48.34677" lon="0.01719">
        <ele>177</ele>
        <time>2013-06-07T07:56:30Z</time>
      </trkpt>
      <trkpt lat="48.34686" lon="0.01711">
        <ele>184</ele>
        <time>2013-06-07T07:56:36Z</time>
      </trkpt>
      <trkpt lat="48.34695" lon="0.01705">
        <ele>184</ele>
        <time>2013-06-07T07:56:44Z</time>
      </trkpt>
      <trkpt lat="48.347" lon="0.01693">
        <ele>184</ele>
        <time>2013-06-07T07:56:54Z</time>
      </trkpt>
      <trkpt lat="48.34709" lon="0.0169">
        <ele>189</ele>
        <time>2013-06-07T07:57:48Z</time>
      </trkpt>
      <trkpt lat="48.34701" lon="0.01697">
        <ele>189</ele>
        <time>2013-06-07T07:57:55Z</time>
      </trkpt>
      <trkpt lat="48.34708" lon="0.01688">
        <ele>189</ele>
        <time>2013-06-07T08:00:42Z</time>
      </trkpt>
      <trkpt lat="48.34704" lon="0.01675">
        <ele>189</ele>
        <time>2013-06-07T08:01:23Z</time>
      </trkpt>
      <trkpt lat="48.34705" lon="0.01661">
        <ele>189</ele>
        <time>2013-06-07T08:01:37Z</time>
      </trkpt>
      <trkpt lat="48.347" lon="0.01674">
        <ele>182</ele>
        <time>2013-06-07T08:02:43Z</time>
      </trkpt>
      <trkpt lat="48.34699" lon="0.01688">
        <ele>177</ele>
        <time>2013-06-07T08:02:54Z</time>
      </trkpt>
      <trkpt lat="48.34709" lon="0.01691">
        <ele>188</ele>
        <time>2013-06-07T08:03:52Z</time>
      </trkpt>
      <trkpt lat="48.34719" lon="0.0169">
        <ele>188</ele>
        <time>2013-06-07T08:04:03Z</time>
      </trkpt>
      <trkpt lat="48.34728" lon="0.01687">
        <ele>188</ele>
        <time>2013-06-07T08:04:14Z</time>
      </trkpt>
      <trkpt lat="48.34738" lon="0.01687">
        <ele>175</ele>
        <time>2013-06-07T08:04:27Z</time>
      </trkpt>
      <trkpt lat="48.34748" lon="0.01687">
        <ele>175</ele>
        <time>2013-06-07T08:04:38Z</time>
      </trkpt>
      <trkpt lat="48.34758" lon="0.01689">
        <ele>175</ele>
        <time>2013-06-07T08:04:47Z</time>
      </trkpt>
      <trkpt lat="48.34768" lon="0.01689">
        <ele>165</ele>
        <time>2013-06-07T08:04:58Z</time>
      </trkpt>
      <trkpt lat="48.34779" lon="0.01687">
        <ele>165</ele>
        <time>2013-06-07T08:05:07Z</time>
      </trkpt>
      <trkpt lat="48.34789" lon="0.01687">
        <ele>165</ele>
        <time>2013-06-07T08:05:14Z</time>
      </trkpt>
      <trkpt lat="48.34798" lon="0.01688">
        <ele>165</ele>
        <time>2013-06-07T08:05:22Z</time>
      </trkpt>
      <trkpt lat="48.34808" lon="0.01687">
        <ele>165</ele>
        <time>2013-06-07T08:05:30Z</time>
      </trkpt>
      <trkpt lat="48.34818" lon="0.01689">
        <ele>165</ele>
        <time>2013-06-07T08:05:36Z</time>
      </trkpt>
      <trkpt lat="48.34828" lon="0.0169">
        <ele>165</ele>
        <time>2013-06-07T08:05:45Z</time>
      </trkpt>
      <trkpt lat="48.34837" lon="0.01692">
        <ele>165</ele>
        <time>2013-06-07T08:05:53Z</time>
      </trkpt>
      <trkpt lat="48.34847" lon="0.01694">
        <ele>165</ele>
        <time>2013-06-07T08:06:03Z</time>
      </trkpt>
      <trkpt lat="48.34857" lon="0.01696">
        <ele>165</ele>
        <time>2013-06-07T08:06:11Z</time>
      </trkpt>
      <trkpt lat="48.34867" lon="0.01696">
        <ele>165</ele>
        <time>2013-06-07T08:06:17Z</time>
      </trkpt>
      <trkpt lat="48.34877" lon="0.01698">
        <ele>165</ele>
        <time>2013-06-07T08:06:24Z</time>
      </trkpt>
      <trkpt lat="48.34887" lon="0.017">
        <ele>165</ele>
        <time>2013-06-07T08:06:32Z</time>
      </trkpt>
      <trkpt lat="48.34898" lon="0.017">
        <ele>165</ele>
        <time>2013-06-07T08:06:41Z</time>
      </trkpt>
      <trkpt lat="48.34909" lon="0.01699">
        <ele>171</ele>
        <time>2013-06-07T08:06:47Z</time>
      </trkpt>
      <trkpt lat="48.34918" lon="0.01703">
        <ele>171</ele>
        <time>2013-06-07T08:06:57Z</time>
      </trkpt>
      <trkpt lat="48.34927" lon="0.01707">
        <ele>163</ele>
        <time>2013-06-07T08:07:07Z</time>
      </trkpt>
      <trkpt lat="48.34938" lon="0.0171">
        <ele>163</ele>
        <time>2013-06-07T08:07:16Z</time>
      </trkpt>
      <trkpt lat="48.34947" lon="0.01713">
        <ele>163</ele>
        <time>2013-06-07T08:07:24Z</time>
      </trkpt>
      <trkpt lat="48.34956" lon="0.01717">
        <ele>163</ele>
        <time>2013-06-07T08:07:32Z</time>
      </trkpt>
      <trkpt lat="48.34967" lon="0.0172">
        <ele>163</ele>
        <time>2013-06-07T08:07:40Z</time>
      </trkpt>
      <trkpt lat="48.34978" lon="0.01723">
        <ele>163</ele>
        <time>2013-06-07T08:07:47Z</time>
      </trkpt>
      <trkpt lat="48.34988" lon="0.01725">
        <ele>169</ele>
        <time>2013-06-07T08:07:53Z</time>
      </trkpt>
      <trkpt lat="48.34998" lon="0.01728">
        <ele>169</ele>
        <time>2013-06-07T08:08:01Z</time>
      </trkpt>
      <trkpt lat="48.35007" lon="0.01728">
        <ele>169</ele>
        <time>2013-06-07T08:08:08Z</time>
      </trkpt>
      <trkpt lat="48.35017" lon="0.01728">
        <ele>174</ele>
        <time>2013-06-07T08:08:16Z</time>
      </trkpt>
      <trkpt lat="48.35027" lon="0.01728">
        <ele>174</ele>
        <time>2013-06-07T08:08:23Z</time>
      </trkpt>
      <trkpt lat="48.35037" lon="0.01732">
        <ele>174</ele>
        <time>2013-06-07T08:08:33Z</time>
      </trkpt>
      <trkpt lat="48.35046" lon="0.01732">
        <ele>174</ele>
        <time>2013-06-07T08:08:41Z</time>
      </trkpt>
      <trkpt lat="48.35056" lon="0.01735">
        <ele>168</ele>
        <time>2013-06-07T08:08:51Z</time>
      </trkpt>
      <trkpt lat="48.35065" lon="0.01736">
        <ele>168</ele>
        <time>2013-06-07T08:09:02Z</time>
      </trkpt>
      <trkpt lat="48.35075" lon="0.01738">
        <ele>168</ele>
        <time>2013-06-07T08:09:10Z</time>
      </trkpt>
      <trkpt lat="48.35085" lon="0.01741">
        <ele>162</ele>
        <time>2013-06-07T08:09:18Z</time>
      </trkpt>
      <trkpt lat="48.35095" lon="0.01743">
        <ele>162</ele>
        <time>2013-06-07T08:09:25Z</time>
      </trkpt>
      <trkpt lat="48.35105" lon="0.01744">
        <ele>167</ele>
        <time>2013-06-07T08:09:32Z</time>
      </trkpt>
      <trkpt lat="48.35115" lon="0.01745">
        <ele>167</ele>
        <time>2013-06-07T08:09:38Z</time>
      </trkpt>
      <trkpt lat="48.35124" lon="0.01749">
        <ele>167</ele>
        <time>2013-06-07T08:09:46Z</time>
      </trkpt>
      <trkpt lat="48.35134" lon="0.01752">
        <ele>167</ele>
        <time>2013-06-07T08:09:52Z</time>
      </trkpt>
      <trkpt lat="48.35145" lon="0.01749">
        <ele>167</ele>
        <time>2013-06-07T08:09:58Z</time>
      </trkpt>
      <trkpt lat="48.35155" lon="0.01752">
        <ele>172</ele>
        <time>2013-06-07T08:10:06Z</time>
      </trkpt>
      <trkpt lat="48.35165" lon="0.01753">
        <ele>172</ele>
        <time>2013-06-07T08:10:15Z</time>
      </trkpt>
      <trkpt lat="48.35175" lon="0.01754">
        <ele>172</ele>
        <time>2013-06-07T08:10:23Z</time>
      </trkpt>
      <trkpt lat="48.35185" lon="0.01757">
        <ele>165</ele>
        <time>2013-06-07T08:10:32Z</time>
      </trkpt>
      <trkpt lat="48.35194" lon="0.0176">
        <ele>165</ele>
        <time>2013-06-07T08:10:41Z</time>
      </trkpt>
      <trkpt lat="48.35206" lon="0.01757">
        <ele>165</ele>
        <time>2013-06-07T08:10:46Z</time>
      </trkpt>
      <trkpt lat="48.35218" lon="0.01754">
        <ele>173</ele>
        <time>2013-06-07T08:10:52Z</time>
      </trkpt>
      <trkpt lat="48.35227" lon="0.01749">
        <ele>173</ele>
        <time>2013-06-07T08:10:59Z</time>
      </trkpt>
      <trkpt lat="48.35237" lon="0.01745">
        <ele>173</ele>
        <time>2013-06-07T08:11:08Z</time>
      </trkpt>
      <trkpt lat="48.35246" lon="0.01741">
        <ele>180</ele>
        <time>2013-06-07T08:11:14Z</time>
      </trkpt>
      <trkpt lat="48.35255" lon="0.01734">
        <ele>180</ele>
        <time>2013-06-07T08:11:22Z</time>
      </trkpt>
      <trkpt lat="48.35264" lon="0.01727">
        <ele>180</ele>
        <time>2013-06-07T08:11:32Z</time>
      </trkpt>
      <trkpt lat="48.35274" lon="0.01719">
        <ele>180</ele>
        <time>2013-06-07T08:11:42Z</time>
      </trkpt>
      <trkpt lat="48.35283" lon="0.01715">
        <ele>180</ele>
        <time>2013-06-07T08:11:49Z</time>
      </trkpt>
      <trkpt lat="48.35292" lon="0.01709">
        <ele>180</ele>
        <time>2013-06-07T08:11:58Z</time>
      </trkpt>
      <trkpt lat="48.353" lon="0.01699">
        <ele>180</ele>
        <time>2013-06-07T08:12:06Z</time>
      </trkpt>
      <trkpt lat="48.35307" lon="0.0169">
        <ele>173</ele>
        <time>2013-06-07T08:12:16Z</time>
      </trkpt>
      <trkpt lat="48.35316" lon="0.01681">
        <ele>166</ele>
        <time>2013-06-07T08:12:30Z</time>
      </trkpt>
      <trkpt lat="48.35322" lon="0.0167">
        <ele>166</ele>
        <time>2013-06-07T08:12:38Z</time>
      </trkpt>
      <trkpt lat="48.35332" lon="0.01666">
        <ele>166</ele>
        <time>2013-06-07T08:12:45Z</time>
      </trkpt>
      <trkpt lat="48.35341" lon="0.01663">
        <ele>166</ele>
        <time>2013-06-07T08:12:52Z</time>
      </trkpt>
      <trkpt lat="48.35351" lon="0.01657">
        <ele>166</ele>
        <time>2013-06-07T08:12:59Z</time>
      </trkpt>
      <trkpt lat="48.35361" lon="0.01656">
        <ele>166</ele>
        <time>2013-06-07T08:13:05Z</time>
      </trkpt>
      <trkpt lat="48.35371" lon="0.01651">
        <ele>172</ele>
        <time>2013-06-07T08:13:11Z</time>
      </trkpt>
      <trkpt lat="48.35381" lon="0.01648">
        <ele>172</ele>
        <time>2013-06-07T08:13:19Z</time>
      </trkpt>
      <trkpt lat="48.3539" lon="0.01643">
        <ele>172</ele>
        <time>2013-06-07T08:13:27Z</time>
      </trkpt>
      <trkpt lat="48.354" lon="0.01639">
        <ele>172</ele>
        <time>2013-06-07T08:13:34Z</time>
      </trkpt>
      <trkpt lat="48.3541" lon="0.01638">
        <ele>172</ele>
        <time>2013-06-07T08:13:44Z</time>
      </trkpt>
      <trkpt lat="48.35422" lon="0.01637">
        <ele>172</ele>
        <time>2013-06-07T08:13:57Z</time>
      </trkpt>
      <trkpt lat="48.35432" lon="0.01633">
        <ele>172</ele>
        <time>2013-06-07T08:14:03Z</time>
      </trkpt>
      <trkpt lat="48.35443" lon="0.01634">
        <ele>172</ele>
        <time>2013-06-07T08:14:12Z</time>
      </trkpt>
      <trkpt lat="48.35452" lon="0.01635">
        <ele>172</ele>
        <time>2013-06-07T08:14:21Z</time>
      </trkpt>
      <trkpt lat="48.35462" lon="0.01634">
        <ele>167</ele>
        <time>2013-06-07T08:14:31Z</time>
      </trkpt>
      <trkpt lat="48.35473" lon="0.01631">
        <ele>167</ele>
        <time>2013-06-07T08:14:42Z</time>
      </trkpt>
      <trkpt lat="48.35484" lon="0.0163">
        <ele>167</ele>
        <time>2013-06-07T08:14:51Z</time>
      </trkpt>
      <trkpt lat="48.35494" lon="0.01627">
        <ele>167</ele>
        <time>2013-06-07T08:14:58Z</time>
      </trkpt>
      <trkpt lat="48.35505" lon="0.01629">
        <ele>176</ele>
        <time>2013-06-07T08:15:07Z</time>
      </trkpt>
      <trkpt lat="48.35514" lon="0.01629">
        <ele>176</ele>
        <time>2013-06-07T08:15:16Z</time>
      </trkpt>
      <trkpt lat="48.35524" lon="0.01629">
        <ele>176</ele>
        <time>2013-06-07T08:15:33Z</time>
      </trkpt>
      <trkpt lat="48.35534" lon="0.0163">
        <ele>176</ele>
        <time>2013-06-07T08:16:45Z</time>
      </trkpt>
      <trkpt lat="48.35524" lon="0.01633">
        <ele>176</ele>
        <time>2013-06-07T08:17:29Z</time>
      </trkpt>
      <trkpt lat="48.35534" lon="0.01631">
        <ele>176</ele>
        <time>2013-06-07T08:17:51Z</time>
      </trkpt>
      <trkpt lat="48.35537" lon="0.01645">
        <ele>176</ele>
        <time>2013-06-07T08:18:14Z</time>
      </trkpt>
      <trkpt lat="48.35532" lon="0.01658">
        <ele>176</ele>
        <time>2013-06-07T08:18:23Z</time>
      </trkpt>
      <trkpt lat="48.35527" lon="0.01671">
        <ele>176</ele>
        <time>2013-06-07T08:18:30Z</time>
      </trkpt>
      <trkpt lat="48.35523" lon="0.01686">
        <ele>176</ele>
        <time>2013-06-07T08:18:39Z</time>
      </trkpt>
      <trkpt lat="48.35526" lon="0.01701">
        <ele>176</ele>
        <time>2013-06-07T08:18:48Z</time>
      </trkpt>
      <trkpt lat="48.35526" lon="0.01716">
        <ele>176</ele>
        <time>2013-06-07T08:18:56Z</time>
      </trkpt>
      <trkpt lat="48.35531" lon="0.01728">
        <ele>171</ele>
        <time>2013-06-07T08:19:05Z</time>
      </trkpt>
      <trkpt lat="48.35531" lon="0.01744">
        <ele>171</ele>
        <time>2013-06-07T08:19:13Z</time>
      </trkpt>
      <trkpt lat="48.35535" lon="0.01758">
        <ele>171</ele>
        <time>2013-06-07T08:19:22Z</time>
      </trkpt>
      <trkpt lat="48.35535" lon="0.01772">
        <ele>171</ele>
        <time>2013-06-07T08:19:30Z</time>
      </trkpt>
      <trkpt lat="48.35537" lon="0.01787">
        <ele>171</ele>
        <time>2013-06-07T08:19:41Z</time>
      </trkpt>
      <trkpt lat="48.3554" lon="0.01801">
        <ele>171</ele>
        <time>2013-06-07T08:19:50Z</time>
      </trkpt>
      <trkpt lat="48.35544" lon="0.01814">
        <ele>178</ele>
        <time>2013-06-07T08:19:58Z</time>
      </trkpt>
      <trkpt lat="48.35543" lon="0.01828">
        <ele>178</ele>
        <time>2013-06-07T08:20:05Z</time>
      </trkpt>
      <trkpt lat="48.3554" lon="0.01842">
        <ele>178</ele>
        <time>2013-06-07T08:20:12Z</time>
      </trkpt>
      <trkpt lat="48.35538" lon="0.01856">
        <ele>172</ele>
        <time>2013-06-07T08:20:21Z</time>
      </trkpt>
      <trkpt lat="48.35541" lon="0.01869">
        <ele>172</ele>
        <time>2013-06-07T08:20:30Z</time>
      </trkpt>
      <trkpt lat="48.35541" lon="0.01886">
        <ele>180</ele>
        <time>2013-06-07T08:20:38Z</time>
      </trkpt>
      <trkpt lat="48.35537" lon="0.01898">
        <ele>180</ele>
        <time>2013-06-07T08:20:44Z</time>
      </trkpt>
      <trkpt lat="48.35535" lon="0.01913">
        <ele>180</ele>
        <time>2013-06-07T08:20:52Z</time>
      </trkpt>
      <trkpt lat="48.35535" lon="0.01928">
        <ele>180</ele>
        <time>2013-06-07T08:21:00Z</time>
      </trkpt>
      <trkpt lat="48.35532" lon="0.01941">
        <ele>174</ele>
        <time>2013-06-07T08:21:09Z</time>
      </trkpt>
      <trkpt lat="48.35529" lon="0.01956">
        <ele>174</ele>
        <time>2013-06-07T08:21:19Z</time>
      </trkpt>
      <trkpt lat="48.35528" lon="0.0197">
        <ele>169</ele>
        <time>2013-06-07T08:21:27Z</time>
      </trkpt>
      <trkpt lat="48.35526" lon="0.01984">
        <ele>169</ele>
        <time>2013-06-07T08:21:36Z</time>
      </trkpt>
      <trkpt lat="48.35525" lon="0.01999">
        <ele>169</ele>
        <time>2013-06-07T08:21:43Z</time>
      </trkpt>
      <trkpt lat="48.35524" lon="0.02013">
        <ele>169</ele>
        <time>2013-06-07T08:21:52Z</time>
      </trkpt>
      <trkpt lat="48.35525" lon="0.02028">
        <ele>169</ele>
        <time>2013-06-07T08:21:59Z</time>
      </trkpt>
      <trkpt lat="48.35521" lon="0.02041">
        <ele>169</ele>
        <time>2013-06-07T08:22:08Z</time>
      </trkpt>
      <trkpt lat="48.35513" lon="0.02049">
        <ele>169</ele>
        <time>2013-06-07T08:22:16Z</time>
      </trkpt>
      <trkpt lat="48.35511" lon="0.02063">
        <ele>169</ele>
        <time>2013-06-07T08:22:24Z</time>
      </trkpt>
      <trkpt lat="48.35508" lon="0.02078">
        <ele>169</ele>
        <time>2013-06-07T08:22:34Z</time>
      </trkpt>
      <trkpt lat="48.35508" lon="0.02093">
        <ele>169</ele>
        <time>2013-06-07T08:22:44Z</time>
      </trkpt>
      <trkpt lat="48.3551" lon="0.02107">
        <ele>163</ele>
        <time>2013-06-07T08:22:54Z</time>
      </trkpt>
      <trkpt lat="48.35511" lon="0.02122">
        <ele>174</ele>
        <time>2013-06-07T08:23:11Z</time>
      </trkpt>
      <trkpt lat="48.35519" lon="0.02132">
        <ele>174</ele>
        <time>2013-06-07T08:23:34Z</time>
      </trkpt>
      <trkpt lat="48.35526" lon="0.02141">
        <ele>174</ele>
        <time>2013-06-07T08:23:43Z</time>
      </trkpt>
      <trkpt lat="48.35534" lon="0.02151">
        <ele>174</ele>
        <time>2013-06-07T08:23:51Z</time>
      </trkpt>
      <trkpt lat="48.35543" lon="0.02156">
        <ele>183</ele>
        <time>2013-06-07T08:24:00Z</time>
      </trkpt>
      <trkpt lat="48.35552" lon="0.0216">
        <ele>183</ele>
        <time>2013-06-07T08:24:10Z</time>
      </trkpt>
      <trkpt lat="48.35555" lon="0.02174">
        <ele>177</ele>
        <time>2013-06-07T08:24:26Z</time>
      </trkpt>
      <trkpt lat="48.35553" lon="0.02189">
        <ele>177</ele>
        <time>2013-06-07T08:24:36Z</time>
      </trkpt>
      <trkpt lat="48.35553" lon="0.02205">
        <ele>177</ele>
        <time>2013-06-07T08:24:45Z</time>
      </trkpt>
      <trkpt lat="48.35556" lon="0.02218">
        <ele>177</ele>
        <time>2013-06-07T08:24:52Z</time>
      </trkpt>
      <trkpt lat="48.35559" lon="0.02231">
        <ele>177</ele>
        <time>2013-06-07T08:24:59Z</time>
      </trkpt>
      <trkpt lat="48.35563" lon="0.02244">
        <ele>171</ele>
        <time>2013-06-07T08:25:08Z</time>
      </trkpt>
      <trkpt lat="48.35565" lon="0.02258">
        <ele>171</ele>
        <time>2013-06-07T08:25:15Z</time>
      </trkpt>
      <trkpt lat="48.35567" lon="0.02272">
        <ele>171</ele>
        <time>2013-06-07T08:25:21Z</time>
      </trkpt>
      <trkpt lat="48.35571" lon="0.02286">
        <ele>171</ele>
        <time>2013-06-07T08:25:30Z</time>
      </trkpt>
      <trkpt lat="48.35575" lon="0.023">
        <ele>179</ele>
        <time>2013-06-07T08:25:37Z</time>
      </trkpt>
      <trkpt lat="48.3558" lon="0.02312">
        <ele>179</ele>
        <time>2013-06-07T08:25:46Z</time>
      </trkpt>
      <trkpt lat="48.35586" lon="0.02323">
        <ele>179</ele>
        <time>2013-06-07T08:25:54Z</time>
      </trkpt>
      <trkpt lat="48.35594" lon="0.02333">
        <ele>179</ele>
        <time>2013-06-07T08:26:04Z</time>
      </trkpt>
      <trkpt lat="48.356" lon="0.02344">
        <ele>179</ele>
        <time>2013-06-07T08:26:13Z</time>
      </trkpt>
      <trkpt lat="48.35604" lon="0.02357">
        <ele>179</ele>
        <time>2013-06-07T08:26:22Z</time>
      </trkpt>
      <trkpt lat="48.35609" lon="0.02369">
        <ele>179</ele>
        <time>2013-06-07T08:26:31Z</time>
      </trkpt>
      <trkpt lat="48.35613" lon="0.02382">
        <ele>179</ele>
        <time>2013-06-07T08:26:39Z</time>
      </trkpt>
      <trkpt lat="48.35617" lon="0.02395">
        <ele>179</ele>
        <time>2013-06-07T08:26:48Z</time>
      </trkpt>
      <trkpt lat="48.35622" lon="0.02408">
        <ele>179</ele>
        <time>2013-06-07T08:26:57Z</time>
      </trkpt>
      <trkpt lat="48.35628" lon="0.02421">
        <ele>179</ele>
        <time>2013-06-07T08:27:06Z</time>
      </trkpt>
      <trkpt lat="48.35633" lon="0.02433">
        <ele>179</ele>
        <time>2013-06-07T08:27:14Z</time>
      </trkpt>
      <trkpt lat="48.35638" lon="0.02444">
        <ele>179</ele>
        <time>2013-06-07T08:27:22Z</time>
      </trkpt>
      <trkpt lat="48.35643" lon="0.02458">
        <ele>179</ele>
        <time>2013-06-07T08:27:32Z</time>
      </trkpt>
      <trkpt lat="48.35647" lon="0.0247">
        <ele>179</ele>
        <time>2013-06-07T08:27:42Z</time>
      </trkpt>
      <trkpt lat="48.35652" lon="0.02483">
        <ele>179</ele>
        <time>2013-06-07T08:27:51Z</time>
      </trkpt>
      <trkpt lat="48.35656" lon="0.02497">
        <ele>179</ele>
        <time>2013-06-07T08:27:59Z</time>
      </trkpt>
      <trkpt lat="48.3566" lon="0.02511">
        <ele>179</ele>
        <time>2013-06-07T08:28:07Z</time>
      </trkpt>
      <trkpt lat="48.35662" lon="0.02525">
        <ele>179</ele>
        <time>2013-06-07T08:28:16Z</time>
      </trkpt>
      <trkpt lat="48.35664" lon="0.0254">
        <ele>179</ele>
        <time>2013-06-07T08:28:24Z</time>
      </trkpt>
      <trkpt lat="48.35666" lon="0.02553">
        <ele>179</ele>
        <time>2013-06-07T08:28:32Z</time>
      </trkpt>
      <trkpt lat="48.35671" lon="0.02566">
        <ele>179</ele>
        <time>2013-06-07T08:28:41Z</time>
      </trkpt>
      <trkpt lat="48.35677" lon="0.02577">
        <ele>179</ele>
        <time>2013-06-07T08:28:49Z</time>
      </trkpt>
      <trkpt lat="48.35683" lon="0.0259">
        <ele>179</ele>
        <time>2013-06-07T08:28:58Z</time>
      </trkpt>
      <trkpt lat="48.35688" lon="0.02602">
        <ele>179</ele>
        <time>2013-06-07T08:29:06Z</time>
      </trkpt>
      <trkpt lat="48.35691" lon="0.02616">
        <ele>179</ele>
        <time>2013-06-07T08:29:21Z</time>
      </trkpt>
      <trkpt lat="48.35693" lon="0.02629">
        <ele>179</ele>
        <time>2013-06-07T08:29:30Z</time>
      </trkpt>
      <trkpt lat="48.35695" lon="0.02644">
        <ele>179</ele>
        <time>2013-06-07T08:29:44Z</time>
      </trkpt>
      <trkpt lat="48.35693" lon="0.02658">
        <ele>179</ele>
        <time>2013-06-07T08:29:54Z</time>
      </trkpt>
      <trkpt lat="48.35691" lon="0.02672">
        <ele>185</ele>
        <time>2013-06-07T08:29:59Z</time>
      </trkpt>
      <trkpt lat="48.35689" lon="0.02686">
        <ele>185</ele>
        <time>2013-06-07T08:30:07Z</time>
      </trkpt>
      <trkpt lat="48.35688" lon="0.02702">
        <ele>185</ele>
        <time>2013-06-07T08:30:14Z</time>
      </trkpt>
      <trkpt lat="48.35685" lon="0.02716">
        <ele>185</ele>
        <time>2013-06-07T08:30:22Z</time>
      </trkpt>
      <trkpt lat="48.35683" lon="0.02731">
        <ele>185</ele>
        <time>2013-06-07T08:30:31Z</time>
      </trkpt>
      <trkpt lat="48.35682" lon="0.02745">
        <ele>185</ele>
        <time>2013-06-07T08:30:40Z</time>
      </trkpt>
      <trkpt lat="48.3568" lon="0.02761">
        <ele>185</ele>
        <time>2013-06-07T08:30:49Z</time>
      </trkpt>
      <trkpt lat="48.35679" lon="0.02775">
        <ele>178</ele>
        <time>2013-06-07T08:30:59Z</time>
      </trkpt>
      <trkpt lat="48.35679" lon="0.02789">
        <ele>178</ele>
        <time>2013-06-07T08:31:08Z</time>
      </trkpt>
      <trkpt lat="48.35679" lon="0.02805">
        <ele>172</ele>
        <time>2013-06-07T08:31:18Z</time>
      </trkpt>
      <trkpt lat="48.35677" lon="0.02822">
        <ele>172</ele>
        <time>2013-06-07T08:31:26Z</time>
      </trkpt>
      <trkpt lat="48.35678" lon="0.02836">
        <ele>172</ele>
        <time>2013-06-07T08:31:34Z</time>
      </trkpt>
      <trkpt lat="48.35683" lon="0.0285">
        <ele>172</ele>
        <time>2013-06-07T08:31:42Z</time>
      </trkpt>
      <trkpt lat="48.35687" lon="0.02864">
        <ele>172</ele>
        <time>2013-06-07T08:31:51Z</time>
      </trkpt>
      <trkpt lat="48.35689" lon="0.02878">
        <ele>172</ele>
        <time>2013-06-07T08:31:57Z</time>
      </trkpt>
      <trkpt lat="48.35693" lon="0.02892">
        <ele>172</ele>
        <time>2013-06-07T08:32:04Z</time>
      </trkpt>
      <trkpt lat="48.35695" lon="0.02905">
        <ele>172</ele>
        <time>2013-06-07T08:32:11Z</time>
      </trkpt>
      <trkpt lat="48.35698" lon="0.0292">
        <ele>172</ele>
        <time>2013-06-07T08:32:20Z</time>
      </trkpt>
      <trkpt lat="48.35699" lon="0.02935">
        <ele>172</ele>
        <time>2013-06-07T08:32:28Z</time>
      </trkpt>
      <trkpt lat="48.35702" lon="0.02949">
        <ele>172</ele>
        <time>2013-06-07T08:32:36Z</time>
      </trkpt>
      <trkpt lat="48.35702" lon="0.02964">
        <ele>172</ele>
        <time>2013-06-07T08:32:43Z</time>
      </trkpt>
      <trkpt lat="48.35704" lon="0.02979">
        <ele>180</ele>
        <time>2013-06-07T08:32:51Z</time>
      </trkpt>
      <trkpt lat="48.35707" lon="0.02992">
        <ele>180</ele>
        <time>2013-06-07T08:32:59Z</time>
      </trkpt>
      <trkpt lat="48.35711" lon="0.03007">
        <ele>180</ele>
        <time>2013-06-07T08:33:07Z</time>
      </trkpt>
      <trkpt lat="48.35714" lon="0.0302">
        <ele>180</ele>
        <time>2013-06-07T08:33:16Z</time>
      </trkpt>
      <trkpt lat="48.35717" lon="0.03035">
        <ele>175</ele>
        <time>2013-06-07T08:33:24Z</time>
      </trkpt>
      <trkpt lat="48.3572" lon="0.03048">
        <ele>175</ele>
        <time>2013-06-07T08:33:31Z</time>
      </trkpt>
      <trkpt lat="48.35722" lon="0.03062">
        <ele>175</ele>
        <time>2013-06-07T08:33:38Z</time>
      </trkpt>
      <trkpt lat="48.35725" lon="0.03076">
        <ele>175</ele>
        <time>2013-06-07T08:33:46Z</time>
      </trkpt>
      <trkpt lat="48.35728" lon="0.03089">
        <ele>175</ele>
        <time>2013-06-07T08:33:53Z</time>
      </trkpt>
      <trkpt lat="48.35729" lon="0.03105">
        <ele>181</ele>
        <time>2013-06-07T08:34:01Z</time>
      </trkpt>
      <trkpt lat="48.35732" lon="0.03119">
        <ele>181</ele>
        <time>2013-06-07T08:34:09Z</time>
      </trkpt>
      <trkpt lat="48.35734" lon="0.03133">
        <ele>181</ele>
        <time>2013-06-07T08:34:19Z</time>
      </trkpt>
      <trkpt lat="48.35737" lon="0.03147">
        <ele>181</ele>
        <time>2013-06-07T08:34:26Z</time>
      </trkpt>
      <trkpt lat="48.35741" lon="0.03161">
        <ele>181</ele>
        <time>2013-06-07T08:34:37Z</time>
      </trkpt>
      <trkpt lat="48.35743" lon="0.03176">
        <ele>181</ele>
        <time>2013-06-07T08:34:44Z</time>
      </trkpt>
      <trkpt lat="48.35745" lon="0.03191">
        <ele>181</ele>
        <time>2013-06-07T08:34:51Z</time>
      </trkpt>
      <trkpt lat="48.35747" lon="0.03205">
        <ele>181</ele>
        <time>2013-06-07T08:35:01Z</time>
      </trkpt>
      <trkpt lat="48.35749" lon="0.03219">
        <ele>181</ele>
        <time>2013-06-07T08:35:08Z</time>
      </trkpt>
      <trkpt lat="48.35753" lon="0.03234">
        <ele>174</ele>
        <time>2013-06-07T08:35:18Z</time>
      </trkpt>
      <trkpt lat="48.35755" lon="0.03247">
        <ele>174</ele>
        <time>2013-06-07T08:35:26Z</time>
      </trkpt>
      <trkpt lat="48.35758" lon="0.03263">
        <ele>174</ele>
        <time>2013-06-07T08:35:33Z</time>
      </trkpt>
      <trkpt lat="48.35759" lon="0.03277">
        <ele>174</ele>
        <time>2013-06-07T08:35:42Z</time>
      </trkpt>
      <trkpt lat="48.3576" lon="0.03292">
        <ele>174</ele>
        <time>2013-06-07T08:35:49Z</time>
      </trkpt>
      <trkpt lat="48.35761" lon="0.03309">
        <ele>179</ele>
        <time>2013-06-07T08:35:58Z</time>
      </trkpt>
      <trkpt lat="48.35752" lon="0.03313">
        <ele>194</ele>
        <time>2013-06-07T08:36:40Z</time>
      </trkpt>
      <trkpt lat="48.35758" lon="0.03324">
        <ele>184</ele>
        <time>2013-06-07T08:40:14Z</time>
      </trkpt>
      <trkpt lat="48.35761" lon="0.03337">
        <ele>184</ele>
        <time>2013-06-07T08:40:26Z</time>
      </trkpt>
      <trkpt lat="48.35767" lon="0.03349">
        <ele>184</ele>
        <time>2013-06-07T08:41:32Z</time>
      </trkpt>
      <trkpt lat="48.35769" lon="0.03362">
        <ele>177</ele>
        <time>2013-06-07T08:41:38Z</time>
      </trkpt>
      <trkpt lat="48.35767" lon="0.03377">
        <ele>177</ele>
        <time>2013-06-07T08:41:46Z</time>
      </trkpt>
      <trkpt lat="48.35762" lon="0.0339">
        <ele>177</ele>
        <time>2013-06-07T08:41:55Z</time>
      </trkpt>
      <trkpt lat="48.35756" lon="0.03403">
        <ele>177</ele>
        <time>2013-06-07T08:42:02Z</time>
      </trkpt>
      <trkpt lat="48.35751" lon="0.03415">
        <ele>177</ele>
        <time>2013-06-07T08:42:11Z</time>
      </trkpt>
      <trkpt lat="48.35747" lon="0.03427">
        <ele>177</ele>
        <time>2013-06-07T08:42:19Z</time>
      </trkpt>
      <trkpt lat="48.35746" lon="0.03441">
        <ele>172</ele>
        <time>2013-06-07T08:42:28Z</time>
      </trkpt>
      <trkpt lat="48.35742" lon="0.03455">
        <ele>172</ele>
        <time>2013-06-07T08:42:34Z</time>
      </trkpt>
      <trkpt lat="48.35739" lon="0.03468">
        <ele>172</ele>
        <time>2013-06-07T08:42:43Z</time>
      </trkpt>
      <trkpt lat="48.3574" lon="0.03484">
        <ele>172</ele>
        <time>2013-06-07T08:42:55Z</time>
      </trkpt>
      <trkpt lat="48.35738" lon="0.03498">
        <ele>172</ele>
        <time>2013-06-07T08:43:03Z</time>
      </trkpt>
      <trkpt lat="48.35733" lon="0.03512">
        <ele>172</ele>
        <time>2013-06-07T08:43:10Z</time>
      </trkpt>
      <trkpt lat="48.35729" lon="0.03526">
        <ele>172</ele>
        <time>2013-06-07T08:43:17Z</time>
      </trkpt>
      <trkpt lat="48.35726" lon="0.0354">
        <ele>172</ele>
        <time>2013-06-07T08:43:24Z</time>
      </trkpt>
      <trkpt lat="48.3572" lon="0.03552">
        <ele>172</ele>
        <time>2013-06-07T08:43:30Z</time>
      </trkpt>
      <trkpt lat="48.35717" lon="0.03565">
        <ele>172</ele>
        <time>2013-06-07T08:43:38Z</time>
      </trkpt>
      <trkpt lat="48.35715" lon="0.0358">
        <ele>172</ele>
        <time>2013-06-07T08:43:48Z</time>
      </trkpt>
      <trkpt lat="48.3571" lon="0.03592">
        <ele>172</ele>
        <time>2013-06-07T08:43:52Z</time>
      </trkpt>
      <trkpt lat="48.35708" lon="0.03606">
        <ele>177</ele>
        <time>2013-06-07T08:43:59Z</time>
      </trkpt>
      <trkpt lat="48.35703" lon="0.03618">
        <ele>177</ele>
        <time>2013-06-07T08:44:09Z</time>
      </trkpt>
      <trkpt lat="48.35696" lon="0.03628">
        <ele>177</ele>
        <time>2013-06-07T08:44:14Z</time>
      </trkpt>
      <trkpt lat="48.35686" lon="0.03636">
        <ele>177</ele>
        <time>2013-06-07T08:44:26Z</time>
      </trkpt>
      <trkpt lat="48.35676" lon="0.03636">
        <ele>177</ele>
        <time>2013-06-07T08:44:32Z</time>
      </trkpt>
      <trkpt lat="48.35667" lon="0.03638">
        <ele>177</ele>
        <time>2013-06-07T08:44:38Z</time>
      </trkpt>
      <trkpt lat="48.35657" lon="0.03642">
        <ele>177</ele>
        <time>2013-06-07T08:44:47Z</time>
      </trkpt>
      <trkpt lat="48.35647" lon="0.03642">
        <ele>177</ele>
        <time>2013-06-07T08:44:59Z</time>
      </trkpt>
      <trkpt lat="48.35638" lon="0.03645">
        <ele>186</ele>
        <time>2013-06-07T08:45:12Z</time>
      </trkpt>
      <trkpt lat="48.35628" lon="0.03648">
        <ele>186</ele>
        <time>2013-06-07T08:45:22Z</time>
      </trkpt>
      <trkpt lat="48.35618" lon="0.03652">
        <ele>173</ele>
        <time>2013-06-07T08:46:30Z</time>
      </trkpt>
      <trkpt lat="48.35608" lon="0.03655">
        <ele>173</ele>
        <time>2013-06-07T08:46:39Z</time>
      </trkpt>
      <trkpt lat="48.356" lon="0.03664">
        <ele>173</ele>
        <time>2013-06-07T08:46:47Z</time>
      </trkpt>
      <trkpt lat="48.35592" lon="0.03672">
        <ele>178</ele>
        <time>2013-06-07T08:46:55Z</time>
      </trkpt>
      <trkpt lat="48.35586" lon="0.03684">
        <ele>178</ele>
        <time>2013-06-07T08:47:03Z</time>
      </trkpt>
      <trkpt lat="48.35581" lon="0.03698">
        <ele>178</ele>
        <time>2013-06-07T08:47:11Z</time>
      </trkpt>
      <trkpt lat="48.35578" lon="0.03712">
        <ele>178</ele>
        <time>2013-06-07T08:47:19Z</time>
      </trkpt>
      <trkpt lat="48.35576" lon="0.03726">
        <ele>178</ele>
        <time>2013-06-07T08:47:28Z</time>
      </trkpt>
      <trkpt lat="48.35573" lon="0.0374">
        <ele>178</ele>
        <time>2013-06-07T08:47:36Z</time>
      </trkpt>
      <trkpt lat="48.35571" lon="0.03754">
        <ele>178</ele>
        <time>2013-06-07T08:47:45Z</time>
      </trkpt>
      <trkpt lat="48.35567" lon="0.03768">
        <ele>178</ele>
        <time>2013-06-07T08:47:51Z</time>
      </trkpt>
      <trkpt lat="48.35564" lon="0.03782">
        <ele>178</ele>
        <time>2013-06-07T08:48:01Z</time>
      </trkpt>
      <trkpt lat="48.35562" lon="0.03797">
        <ele>173</ele>
        <time>2013-06-07T08:48:11Z</time>
      </trkpt>
      <trkpt lat="48.3556" lon="0.03812">
        <ele>173</ele>
        <time>2013-06-07T08:48:21Z</time>
      </trkpt>
      <trkpt lat="48.35558" lon="0.03826">
        <ele>173</ele>
        <time>2013-06-07T08:48:29Z</time>
      </trkpt>
      <trkpt lat="48.35558" lon="0.03841">
        <ele>173</ele>
        <time>2013-06-07T08:48:37Z</time>
      </trkpt>
      <trkpt lat="48.35558" lon="0.03857">
        <ele>173</ele>
        <time>2013-06-07T08:48:46Z</time>
      </trkpt>
      <trkpt lat="48.35558" lon="0.03872">
        <ele>173</ele>
        <time>2013-06-07T08:48:54Z</time>
      </trkpt>
      <trkpt lat="48.35558" lon="0.03886">
        <ele>173</ele>
        <time>2013-06-07T08:49:01Z</time>
      </trkpt>
      <trkpt lat="48.35556" lon="0.039">
        <ele>173</ele>
        <time>2013-06-07T08:49:10Z</time>
      </trkpt>
      <trkpt lat="48.35552" lon="0.03912">
        <ele>167</ele>
        <time>2013-06-07T08:49:19Z</time>
      </trkpt>
      <trkpt lat="48.35547" lon="0.03927">
        <ele>167</ele>
        <time>2013-06-07T08:49:26Z</time>
      </trkpt>
      <trkpt lat="48.35543" lon="0.03939">
        <ele>167</ele>
        <time>2013-06-07T08:49:33Z</time>
      </trkpt>
      <trkpt lat="48.35539" lon="0.03952">
        <ele>173</ele>
        <time>2013-06-07T08:49:41Z</time>
      </trkpt>
      <trkpt lat="48.35537" lon="0.03966">
        <ele>173</ele>
        <time>2013-06-07T08:49:49Z</time>
      </trkpt>
      <trkpt lat="48.35535" lon="0.03981">
        <ele>173</ele>
        <time>2013-06-07T08:49:57Z</time>
      </trkpt>
      <trkpt lat="48.35534" lon="0.03996">
        <ele>173</ele>
        <time>2013-06-07T08:50:07Z</time>
      </trkpt>
      <trkpt lat="48.35532" lon="0.04009">
        <ele>173</ele>
        <time>2013-06-07T08:50:14Z</time>
      </trkpt>
      <trkpt lat="48.35528" lon="0.04024">
        <ele>173</ele>
        <time>2013-06-07T08:50:22Z</time>
      </trkpt>
      <trkpt lat="48.35523" lon="0.04037">
        <ele>173</ele>
        <time>2013-06-07T08:50:30Z</time>
      </trkpt>
      <trkpt lat="48.35517" lon="0.0405">
        <ele>173</ele>
        <time>2013-06-07T08:50:37Z</time>
      </trkpt>
      <trkpt lat="48.35513" lon="0.04062">
        <ele>173</ele>
        <time>2013-06-07T08:50:45Z</time>
      </trkpt>
      <trkpt lat="48.35509" lon="0.04076">
        <ele>173</ele>
        <time>2013-06-07T08:50:52Z</time>
      </trkpt>
      <trkpt lat="48.35506" lon="0.04089">
        <ele>173</ele>
        <time>2013-06-07T08:51:07Z</time>
      </trkpt>
      <trkpt lat="48.35513" lon="0.041">
        <ele>173</ele>
        <time>2013-06-07T08:53:58Z</time>
      </trkpt>
      <trkpt lat="48.35521" lon="0.04106">
        <ele>173</ele>
        <time>2013-06-07T08:54:06Z</time>
      </trkpt>
      <trkpt lat="48.3553" lon="0.04111">
        <ele>173</ele>
        <time>2013-06-07T08:54:15Z</time>
      </trkpt>
      <trkpt lat="48.3554" lon="0.04112">
        <ele>173</ele>
        <time>2013-06-07T08:54:29Z</time>
      </trkpt>
      <trkpt lat="48.35549" lon="0.04118">
        <ele>173</ele>
        <time>2013-06-07T08:54:38Z</time>
      </trkpt>
      <trkpt lat="48.35552" lon="0.04131">
        <ele>173</ele>
        <time>2013-06-07T08:54:48Z</time>
      </trkpt>
      <trkpt lat="48.35552" lon="0.04146">
        <ele>173</ele>
        <time>2013-06-07T08:54:55Z</time>
      </trkpt>
      <trkpt lat="48.35552" lon="0.0416">
        <ele>173</ele>
        <time>2013-06-07T08:55:03Z</time>
      </trkpt>
      <trkpt lat="48.35553" lon="0.04175">
        <ele>173</ele>
        <time>2013-06-07T08:55:11Z</time>
      </trkpt>
      <trkpt lat="48.35556" lon="0.04191">
        <ele>173</ele>
        <time>2013-06-07T08:55:19Z</time>
      </trkpt>
      <trkpt lat="48.3556" lon="0.04203">
        <ele>173</ele>
        <time>2013-06-07T08:55:33Z</time>
      </trkpt>
      <trkpt lat="48.3557" lon="0.04207">
        <ele>173</ele>
        <time>2013-06-07T08:56:11Z</time>
      </trkpt>
      <trkpt lat="48.3558" lon="0.04214">
        <ele>173</ele>
        <time>2013-06-07T08:56:22Z</time>
      </trkpt>
      <trkpt lat="48.35587" lon="0.04224">
        <ele>173</ele>
        <time>2013-06-07T08:56:43Z</time>
      </trkpt>
      <trkpt lat="48.35594" lon="0.04234">
        <ele>173</ele>
        <time>2013-06-07T08:56:56Z</time>
      </trkpt>
      <trkpt lat="48.35597" lon="0.04248">
        <ele>173</ele>
        <time>2013-06-07T08:57:06Z</time>
      </trkpt>
      <trkpt lat="48.35599" lon="0.04263">
        <ele>173</ele>
        <time>2013-06-07T08:57:20Z</time>
      </trkpt>
      <trkpt lat="48.35598" lon="0.0428">
        <ele>173</ele>
        <time>2013-06-07T08:57:29Z</time>
      </trkpt>
      <trkpt lat="48.35598" lon="0.04294">
        <ele>165</ele>
        <time>2013-06-07T08:57:37Z</time>
      </trkpt>
      <trkpt lat="48.35603" lon="0.04307">
        <ele>165</ele>
        <time>2013-06-07T08:57:50Z</time>
      </trkpt>
      <trkpt lat="48.3561" lon="0.04317">
        <ele>165</ele>
        <time>2013-06-07T08:58:00Z</time>
      </trkpt>
      <trkpt lat="48.35615" lon="0.04329">
        <ele>165</ele>
        <time>2013-06-07T08:58:10Z</time>
      </trkpt>
      <trkpt lat="48.35619" lon="0.04343">
        <ele>165</ele>
        <time>2013-06-07T08:58:23Z</time>
      </trkpt>
      <trkpt lat="48.35626" lon="0.04352">
        <ele>157</ele>
        <time>2013-06-07T08:58:33Z</time>
      </trkpt>
      <trkpt lat="48.35637" lon="0.0436">
        <ele>164</ele>
        <time>2013-06-07T08:58:44Z</time>
      </trkpt>
      <trkpt lat="48.35644" lon="0.04369">
        <ele>164</ele>
        <time>2013-06-07T08:58:54Z</time>
      </trkpt>
      <trkpt lat="48.3565" lon="0.0438">
        <ele>158</ele>
        <time>2013-06-07T08:59:06Z</time>
      </trkpt>
      <trkpt lat="48.35647" lon="0.04394">
        <ele>153</ele>
        <time>2013-06-07T08:59:18Z</time>
      </trkpt>
      <trkpt lat="48.35654" lon="0.04406">
        <ele>166</ele>
        <time>2013-06-07T08:59:36Z</time>
      </trkpt>
      <trkpt lat="48.35661" lon="0.04416">
        <ele>166</ele>
        <time>2013-06-07T08:59:48Z</time>
      </trkpt>
      <trkpt lat="48.35656" lon="0.04431">
        <ele>166</ele>
        <time>2013-06-07T09:00:03Z</time>
      </trkpt>
      <trkpt lat="48.35662" lon="0.04442">
        <ele>172</ele>
        <time>2013-06-07T09:00:15Z</time>
      </trkpt>
      <trkpt lat="48.35662" lon="0.04457">
        <ele>172</ele>
        <time>2013-06-07T09:00:30Z</time>
      </trkpt>
      <trkpt lat="48.35665" lon="0.0447">
        <ele>172</ele>
        <time>2013-06-07T09:00:41Z</time>
      </trkpt>
      <trkpt lat="48.35671" lon="0.04483">
        <ele>172</ele>
        <time>2013-06-07T09:00:52Z</time>
      </trkpt>
      <trkpt lat="48.35678" lon="0.04493">
        <ele>172</ele>
        <time>2013-06-07T09:01:03Z</time>
      </trkpt>
      <trkpt lat="48.35685" lon="0.04502">
        <ele>172</ele>
        <time>2013-06-07T09:01:14Z</time>
      </trkpt>
      <trkpt lat="48.35689" lon="0.04517">
        <ele>166</ele>
        <time>2013-06-07T09:01:26Z</time>
      </trkpt>
      <trkpt lat="48.35693" lon="0.04531">
        <ele>166</ele>
        <time>2013-06-07T09:01:37Z</time>
      </trkpt>
      <trkpt lat="48.35699" lon="0.04543">
        <ele>166</ele>
        <time>2013-06-07T09:01:45Z</time>
      </trkpt>
      <trkpt lat="48.35703" lon="0.04555">
        <ele>172</ele>
        <time>2013-06-07T09:01:52Z</time>
      </trkpt>
      <trkpt lat="48.35707" lon="0.04569">
        <ele>172</ele>
        <time>2013-06-07T09:02:02Z</time>
      </trkpt>
      <trkpt lat="48.35711" lon="0.04581">
        <ele>172</ele>
        <time>2013-06-07T09:02:10Z</time>
      </trkpt>
      <trkpt lat="48.35716" lon="0.04594">
        <ele>172</ele>
        <time>2013-06-07T09:02:19Z</time>
      </trkpt>
      <trkpt lat="48.3572" lon="0.04607">
        <ele>172</ele>
        <time>2013-06-07T09:02:27Z</time>
      </trkpt>
      <trkpt lat="48.35724" lon="0.04619">
        <ele>172</ele>
        <time>2013-06-07T09:02:36Z</time>
      </trkpt>
      <trkpt lat="48.35731" lon="0.04628">
        <ele>172</ele>
        <time>2013-06-07T09:02:46Z</time>
      </trkpt>
      <trkpt lat="48.35741" lon="0.04627">
        <ele>172</ele>
        <time>2013-06-07T09:02:56Z</time>
      </trkpt>
      <trkpt lat="48.3575" lon="0.04621">
        <ele>172</ele>
        <time>2013-06-07T09:03:07Z</time>
      </trkpt>
      <trkpt lat="48.35759" lon="0.04615">
        <ele>172</ele>
        <time>2013-06-07T09:03:17Z</time>
      </trkpt>
      <trkpt lat="48.35768" lon="0.04609">
        <ele>172</ele>
        <time>2013-06-07T09:03:27Z</time>
      </trkpt>
      <trkpt lat="48.35777" lon="0.04603">
        <ele>172</ele>
        <time>2013-06-07T09:03:39Z</time>
      </trkpt>
      <trkpt lat="48.35786" lon="0.04597">
        <ele>166</ele>
        <time>2013-06-07T09:03:48Z</time>
      </trkpt>
      <trkpt lat="48.35795" lon="0.04587">
        <ele>166</ele>
        <time>2013-06-07T09:03:59Z</time>
      </trkpt>
      <trkpt lat="48.35801" lon="0.04576">
        <ele>166</ele>
        <time>2013-06-07T09:04:10Z</time>
      </trkpt>
      <trkpt lat="48.35805" lon="0.04563">
        <ele>157</ele>
        <time>2013-06-07T09:04:23Z</time>
      </trkpt>
      <trkpt lat="48.35814" lon="0.04557">
        <ele>157</ele>
        <time>2013-06-07T09:04:32Z</time>
      </trkpt>
      <trkpt lat="48.35823" lon="0.04551">
        <ele>157</ele>
        <time>2013-06-07T09:04:41Z</time>
      </trkpt>
      <trkpt lat="48.35831" lon="0.04542">
        <ele>157</ele>
        <time>2013-06-07T09:04:52Z</time>
      </trkpt>
      <trkpt lat="48.3584" lon="0.04534">
        <ele>157</ele>
        <time>2013-06-07T09:05:01Z</time>
      </trkpt>
      <trkpt lat="48.35849" lon="0.04531">
        <ele>157</ele>
        <time>2013-06-07T09:05:08Z</time>
      </trkpt>
      <trkpt lat="48.35858" lon="0.04526">
        <ele>157</ele>
        <time>2013-06-07T09:05:14Z</time>
      </trkpt>
      <trkpt lat="48.35867" lon="0.04517">
        <ele>157</ele>
        <time>2013-06-07T09:05:24Z</time>
      </trkpt>
      <trkpt lat="48.35873" lon="0.04506">
        <ele>157</ele>
        <time>2013-06-07T09:05:34Z</time>
      </trkpt>
      <trkpt lat="48.3588" lon="0.04496">
        <ele>157</ele>
        <time>2013-06-07T09:05:42Z</time>
      </trkpt>
      <trkpt lat="48.35889" lon="0.04488">
        <ele>157</ele>
        <time>2013-06-07T09:05:50Z</time>
      </trkpt>
      <trkpt lat="48.35895" lon="0.04477">
        <ele>157</ele>
        <time>2013-06-07T09:06:00Z</time>
      </trkpt>
      <trkpt lat="48.35901" lon="0.04466">
        <ele>157</ele>
        <time>2013-06-07T09:06:10Z</time>
      </trkpt>
      <trkpt lat="48.3591" lon="0.0446">
        <ele>157</ele>
        <time>2013-06-07T09:06:17Z</time>
      </trkpt>
      <trkpt lat="48.35917" lon="0.04452">
        <ele>151</ele>
        <time>2013-06-07T09:06:25Z</time>
      </trkpt>
      <trkpt lat="48.35926" lon="0.04443">
        <ele>151</ele>
        <time>2013-06-07T09:06:31Z</time>
      </trkpt>
      <trkpt lat="48.35935" lon="0.04434">
        <ele>151</ele>
        <time>2013-06-07T09:06:37Z</time>
      </trkpt>
      <trkpt lat="48.35944" lon="0.04425">
        <ele>161</ele>
        <time>2013-06-07T09:06:42Z</time>
      </trkpt>
      <trkpt lat="48.35952" lon="0.04416">
        <ele>161</ele>
        <time>2013-06-07T09:06:50Z</time>
      </trkpt>
      <trkpt lat="48.35953" lon="0.04401">
        <ele>161</ele>
        <time>2013-06-07T09:06:59Z</time>
      </trkpt>
      <trkpt lat="48.35953" lon="0.04387">
        <ele>161</ele>
        <time>2013-06-07T09:07:08Z</time>
      </trkpt>
      <trkpt lat="48.35951" lon="0.04373">
        <ele>154</ele>
        <time>2013-06-07T09:07:18Z</time>
      </trkpt>
      <trkpt lat="48.35951" lon="0.04359">
        <ele>154</ele>
        <time>2013-06-07T09:07:26Z</time>
      </trkpt>
      <trkpt lat="48.3595" lon="0.04343">
        <ele>154</ele>
        <time>2013-06-07T09:07:35Z</time>
      </trkpt>
      <trkpt lat="48.35951" lon="0.04328">
        <ele>154</ele>
        <time>2013-06-07T09:07:45Z</time>
      </trkpt>
      <trkpt lat="48.35951" lon="0.04313">
        <ele>162</ele>
        <time>2013-06-07T09:07:52Z</time>
      </trkpt>
      <trkpt lat="48.35951" lon="0.04298">
        <ele>162</ele>
        <time>2013-06-07T09:08:03Z</time>
      </trkpt>
      <trkpt lat="48.35951" lon="0.04283">
        <ele>167</ele>
        <time>2013-06-07T09:08:10Z</time>
      </trkpt>
      <trkpt lat="48.35952" lon="0.04269">
        <ele>167</ele>
        <time>2013-06-07T09:08:18Z</time>
      </trkpt>
      <trkpt lat="48.35953" lon="0.04254">
        <ele>167</ele>
        <time>2013-06-07T09:08:25Z</time>
      </trkpt>
      <trkpt lat="48.35954" lon="0.0424">
        <ele>167</ele>
        <time>2013-06-07T09:08:35Z</time>
      </trkpt>
      <trkpt lat="48.35956" lon="0.04225">
        <ele>167</ele>
        <time>2013-06-07T09:08:44Z</time>
      </trkpt>
      <trkpt lat="48.35958" lon="0.0421">
        <ele>167</ele>
        <time>2013-06-07T09:08:53Z</time>
      </trkpt>
      <trkpt lat="48.35959" lon="0.04193">
        <ele>167</ele>
        <time>2013-06-07T09:09:02Z</time>
      </trkpt>
      <trkpt lat="48.35962" lon="0.04178">
        <ele>167</ele>
        <time>2013-06-07T09:09:10Z</time>
      </trkpt>
      <trkpt lat="48.35965" lon="0.04165">
        <ele>172</ele>
        <time>2013-06-07T09:09:17Z</time>
      </trkpt>
      <trkpt lat="48.3597" lon="0.04151">
        <ele>172</ele>
        <time>2013-06-07T09:09:26Z</time>
      </trkpt>
      <trkpt lat="48.35972" lon="0.04138">
        <ele>172</ele>
        <time>2013-06-07T09:09:33Z</time>
      </trkpt>
      <trkpt lat="48.35974" lon="0.04123">
        <ele>172</ele>
        <time>2013-06-07T09:09:41Z</time>
      </trkpt>
      <trkpt lat="48.35977" lon="0.0411">
        <ele>172</ele>
        <time>2013-06-07T09:09:49Z</time>
      </trkpt>
      <trkpt lat="48.3598" lon="0.04095">
        <ele>172</ele>
        <time>2013-06-07T09:09:57Z</time>
      </trkpt>
      <trkpt lat="48.35984" lon="0.04082">
        <ele>172</ele>
        <time>2013-06-07T09:10:05Z</time>
      </trkpt>
      <trkpt lat="48.3599" lon="0.04069">
        <ele>172</ele>
        <time>2013-06-07T09:10:13Z</time>
      </trkpt>
      <trkpt lat="48.35989" lon="0.04054">
        <ele>172</ele>
        <time>2013-06-07T09:10:22Z</time>
      </trkpt>
      <trkpt lat="48.35998" lon="0.04044">
        <ele>172</ele>
        <time>2013-06-07T09:10:31Z</time>
      </trkpt>
      <trkpt lat="48.36007" lon="0.04041">
        <ele>172</ele>
        <time>2013-06-07T09:10:37Z</time>
      </trkpt>
      <trkpt lat="48.36017" lon="0.04037">
        <ele>172</ele>
        <time>2013-06-07T09:10:46Z</time>
      </trkpt>
      <trkpt lat="48.36027" lon="0.04035">
        <ele>172</ele>
        <time>2013-06-07T09:11:01Z</time>
      </trkpt>
      <trkpt lat="48.36036" lon="0.04032">
        <ele>172</ele>
        <time>2013-06-07T09:11:16Z</time>
      </trkpt>
      <trkpt lat="48.36046" lon="0.04033">
        <ele>184</ele>
        <time>2013-06-07T09:13:12Z</time>
      </trkpt>
      <trkpt lat="48.36056" lon="0.04028">
        <ele>184</ele>
        <time>2013-06-07T09:13:23Z</time>
      </trkpt>
      <trkpt lat="48.36065" lon="0.04028">
        <ele>177</ele>
        <time>2013-06-07T09:14:01Z</time>
      </trkpt>
      <trkpt lat="48.36075" lon="0.04027">
        <ele>177</ele>
        <time>2013-06-07T09:14:10Z</time>
      </trkpt>
      <trkpt lat="48.36084" lon="0.04025">
        <ele>177</ele>
        <time>2013-06-07T09:14:21Z</time>
      </trkpt>
      <trkpt lat="48.36094" lon="0.04024">
        <ele>177</ele>
        <time>2013-06-07T09:14:32Z</time>
      </trkpt>
      <trkpt lat="48.36104" lon="0.0402">
        <ele>177</ele>
        <time>2013-06-07T09:14:38Z</time>
      </trkpt>
      <trkpt lat="48.36114" lon="0.04017">
        <ele>177</ele>
        <time>2013-06-07T09:14:46Z</time>
      </trkpt>
      <trkpt lat="48.36124" lon="0.04016">
        <ele>177</ele>
        <time>2013-06-07T09:14:53Z</time>
      </trkpt>
      <trkpt lat="48.36132" lon="0.04009">
        <ele>177</ele>
        <time>2013-06-07T09:15:04Z</time>
      </trkpt>
      <trkpt lat="48.36142" lon="0.04007">
        <ele>177</ele>
        <time>2013-06-07T09:15:09Z</time>
      </trkpt>
      <trkpt lat="48.36152" lon="0.04006">
        <ele>183</ele>
        <time>2013-06-07T09:15:15Z</time>
      </trkpt>
      <trkpt lat="48.36162" lon="0.04003">
        <ele>183</ele>
        <time>2013-06-07T09:15:26Z</time>
      </trkpt>
      <trkpt lat="48.36172" lon="0.04007">
        <ele>178</ele>
        <time>2013-06-07T09:15:38Z</time>
      </trkpt>
      <trkpt lat="48.36184" lon="0.04007">
        <ele>178</ele>
        <time>2013-06-07T09:15:46Z</time>
      </trkpt>
      <trkpt lat="48.36193" lon="0.04013">
        <ele>178</ele>
        <time>2013-06-07T09:15:58Z</time>
      </trkpt>
      <trkpt lat="48.36203" lon="0.04016">
        <ele>178</ele>
        <time>2013-06-07T09:16:06Z</time>
      </trkpt>
      <trkpt lat="48.36213" lon="0.04018">
        <ele>178</ele>
        <time>2013-06-07T09:16:15Z</time>
      </trkpt>
      <trkpt lat="48.36224" lon="0.04019">
        <ele>178</ele>
        <time>2013-06-07T09:16:18Z</time>
      </trkpt>
      <trkpt lat="48.36233" lon="0.04024">
        <ele>178</ele>
        <time>2013-06-07T09:16:27Z</time>
      </trkpt>
      <trkpt lat="48.36242" lon="0.04027">
        <ele>178</ele>
        <time>2013-06-07T09:16:34Z</time>
      </trkpt>
      <trkpt lat="48.36251" lon="0.04031">
        <ele>178</ele>
        <time>2013-06-07T09:16:42Z</time>
      </trkpt>
      <trkpt lat="48.3626" lon="0.04034">
        <ele>178</ele>
        <time>2013-06-07T09:16:51Z</time>
      </trkpt>
      <trkpt lat="48.3627" lon="0.04038">
        <ele>178</ele>
        <time>2013-06-07T09:17:00Z</time>
      </trkpt>
      <trkpt lat="48.3628" lon="0.0404">
        <ele>178</ele>
        <time>2013-06-07T09:17:08Z</time>
      </trkpt>
      <trkpt lat="48.36289" lon="0.04043">
        <ele>178</ele>
        <time>2013-06-07T09:17:17Z</time>
      </trkpt>
      <trkpt lat="48.36298" lon="0.04046">
        <ele>178</ele>
        <time>2013-06-07T09:17:26Z</time>
      </trkpt>
      <trkpt lat="48.36308" lon="0.0405">
        <ele>178</ele>
        <time>2013-06-07T09:17:34Z</time>
      </trkpt>
      <trkpt lat="48.36317" lon="0.04052">
        <ele>178</ele>
        <time>2013-06-07T09:17:42Z</time>
      </trkpt>
      <trkpt lat="48.36327" lon="0.04056">
        <ele>178</ele>
        <time>2013-06-07T09:17:51Z</time>
      </trkpt>
      <trkpt lat="48.36337" lon="0.04058">
        <ele>178</ele>
        <time>2013-06-07T09:17:59Z</time>
      </trkpt>
      <trkpt lat="48.36347" lon="0.04059">
        <ele>178</ele>
        <time>2013-06-07T09:18:06Z</time>
      </trkpt>
      <trkpt lat="48.36357" lon="0.04058">
        <ele>178</ele>
        <time>2013-06-07T09:18:13Z</time>
      </trkpt>
      <trkpt lat="48.36367" lon="0.04057">
        <ele>178</ele>
        <time>2013-06-07T09:18:21Z</time>
      </trkpt>
      <trkpt lat="48.36377" lon="0.04054">
        <ele>178</ele>
        <time>2013-06-07T09:18:30Z</time>
      </trkpt>
      <trkpt lat="48.36387" lon="0.04053">
        <ele>178</ele>
        <time>2013-06-07T09:18:37Z</time>
      </trkpt>
      <trkpt lat="48.36398" lon="0.04051">
        <ele>178</ele>
        <time>2013-06-07T09:18:44Z</time>
      </trkpt>
      <trkpt lat="48.36406" lon="0.04047">
        <ele>178</ele>
        <time>2013-06-07T09:18:52Z</time>
      </trkpt>
      <trkpt lat="48.36417" lon="0.04046">
        <ele>178</ele>
        <time>2013-06-07T09:19:02Z</time>
      </trkpt>
      <trkpt lat="48.36427" lon="0.04043">
        <ele>178</ele>
        <time>2013-06-07T09:19:07Z</time>
      </trkpt>
      <trkpt lat="48.36436" lon="0.04041">
        <ele>178</ele>
        <time>2013-06-07T09:19:17Z</time>
      </trkpt>
      <trkpt lat="48.36446" lon="0.04039">
        <ele>178</ele>
        <time>2013-06-07T09:19:25Z</time>
      </trkpt>
      <trkpt lat="48.36456" lon="0.04036">
        <ele>178</ele>
        <time>2013-06-07T09:19:33Z</time>
      </trkpt>
      <trkpt lat="48.36466" lon="0.04034">
        <ele>178</ele>
        <time>2013-06-07T09:19:42Z</time>
      </trkpt>
      <trkpt lat="48.36475" lon="0.04032">
        <ele>178</ele>
        <time>2013-06-07T09:19:51Z</time>
      </trkpt>
      <trkpt lat="48.36486" lon="0.04029">
        <ele>178</ele>
        <time>2013-06-07T09:20:00Z</time>
      </trkpt>
      <trkpt lat="48.36497" lon="0.04026">
        <ele>178</ele>
        <time>2013-06-07T09:20:08Z</time>
      </trkpt>
      <trkpt lat="48.36506" lon="0.04024">
        <ele>178</ele>
        <time>2013-06-07T09:20:17Z</time>
      </trkpt>
      <trkpt lat="48.36517" lon="0.04022">
        <ele>178</ele>
        <time>2013-06-07T09:20:25Z</time>
      </trkpt>
      <trkpt lat="48.36526" lon="0.04019">
        <ele>178</ele>
        <time>2013-06-07T09:20:32Z</time>
      </trkpt>
      <trkpt lat="48.36536" lon="0.04018">
        <ele>178</ele>
        <time>2013-06-07T09:20:40Z</time>
      </trkpt>
      <trkpt lat="48.36545" lon="0.04016">
        <ele>178</ele>
        <time>2013-06-07T09:20:48Z</time>
      </trkpt>
      <trkpt lat="48.36556" lon="0.04013">
        <ele>178</ele>
        <time>2013-06-07T09:20:57Z</time>
      </trkpt>
      <trkpt lat="48.36565" lon="0.04011">
        <ele>178</ele>
        <time>2013-06-07T09:21:04Z</time>
      </trkpt>
      <trkpt lat="48.36575" lon="0.04009">
        <ele>185</ele>
        <time>2013-06-07T09:21:10Z</time>
      </trkpt>
      <trkpt lat="48.36587" lon="0.04007">
        <ele>185</ele>
        <time>2013-06-07T09:21:18Z</time>
      </trkpt>
      <trkpt lat="48.36596" lon="0.04006">
        <ele>185</ele>
        <time>2013-06-07T09:21:25Z</time>
      </trkpt>
      <trkpt lat="48.36606" lon="0.04004">
        <ele>185</ele>
        <time>2013-06-07T09:21:31Z</time>
      </trkpt>
      <trkpt lat="48.36615" lon="0.04001">
        <ele>185</ele>
        <time>2013-06-07T09:21:39Z</time>
      </trkpt>
      <trkpt lat="48.36625" lon="0.04">
        <ele>185</ele>
        <time>2013-06-07T09:21:47Z</time>
      </trkpt>
      <trkpt lat="48.36635" lon="0.03998">
        <ele>185</ele>
        <time>2013-06-07T09:21:55Z</time>
      </trkpt>
      <trkpt lat="48.36644" lon="0.04007">
        <ele>195</ele>
        <time>2013-06-07T09:22:05Z</time>
      </trkpt>
      <trkpt lat="48.36644" lon="0.04022">
        <ele>195</ele>
        <time>2013-06-07T09:22:14Z</time>
      </trkpt>
      <trkpt lat="48.36643" lon="0.04036">
        <ele>195</ele>
        <time>2013-06-07T09:22:22Z</time>
      </trkpt>
      <trkpt lat="48.36642" lon="0.04051">
        <ele>195</ele>
        <time>2013-06-07T09:22:30Z</time>
      </trkpt>
      <trkpt lat="48.36644" lon="0.04065">
        <ele>195</ele>
        <time>2013-06-07T09:22:37Z</time>
      </trkpt>
      <trkpt lat="48.36644" lon="0.0408">
        <ele>195</ele>
        <time>2013-06-07T09:22:49Z</time>
      </trkpt>
      <trkpt lat="48.36641" lon="0.04095">
        <ele>195</ele>
        <time>2013-06-07T09:22:57Z</time>
      </trkpt>
      <trkpt lat="48.36644" lon="0.0411">
        <ele>179</ele>
        <time>2013-06-07T09:23:10Z</time>
      </trkpt>
      <trkpt lat="48.36643" lon="0.04125">
        <ele>179</ele>
        <time>2013-06-07T09:23:17Z</time>
      </trkpt>
      <trkpt lat="48.36641" lon="0.04139">
        <ele>188</ele>
        <time>2013-06-07T09:23:23Z</time>
      </trkpt>
      <trkpt lat="48.3664" lon="0.04155">
        <ele>188</ele>
        <time>2013-06-07T09:23:32Z</time>
      </trkpt>
      <trkpt lat="48.36639" lon="0.04169">
        <ele>196</ele>
        <time>2013-06-07T09:23:38Z</time>
      </trkpt>
      <trkpt lat="48.36641" lon="0.04185">
        <ele>196</ele>
        <time>2013-06-07T09:23:48Z</time>
      </trkpt>
      <trkpt lat="48.36643" lon="0.042">
        <ele>196</ele>
        <time>2013-06-07T09:23:56Z</time>
      </trkpt>
      <trkpt lat="48.36648" lon="0.04211">
        <ele>196</ele>
        <time>2013-06-07T09:24:07Z</time>
      </trkpt>
      <trkpt lat="48.36656" lon="0.04222">
        <ele>196</ele>
        <time>2013-06-07T09:24:16Z</time>
      </trkpt>
      <trkpt lat="48.36661" lon="0.04236">
        <ele>196</ele>
        <time>2013-06-07T09:24:26Z</time>
      </trkpt>
      <trkpt lat="48.36663" lon="0.0425">
        <ele>196</ele>
        <time>2013-06-07T09:24:35Z</time>
      </trkpt>
      <trkpt lat="48.3667" lon="0.04259">
        <ele>196</ele>
        <time>2013-06-07T09:24:41Z</time>
      </trkpt>
      <trkpt lat="48.36675" lon="0.04272">
        <ele>196</ele>
        <time>2013-06-07T09:24:47Z</time>
      </trkpt>
      <trkpt lat="48.36673" lon="0.04286">
        <ele>196</ele>
        <time>2013-06-07T09:24:55Z</time>
      </trkpt>
      <trkpt lat="48.36678" lon="0.04299">
        <ele>202</ele>
        <time>2013-06-07T09:25:04Z</time>
      </trkpt>
      <trkpt lat="48.36684" lon="0.04311">
        <ele>202</ele>
        <time>2013-06-07T09:25:14Z</time>
      </trkpt>
      <trkpt lat="48.36687" lon="0.04325">
        <ele>194</ele>
        <time>2013-06-07T09:25:24Z</time>
      </trkpt>
      <trkpt lat="48.36692" lon="0.04336">
        <ele>194</ele>
        <time>2013-06-07T09:25:31Z</time>
      </trkpt>
      <trkpt lat="48.36698" lon="0.04347">
        <ele>194</ele>
        <time>2013-06-07T09:25:40Z</time>
      </trkpt>
      <trkpt lat="48.367" lon="0.04361">
        <ele>194</ele>
        <time>2013-06-07T09:25:47Z</time>
      </trkpt>
      <trkpt lat="48.36703" lon="0.04375">
        <ele>194</ele>
        <time>2013-06-07T09:25:56Z</time>
      </trkpt>
      <trkpt lat="48.36709" lon="0.04389">
        <ele>194</ele>
        <time>2013-06-07T09:26:08Z</time>
      </trkpt>
      <trkpt lat="48.36712" lon="0.04404">
        <ele>194</ele>
        <time>2013-06-07T09:26:17Z</time>
      </trkpt>
      <trkpt lat="48.36716" lon="0.04416">
        <ele>194</ele>
        <time>2013-06-07T09:26:24Z</time>
      </trkpt>
      <trkpt lat="48.36724" lon="0.04422">
        <ele>194</ele>
        <time>2013-06-07T09:26:31Z</time>
      </trkpt>
      <trkpt lat="48.36732" lon="0.04431">
        <ele>194</ele>
        <time>2013-06-07T09:26:39Z</time>
      </trkpt>
      <trkpt lat="48.36739" lon="0.04441">
        <ele>194</ele>
        <time>2013-06-07T09:26:48Z</time>
      </trkpt>
      <trkpt lat="48.36745" lon="0.04452">
        <ele>194</ele>
        <time>2013-06-07T09:26:54Z</time>
      </trkpt>
      <trkpt lat="48.36751" lon="0.04466">
        <ele>194</ele>
        <time>2013-06-07T09:27:03Z</time>
      </trkpt>
      <trkpt lat="48.36755" lon="0.04479">
        <ele>194</ele>
        <time>2013-06-07T09:27:12Z</time>
      </trkpt>
      <trkpt lat="48.36757" lon="0.04493">
        <ele>194</ele>
        <time>2013-06-07T09:27:21Z</time>
      </trkpt>
      <trkpt lat="48.3676" lon="0.04509">
        <ele>194</ele>
        <time>2013-06-07T09:27:29Z</time>
      </trkpt>
      <trkpt lat="48.36763" lon="0.04522">
        <ele>194</ele>
        <time>2013-06-07T09:27:39Z</time>
      </trkpt>
      <trkpt lat="48.3677" lon="0.04535">
        <ele>194</ele>
        <time>2013-06-07T09:27:50Z</time>
      </trkpt>
      <trkpt lat="48.36776" lon="0.04546">
        <ele>194</ele>
        <time>2013-06-07T09:27:57Z</time>
      </trkpt>
      <trkpt lat="48.3678" lon="0.04559">
        <ele>194</ele>
        <time>2013-06-07T09:28:08Z</time>
      </trkpt>
      <trkpt lat="48.36786" lon="0.0457">
        <ele>194</ele>
        <time>2013-06-07T09:28:18Z</time>
      </trkpt>
      <trkpt lat="48.36795" lon="0.04577">
        <ele>194</ele>
        <time>2013-06-07T09:28:25Z</time>
      </trkpt>
      <trkpt lat="48.368" lon="0.0459">
        <ele>194</ele>
        <time>2013-06-07T09:28:34Z</time>
      </trkpt>
      <trkpt lat="48.368" lon="0.04605">
        <ele>194</ele>
        <time>2013-06-07T09:28:43Z</time>
      </trkpt>
      <trkpt lat="48.36806" lon="0.04616">
        <ele>194</ele>
        <time>2013-06-07T09:28:50Z</time>
      </trkpt>
      <trkpt lat="48.3681" lon="0.04631">
        <ele>188</ele>
        <time>2013-06-07T09:29:00Z</time>
      </trkpt>
      <trkpt lat="48.36819" lon="0.04639">
        <ele>188</ele>
        <time>2013-06-07T09:29:13Z</time>
      </trkpt>
      <trkpt lat="48.3683" lon="0.04639">
        <ele>188</ele>
        <time>2013-06-07T09:29:22Z</time>
      </trkpt>
      <trkpt lat="48.36839" lon="0.04643">
        <ele>188</ele>
        <time>2013-06-07T09:29:30Z</time>
      </trkpt>
      <trkpt lat="48.36845" lon="0.04652">
        <ele>188</ele>
        <time>2013-06-07T09:29:40Z</time>
      </trkpt>
      <trkpt lat="48.36853" lon="0.04661">
        <ele>188</ele>
        <time>2013-06-07T09:29:49Z</time>
      </trkpt>
      <trkpt lat="48.36861" lon="0.04669">
        <ele>188</ele>
        <time>2013-06-07T09:29:57Z</time>
      </trkpt>
      <trkpt lat="48.3687" lon="0.04676">
        <ele>181</ele>
        <time>2013-06-07T09:30:12Z</time>
      </trkpt>
      <trkpt lat="48.36879" lon="0.04686">
        <ele>181</ele>
        <time>2013-06-07T09:30:21Z</time>
      </trkpt>
      <trkpt lat="48.36887" lon="0.04693">
        <ele>186</ele>
        <time>2013-06-07T09:30:27Z</time>
      </trkpt>
      <trkpt lat="48.36893" lon="0.04705">
        <ele>186</ele>
        <time>2013-06-07T09:30:35Z</time>
      </trkpt>
      <trkpt lat="48.369" lon="0.04715">
        <ele>186</ele>
        <time>2013-06-07T09:30:42Z</time>
      </trkpt>
      <trkpt lat="48.36907" lon="0.04725">
        <ele>186</ele>
        <time>2013-06-07T09:30:53Z</time>
      </trkpt>
      <trkpt lat="48.36916" lon="0.04731">
        <ele>180</ele>
        <time>2013-06-07T09:31:01Z</time>
      </trkpt>
      <trkpt lat="48.36923" lon="0.0474">
        <ele>180</ele>
        <time>2013-06-07T09:31:11Z</time>
      </trkpt>
      <trkpt lat="48.36929" lon="0.04752">
        <ele>180</ele>
        <time>2013-06-07T09:31:19Z</time>
      </trkpt>
      <trkpt lat="48.36936" lon="0.04764">
        <ele>180</ele>
        <time>2013-06-07T09:31:29Z</time>
      </trkpt>
      <trkpt lat="48.36938" lon="0.04777">
        <ele>172</ele>
        <time>2013-06-07T09:31:36Z</time>
      </trkpt>
      <trkpt lat="48.36945" lon="0.04786">
        <ele>172</ele>
        <time>2013-06-07T09:31:43Z</time>
      </trkpt>
      <trkpt lat="48.36952" lon="0.04797">
        <ele>172</ele>
        <time>2013-06-07T09:31:50Z</time>
      </trkpt>
      <trkpt lat="48.36956" lon="0.04811">
        <ele>167</ele>
        <time>2013-06-07T09:32:03Z</time>
      </trkpt>
      <trkpt lat="48.36963" lon="0.0482">
        <ele>167</ele>
        <time>2013-06-07T09:32:18Z</time>
      </trkpt>
      <trkpt lat="48.36972" lon="0.04826">
        <ele>167</ele>
        <time>2013-06-07T09:32:25Z</time>
      </trkpt>
      <trkpt lat="48.3698" lon="0.04835">
        <ele>167</ele>
        <time>2013-06-07T09:32:33Z</time>
      </trkpt>
      <trkpt lat="48.36988" lon="0.04842">
        <ele>167</ele>
        <time>2013-06-07T09:32:41Z</time>
      </trkpt>
      <trkpt lat="48.36997" lon="0.04847">
        <ele>167</ele>
        <time>2013-06-07T09:32:51Z</time>
      </trkpt>
      <trkpt lat="48.37006" lon="0.04856">
        <ele>167</ele>
        <time>2013-06-07T09:33:00Z</time>
      </trkpt>
      <trkpt lat="48.37011" lon="0.04868">
        <ele>174</ele>
        <time>2013-06-07T09:33:08Z</time>
      </trkpt>
      <trkpt lat="48.37019" lon="0.04874">
        <ele>174</ele>
        <time>2013-06-07T09:33:18Z</time>
      </trkpt>
      <trkpt lat="48.37028" lon="0.04881">
        <ele>174</ele>
        <time>2013-06-07T09:33:30Z</time>
      </trkpt>
      <trkpt lat="48.37036" lon="0.0489">
        <ele>174</ele>
        <time>2013-06-07T09:33:42Z</time>
      </trkpt>
      <trkpt lat="48.37043" lon="0.04899">
        <ele>174</ele>
        <time>2013-06-07T09:33:56Z</time>
      </trkpt>
      <trkpt lat="48.37052" lon="0.04903">
        <ele>174</ele>
        <time>2013-06-07T09:38:33Z</time>
      </trkpt>
      <trkpt lat="48.3706" lon="0.04913">
        <ele>174</ele>
        <time>2013-06-07T09:38:43Z</time>
      </trkpt>
      <trkpt lat="48.37063" lon="0.04927">
        <ele>174</ele>
        <time>2013-06-07T09:38:52Z</time>
      </trkpt>
      <trkpt lat="48.37063" lon="0.04943">
        <ele>174</ele>
        <time>2013-06-07T09:39:01Z</time>
      </trkpt>
      <trkpt lat="48.37065" lon="0.04958">
        <ele>174</ele>
        <time>2013-06-07T09:39:10Z</time>
      </trkpt>
      <trkpt lat="48.37065" lon="0.04972">
        <ele>174</ele>
        <time>2013-06-07T09:39:19Z</time>
      </trkpt>
      <trkpt lat="48.37064" lon="0.04988">
        <ele>174</ele>
        <time>2013-06-07T09:39:29Z</time>
      </trkpt>
      <trkpt lat="48.37065" lon="0.05003">
        <ele>174</ele>
        <time>2013-06-07T09:39:38Z</time>
      </trkpt>
      <trkpt lat="48.37067" lon="0.05017">
        <ele>168</ele>
        <time>2013-06-07T09:39:48Z</time>
      </trkpt>
      <trkpt lat="48.37069" lon="0.05032">
        <ele>168</ele>
        <time>2013-06-07T09:40:00Z</time>
      </trkpt>
      <trkpt lat="48.37069" lon="0.05047">
        <ele>174</ele>
        <time>2013-06-07T09:40:08Z</time>
      </trkpt>
      <trkpt lat="48.37068" lon="0.05061">
        <ele>174</ele>
        <time>2013-06-07T09:40:17Z</time>
      </trkpt>
      <trkpt lat="48.37066" lon="0.05076">
        <ele>174</ele>
        <time>2013-06-07T09:40:25Z</time>
      </trkpt>
      <trkpt lat="48.37066" lon="0.05092">
        <ele>174</ele>
        <time>2013-06-07T09:40:36Z</time>
      </trkpt>
      <trkpt lat="48.37063" lon="0.05107">
        <ele>180</ele>
        <time>2013-06-07T09:41:01Z</time>
      </trkpt>
      <trkpt lat="48.37057" lon="0.05119">
        <ele>175</ele>
        <time>2013-06-07T09:41:12Z</time>
      </trkpt>
      <trkpt lat="48.37051" lon="0.05129">
        <ele>175</ele>
        <time>2013-06-07T09:41:20Z</time>
      </trkpt>
      <trkpt lat="48.37045" lon="0.05141">
        <ele>175</ele>
        <time>2013-06-07T09:41:30Z</time>
      </trkpt>
      <trkpt lat="48.3704" lon="0.05153">
        <ele>175</ele>
        <time>2013-06-07T09:41:38Z</time>
      </trkpt>
      <trkpt lat="48.37036" lon="0.05166">
        <ele>175</ele>
        <time>2013-06-07T09:41:46Z</time>
      </trkpt>
      <trkpt lat="48.37031" lon="0.05179">
        <ele>175</ele>
        <time>2013-06-07T09:41:56Z</time>
      </trkpt>
      <trkpt lat="48.37027" lon="0.05191">
        <ele>170</ele>
        <time>2013-06-07T09:42:07Z</time>
      </trkpt>
      <trkpt lat="48.37028" lon="0.05206">
        <ele>170</ele>
        <time>2013-06-07T09:42:17Z</time>
      </trkpt>
      <trkpt lat="48.37027" lon="0.0522">
        <ele>170</ele>
        <time>2013-06-07T09:42:26Z</time>
      </trkpt>
      <trkpt lat="48.37019" lon="0.05229">
        <ele>170</ele>
        <time>2013-06-07T09:42:35Z</time>
      </trkpt>
      <trkpt lat="48.37012" lon="0.05238">
        <ele>170</ele>
        <time>2013-06-07T09:42:43Z</time>
      </trkpt>
      <trkpt lat="48.37003" lon="0.05247">
        <ele>170</ele>
        <time>2013-06-07T09:42:52Z</time>
      </trkpt>
      <trkpt lat="48.36993" lon="0.05252">
        <ele>170</ele>
        <time>2013-06-07T09:43:01Z</time>
      </trkpt>
      <trkpt lat="48.36985" lon="0.05259">
        <ele>170</ele>
        <time>2013-06-07T09:43:11Z</time>
      </trkpt>
      <trkpt lat="48.36976" lon="0.05266">
        <ele>163</ele>
        <time>2013-06-07T09:43:19Z</time>
      </trkpt>
      <trkpt lat="48.36967" lon="0.0527">
        <ele>163</ele>
        <time>2013-06-07T09:43:28Z</time>
      </trkpt>
      <trkpt lat="48.36959" lon="0.05279">
        <ele>163</ele>
        <time>2013-06-07T09:43:35Z</time>
      </trkpt>
      <trkpt lat="48.36951" lon="0.05287">
        <ele>163</ele>
        <time>2013-06-07T09:43:42Z</time>
      </trkpt>
      <trkpt lat="48.36943" lon="0.05296">
        <ele>163</ele>
        <time>2013-06-07T09:43:50Z</time>
      </trkpt>
      <trkpt lat="48.36937" lon="0.05307">
        <ele>163</ele>
        <time>2013-06-07T09:43:59Z</time>
      </trkpt>
      <trkpt lat="48.3694" lon="0.05322">
        <ele>163</ele>
        <time>2013-06-07T09:44:09Z</time>
      </trkpt>
      <trkpt lat="48.36945" lon="0.05335">
        <ele>163</ele>
        <time>2013-06-07T09:44:19Z</time>
      </trkpt>
      <trkpt lat="48.36947" lon="0.05349">
        <ele>169</ele>
        <time>2013-06-07T09:44:28Z</time>
      </trkpt>
      <trkpt lat="48.36948" lon="0.05364">
        <ele>169</ele>
        <time>2013-06-07T09:44:37Z</time>
      </trkpt>
      <trkpt lat="48.36946" lon="0.05379">
        <ele>169</ele>
        <time>2013-06-07T09:44:46Z</time>
      </trkpt>
      <trkpt lat="48.36949" lon="0.05393">
        <ele>169</ele>
        <time>2013-06-07T09:44:58Z</time>
      </trkpt>
      <trkpt lat="48.36952" lon="0.05407">
        <ele>169</ele>
        <time>2013-06-07T09:45:09Z</time>
      </trkpt>
      <trkpt lat="48.36955" lon="0.05421">
        <ele>169</ele>
        <time>2013-06-07T09:45:20Z</time>
      </trkpt>
      <trkpt lat="48.36953" lon="0.05437">
        <ele>169</ele>
        <time>2013-06-07T09:45:29Z</time>
      </trkpt>
      <trkpt lat="48.36949" lon="0.0545">
        <ele>175</ele>
        <time>2013-06-07T09:45:42Z</time>
      </trkpt>
      <trkpt lat="48.36943" lon="0.05462">
        <ele>175</ele>
        <time>2013-06-07T09:45:53Z</time>
      </trkpt>
      <trkpt lat="48.36937" lon="0.05473">
        <ele>175</ele>
        <time>2013-06-07T09:46:02Z</time>
      </trkpt>
      <trkpt lat="48.36932" lon="0.05486">
        <ele>175</ele>
        <time>2013-06-07T09:46:13Z</time>
      </trkpt>
      <trkpt lat="48.36927" lon="0.05499">
        <ele>175</ele>
        <time>2013-06-07T09:46:22Z</time>
      </trkpt>
      <trkpt lat="48.36921" lon="0.05509">
        <ele>181</ele>
        <time>2013-06-07T09:46:31Z</time>
      </trkpt>
      <trkpt lat="48.36915" lon="0.05522">
        <ele>181</ele>
        <time>2013-06-07T09:46:39Z</time>
      </trkpt>
      <trkpt lat="48.36911" lon="0.05535">
        <ele>181</ele>
        <time>2013-06-07T09:46:50Z</time>
      </trkpt>
      <trkpt lat="48.36905" lon="0.05545">
        <ele>181</ele>
        <time>2013-06-07T09:46:59Z</time>
      </trkpt>
      <trkpt lat="48.369" lon="0.05559">
        <ele>181</ele>
        <time>2013-06-07T09:47:07Z</time>
      </trkpt>
      <trkpt lat="48.36894" lon="0.05571">
        <ele>181</ele>
        <time>2013-06-07T09:47:17Z</time>
      </trkpt>
      <trkpt lat="48.36889" lon="0.05584">
        <ele>181</ele>
        <time>2013-06-07T09:47:26Z</time>
      </trkpt>
      <trkpt lat="48.36883" lon="0.05596">
        <ele>181</ele>
        <time>2013-06-07T09:47:34Z</time>
      </trkpt>
      <trkpt lat="48.36878" lon="0.05608">
        <ele>181</ele>
        <time>2013-06-07T09:47:45Z</time>
      </trkpt>
      <trkpt lat="48.36872" lon="0.05622">
        <ele>181</ele>
        <time>2013-06-07T09:47:54Z</time>
      </trkpt>
      <trkpt lat="48.36867" lon="0.05634">
        <ele>181</ele>
        <time>2013-06-07T09:48:03Z</time>
      </trkpt>
      <trkpt lat="48.36862" lon="0.05646">
        <ele>181</ele>
        <time>2013-06-07T09:48:14Z</time>
      </trkpt>
      <trkpt lat="48.3686" lon="0.05659">
        <ele>181</ele>
        <time>2013-06-07T09:48:34Z</time>
      </trkpt>
      <trkpt lat="48.36861" lon="0.05676">
        <ele>181</ele>
        <time>2013-06-07T09:48:45Z</time>
      </trkpt>
      <trkpt lat="48.36861" lon="0.0569">
        <ele>181</ele>
        <time>2013-06-07T09:48:54Z</time>
      </trkpt>
      <trkpt lat="48.36866" lon="0.05703">
        <ele>188</ele>
        <time>2013-06-07T09:49:03Z</time>
      </trkpt>
      <trkpt lat="48.36867" lon="0.05718">
        <ele>188</ele>
        <time>2013-06-07T09:49:11Z</time>
      </trkpt>
      <trkpt lat="48.36867" lon="0.05734">
        <ele>188</ele>
        <time>2013-06-07T09:49:20Z</time>
      </trkpt>
      <trkpt lat="48.3687" lon="0.05749">
        <ele>180</ele>
        <time>2013-06-07T09:49:29Z</time>
      </trkpt>
      <trkpt lat="48.3687" lon="0.05764">
        <ele>180</ele>
        <time>2013-06-07T09:49:36Z</time>
      </trkpt>
      <trkpt lat="48.36871" lon="0.0578">
        <ele>180</ele>
        <time>2013-06-07T09:49:45Z</time>
      </trkpt>
      <trkpt lat="48.36872" lon="0.05794">
        <ele>180</ele>
        <time>2013-06-07T09:49:57Z</time>
      </trkpt>
      <trkpt lat="48.36875" lon="0.05808">
        <ele>180</ele>
        <time>2013-06-07T09:50:07Z</time>
      </trkpt>
      <trkpt lat="48.36878" lon="0.05821">
        <ele>180</ele>
        <time>2013-06-07T09:50:15Z</time>
      </trkpt>
      <trkpt lat="48.36878" lon="0.05836">
        <ele>180</ele>
        <time>2013-06-07T09:50:24Z</time>
      </trkpt>
      <trkpt lat="48.36877" lon="0.05851">
        <ele>180</ele>
        <time>2013-06-07T09:50:32Z</time>
      </trkpt>
      <trkpt lat="48.36878" lon="0.05866">
        <ele>180</ele>
        <time>2013-06-07T09:50:40Z</time>
      </trkpt>
      <trkpt lat="48.3688" lon="0.0588">
        <ele>180</ele>
        <time>2013-06-07T09:50:49Z</time>
      </trkpt>
      <trkpt lat="48.3688" lon="0.05895">
        <ele>180</ele>
        <time>2013-06-07T09:50:57Z</time>
      </trkpt>
      <trkpt lat="48.36881" lon="0.05909">
        <ele>180</ele>
        <time>2013-06-07T09:51:05Z</time>
      </trkpt>
      <trkpt lat="48.36882" lon="0.05924">
        <ele>180</ele>
        <time>2013-06-07T09:51:14Z</time>
      </trkpt>
      <trkpt lat="48.36885" lon="0.05937">
        <ele>180</ele>
        <time>2013-06-07T09:51:22Z</time>
      </trkpt>
      <trkpt lat="48.36886" lon="0.05951">
        <ele>180</ele>
        <time>2013-06-07T09:51:31Z</time>
      </trkpt>
      <trkpt lat="48.36887" lon="0.05968">
        <ele>180</ele>
        <time>2013-06-07T09:51:40Z</time>
      </trkpt>
      <trkpt lat="48.36889" lon="0.05982">
        <ele>173</ele>
        <time>2013-06-07T09:51:48Z</time>
      </trkpt>
      <trkpt lat="48.36888" lon="0.05997">
        <ele>173</ele>
        <time>2013-06-07T09:51:55Z</time>
      </trkpt>
      <trkpt lat="48.36891" lon="0.06011">
        <ele>173</ele>
        <time>2013-06-07T09:52:05Z</time>
      </trkpt>
      <trkpt lat="48.36887" lon="0.06023">
        <ele>173</ele>
        <time>2013-06-07T09:52:33Z</time>
      </trkpt>
      <trkpt lat="48.36884" lon="0.06037">
        <ele>173</ele>
        <time>2013-06-07T09:52:41Z</time>
      </trkpt>
      <trkpt lat="48.36875" lon="0.06042">
        <ele>173</ele>
        <time>2013-06-07T09:52:53Z</time>
      </trkpt>
      <trkpt lat="48.36866" lon="0.0604">
        <ele>173</ele>
        <time>2013-06-07T09:53:03Z</time>
      </trkpt>
      <trkpt lat="48.36857" lon="0.06036">
        <ele>173</ele>
        <time>2013-06-07T09:53:11Z</time>
      </trkpt>
      <trkpt lat="48.36846" lon="0.06035">
        <ele>173</ele>
        <time>2013-06-07T09:53:23Z</time>
      </trkpt>
      <trkpt lat="48.36838" lon="0.06028">
        <ele>182</ele>
        <time>2013-06-07T09:53:30Z</time>
      </trkpt>
      <trkpt lat="48.36828" lon="0.06023">
        <ele>182</ele>
        <time>2013-06-07T09:53:37Z</time>
      </trkpt>
      <trkpt lat="48.36818" lon="0.06021">
        <ele>182</ele>
        <time>2013-06-07T09:53:46Z</time>
      </trkpt>
      <trkpt lat="48.36809" lon="0.06014">
        <ele>182</ele>
        <time>2013-06-07T09:53:58Z</time>
      </trkpt>
      <trkpt lat="48.368" lon="0.06009">
        <ele>182</ele>
        <time>2013-06-07T09:54:06Z</time>
      </trkpt>
      <trkpt lat="48.36791" lon="0.06006">
        <ele>182</ele>
        <time>2013-06-07T09:54:14Z</time>
      </trkpt>
      <trkpt lat="48.36781" lon="0.06004">
        <ele>182</ele>
        <time>2013-06-07T09:54:24Z</time>
      </trkpt>
      <trkpt lat="48.36772" lon="0.06001">
        <ele>176</ele>
        <time>2013-06-07T09:54:34Z</time>
      </trkpt>
      <trkpt lat="48.36763" lon="0.05995">
        <ele>176</ele>
        <time>2013-06-07T09:54:42Z</time>
      </trkpt>
      <trkpt lat="48.36754" lon="0.05986">
        <ele>176</ele>
        <time>2013-06-07T09:54:50Z</time>
      </trkpt>
      <trkpt lat="48.36744" lon="0.05983">
        <ele>176</ele>
        <time>2013-06-07T09:54:59Z</time>
      </trkpt>
      <trkpt lat="48.36733" lon="0.05982">
        <ele>176</ele>
        <time>2013-06-07T09:55:08Z</time>
      </trkpt>
      <trkpt lat="48.36724" lon="0.05987">
        <ele>176</ele>
        <time>2013-06-07T09:55:18Z</time>
      </trkpt>
      <trkpt lat="48.36715" lon="0.05988">
        <ele>176</ele>
        <time>2013-06-07T09:55:28Z</time>
      </trkpt>
      <trkpt lat="48.36706" lon="0.05994">
        <ele>176</ele>
        <time>2013-06-07T09:55:40Z</time>
      </trkpt>
      <trkpt lat="48.36696" lon="0.05996">
        <ele>176</ele>
        <time>2013-06-07T09:55:48Z</time>
      </trkpt>
      <trkpt lat="48.36685" lon="0.05995">
        <ele>185</ele>
        <time>2013-06-07T09:55:56Z</time>
      </trkpt>
      <trkpt lat="48.36676" lon="0.05999">
        <ele>185</ele>
        <time>2013-06-07T09:56:07Z</time>
      </trkpt>
      <trkpt lat="48.36667" lon="0.06">
        <ele>185</ele>
        <time>2013-06-07T09:56:17Z</time>
      </trkpt>
      <trkpt lat="48.36656" lon="0.05995">
        <ele>195</ele>
        <time>2013-06-07T09:56:27Z</time>
      </trkpt>
      <trkpt lat="48.36646" lon="0.05994">
        <ele>195</ele>
        <time>2013-06-07T09:56:38Z</time>
      </trkpt>
      <trkpt lat="48.36638" lon="0.05986">
        <ele>195</ele>
        <time>2013-06-07T09:56:47Z</time>
      </trkpt>
      <trkpt lat="48.36629" lon="0.05983">
        <ele>195</ele>
        <time>2013-06-07T09:56:57Z</time>
      </trkpt>
      <trkpt lat="48.36619" lon="0.05982">
        <ele>186</ele>
        <time>2013-06-07T09:57:09Z</time>
      </trkpt>
      <trkpt lat="48.36611" lon="0.05991">
        <ele>180</ele>
        <time>2013-06-07T09:57:25Z</time>
      </trkpt>
      <trkpt lat="48.36603" lon="0.05997">
        <ele>180</ele>
        <time>2013-06-07T09:57:33Z</time>
      </trkpt>
      <trkpt lat="48.36594" lon="0.06001">
        <ele>180</ele>
        <time>2013-06-07T09:57:42Z</time>
      </trkpt>
      <trkpt lat="48.36584" lon="0.06004">
        <ele>180</ele>
        <time>2013-06-07T09:57:54Z</time>
      </trkpt>
      <trkpt lat="48.36575" lon="0.06003">
        <ele>180</ele>
        <time>2013-06-07T09:58:06Z</time>
      </trkpt>
      <trkpt lat="48.36567" lon="0.06011">
        <ele>180</ele>
        <time>2013-06-07T09:58:10Z</time>
      </trkpt>
      <trkpt lat="48.36557" lon="0.06013">
        <ele>180</ele>
        <time>2013-06-07T09:58:26Z</time>
      </trkpt>
      <trkpt lat="48.36548" lon="0.06017">
        <ele>180</ele>
        <time>2013-06-07T09:58:35Z</time>
      </trkpt>
      <trkpt lat="48.36539" lon="0.06007">
        <ele>180</ele>
        <time>2013-06-07T09:58:44Z</time>
      </trkpt>
      <trkpt lat="48.3653" lon="0.06003">
        <ele>186</ele>
        <time>2013-06-07T09:58:51Z</time>
      </trkpt>
      <trkpt lat="48.36521" lon="0.06003">
        <ele>192</ele>
        <time>2013-06-07T09:59:02Z</time>
      </trkpt>
      <trkpt lat="48.36514" lon="0.06014">
        <ele>192</ele>
        <time>2013-06-07T09:59:11Z</time>
      </trkpt>
      <trkpt lat="48.36509" lon="0.06029">
        <ele>192</ele>
        <time>2013-06-07T09:59:21Z</time>
      </trkpt>
      <trkpt lat="48.36501" lon="0.06035">
        <ele>181</ele>
        <time>2013-06-07T09:59:37Z</time>
      </trkpt>
      <trkpt lat="48.36493" lon="0.06042">
        <ele>181</ele>
        <time>2013-06-07T09:59:56Z</time>
      </trkpt>
      <trkpt lat="48.36499" lon="0.06032">
        <ele>181</ele>
        <time>2013-06-07T10:00:20Z</time>
      </trkpt>
      <trkpt lat="48.36496" lon="0.06046">
        <ele>190</ele>
        <time>2013-06-07T10:00:46Z</time>
      </trkpt>
      <trkpt lat="48.36495" lon="0.0603">
        <ele>202</ele>
        <time>2013-06-07T10:00:58Z</time>
      </trkpt>
      <trkpt lat="48.3649" lon="0.06043">
        <ele>202</ele>
        <time>2013-06-07T10:01:47Z</time>
      </trkpt>
      <trkpt lat="48.36483" lon="0.06052">
        <ele>189</ele>
        <time>2013-06-07T10:02:11Z</time>
      </trkpt>
      <trkpt lat="48.36475" lon="0.06058">
        <ele>189</ele>
        <time>2013-06-07T10:02:22Z</time>
      </trkpt>
      <trkpt lat="48.36466" lon="0.06063">
        <ele>184</ele>
        <time>2013-06-07T10:02:35Z</time>
      </trkpt>
      <trkpt lat="48.36459" lon="0.06072">
        <ele>184</ele>
        <time>2013-06-07T10:02:43Z</time>
      </trkpt>
      <trkpt lat="48.36456" lon="0.06086">
        <ele>178</ele>
        <time>2013-06-07T10:02:50Z</time>
      </trkpt>
      <trkpt lat="48.36465" lon="0.06091">
        <ele>187</ele>
        <time>2013-06-07T10:03:03Z</time>
      </trkpt>
      <trkpt lat="48.36462" lon="0.06104">
        <ele>187</ele>
        <time>2013-06-07T10:03:31Z</time>
      </trkpt>
      <trkpt lat="48.36461" lon="0.06118">
        <ele>187</ele>
        <time>2013-06-07T10:03:44Z</time>
      </trkpt>
      <trkpt lat="48.36462" lon="0.06133">
        <ele>187</ele>
        <time>2013-06-07T10:03:53Z</time>
      </trkpt>
      <trkpt lat="48.36463" lon="0.06148">
        <ele>181</ele>
        <time>2013-06-07T10:04:06Z</time>
      </trkpt>
      <trkpt lat="48.36462" lon="0.06162">
        <ele>181</ele>
        <time>2013-06-07T10:04:16Z</time>
      </trkpt>
      <trkpt lat="48.36461" lon="0.06177">
        <ele>186</ele>
        <time>2013-06-07T10:04:25Z</time>
      </trkpt>
      <trkpt lat="48.36461" lon="0.06192">
        <ele>186</ele>
        <time>2013-06-07T10:04:32Z</time>
      </trkpt>
      <trkpt lat="48.36464" lon="0.06206">
        <ele>186</ele>
        <time>2013-06-07T10:04:42Z</time>
      </trkpt>
      <trkpt lat="48.36466" lon="0.06221">
        <ele>186</ele>
        <time>2013-06-07T10:04:51Z</time>
      </trkpt>
      <trkpt lat="48.3647" lon="0.06233">
        <ele>186</ele>
        <time>2013-06-07T10:04:58Z</time>
      </trkpt>
      <trkpt lat="48.36472" lon="0.06248">
        <ele>186</ele>
        <time>2013-06-07T10:05:08Z</time>
      </trkpt>
      <trkpt lat="48.36478" lon="0.0626">
        <ele>186</ele>
        <time>2013-06-07T10:05:18Z</time>
      </trkpt>
      <trkpt lat="48.36481" lon="0.06276">
        <ele>186</ele>
        <time>2013-06-07T10:05:28Z</time>
      </trkpt>
      <trkpt lat="48.36485" lon="0.06288">
        <ele>186</ele>
        <time>2013-06-07T10:05:35Z</time>
      </trkpt>
      <trkpt lat="48.36487" lon="0.06303">
        <ele>192</ele>
        <time>2013-06-07T10:05:44Z</time>
      </trkpt>
      <trkpt lat="48.36484" lon="0.06317">
        <ele>192</ele>
        <time>2013-06-07T10:05:54Z</time>
      </trkpt>
      <trkpt lat="48.36485" lon="0.06332">
        <ele>185</ele>
        <time>2013-06-07T10:06:01Z</time>
      </trkpt>
      <trkpt lat="48.36484" lon="0.06347">
        <ele>185</ele>
        <time>2013-06-07T10:06:10Z</time>
      </trkpt>
      <trkpt lat="48.3648" lon="0.06359">
        <ele>185</ele>
        <time>2013-06-07T10:06:20Z</time>
      </trkpt>
      <trkpt lat="48.36484" lon="0.06372">
        <ele>185</ele>
        <time>2013-06-07T10:06:30Z</time>
      </trkpt>
      <trkpt lat="48.36486" lon="0.06387">
        <ele>185</ele>
        <time>2013-06-07T10:06:38Z</time>
      </trkpt>
      <trkpt lat="48.36487" lon="0.06402">
        <ele>195</ele>
        <time>2013-06-07T10:06:48Z</time>
      </trkpt>
      <trkpt lat="48.36481" lon="0.06414">
        <ele>195</ele>
        <time>2013-06-07T10:07:09Z</time>
      </trkpt>
      <trkpt lat="48.36481" lon="0.06428">
        <ele>186</ele>
        <time>2013-06-07T10:07:15Z</time>
      </trkpt>
      <trkpt lat="48.36482" lon="0.06444">
        <ele>186</ele>
        <time>2013-06-07T10:07:24Z</time>
      </trkpt>
      <trkpt lat="48.36484" lon="0.06458">
        <ele>186</ele>
        <time>2013-06-07T10:07:32Z</time>
      </trkpt>
      <trkpt lat="48.36485" lon="0.06473">
        <ele>192</ele>
        <time>2013-06-07T10:07:42Z</time>
      </trkpt>
      <trkpt lat="48.36486" lon="0.06488">
        <ele>192</ele>
        <time>2013-06-07T10:07:54Z</time>
      </trkpt>
      <trkpt lat="48.36485" lon="0.06503">
        <ele>192</ele>
        <time>2013-06-07T10:08:04Z</time>
      </trkpt>
      <trkpt lat="48.36484" lon="0.06517">
        <ele>192</ele>
        <time>2013-06-07T10:08:14Z</time>
      </trkpt>
      <trkpt lat="48.36481" lon="0.06531">
        <ele>192</ele>
        <time>2013-06-07T10:08:22Z</time>
      </trkpt>
      <trkpt lat="48.36481" lon="0.06545">
        <ele>192</ele>
        <time>2013-06-07T10:08:31Z</time>
      </trkpt>
      <trkpt lat="48.36478" lon="0.06561">
        <ele>192</ele>
        <time>2013-06-07T10:08:41Z</time>
      </trkpt>
      <trkpt lat="48.36475" lon="0.06575">
        <ele>192</ele>
        <time>2013-06-07T10:08:50Z</time>
      </trkpt>
      <trkpt lat="48.36471" lon="0.06587">
        <ele>186</ele>
        <time>2013-06-07T10:08:58Z</time>
      </trkpt>
      <trkpt lat="48.36465" lon="0.06601">
        <ele>186</ele>
        <time>2013-06-07T10:09:07Z</time>
      </trkpt>
      <trkpt lat="48.36461" lon="0.06613">
        <ele>186</ele>
        <time>2013-06-07T10:09:16Z</time>
      </trkpt>
      <trkpt lat="48.36456" lon="0.06626">
        <ele>186</ele>
        <time>2013-06-07T10:09:24Z</time>
      </trkpt>
      <trkpt lat="48.36451" lon="0.06639">
        <ele>186</ele>
        <time>2013-06-07T10:09:32Z</time>
      </trkpt>
      <trkpt lat="48.36447" lon="0.06653">
        <ele>186</ele>
        <time>2013-06-07T10:09:41Z</time>
      </trkpt>
      <trkpt lat="48.36443" lon="0.06666">
        <ele>186</ele>
        <time>2013-06-07T10:09:50Z</time>
      </trkpt>
      <trkpt lat="48.36439" lon="0.06678">
        <ele>186</ele>
        <time>2013-06-07T10:09:59Z</time>
      </trkpt>
      <trkpt lat="48.36435" lon="0.06691">
        <ele>186</ele>
        <time>2013-06-07T10:10:11Z</time>
      </trkpt>
      <trkpt lat="48.36429" lon="0.06702">
        <ele>186</ele>
        <time>2013-06-07T10:10:20Z</time>
      </trkpt>
      <trkpt lat="48.36426" lon="0.06717">
        <ele>186</ele>
        <time>2013-06-07T10:10:28Z</time>
      </trkpt>
      <trkpt lat="48.36422" lon="0.0673">
        <ele>186</ele>
        <time>2013-06-07T10:10:38Z</time>
      </trkpt>
      <trkpt lat="48.36417" lon="0.06743">
        <ele>175</ele>
        <time>2013-06-07T10:10:48Z</time>
      </trkpt>
      <trkpt lat="48.36411" lon="0.06754">
        <ele>175</ele>
        <time>2013-06-07T10:10:59Z</time>
      </trkpt>
      <trkpt lat="48.36405" lon="0.06769">
        <ele>175</ele>
        <time>2013-06-07T10:11:07Z</time>
      </trkpt>
      <trkpt lat="48.36401" lon="0.06782">
        <ele>175</ele>
        <time>2013-06-07T10:11:14Z</time>
      </trkpt>
      <trkpt lat="48.36396" lon="0.06795">
        <ele>175</ele>
        <time>2013-06-07T10:11:22Z</time>
      </trkpt>
      <trkpt lat="48.36392" lon="0.06808">
        <ele>175</ele>
        <time>2013-06-07T10:11:31Z</time>
      </trkpt>
      <trkpt lat="48.36388" lon="0.06821">
        <ele>175</ele>
        <time>2013-06-07T10:11:41Z</time>
      </trkpt>
      <trkpt lat="48.36386" lon="0.06836">
        <ele>175</ele>
        <time>2013-06-07T10:11:51Z</time>
      </trkpt>
      <trkpt lat="48.36384" lon="0.06851">
        <ele>181</ele>
        <time>2013-06-07T10:11:59Z</time>
      </trkpt>
      <trkpt lat="48.36383" lon="0.06866">
        <ele>181</ele>
        <time>2013-06-07T10:12:10Z</time>
      </trkpt>
      <trkpt lat="48.3638" lon="0.06879">
        <ele>181</ele>
        <time>2013-06-07T10:12:16Z</time>
      </trkpt>
      <trkpt lat="48.36378" lon="0.06895">
        <ele>175</ele>
        <time>2013-06-07T10:12:25Z</time>
      </trkpt>
      <trkpt lat="48.36375" lon="0.06909">
        <ele>175</ele>
        <time>2013-06-07T10:12:36Z</time>
      </trkpt>
      <trkpt lat="48.36371" lon="0.06922">
        <ele>175</ele>
        <time>2013-06-07T10:12:43Z</time>
      </trkpt>
      <trkpt lat="48.36366" lon="0.06936">
        <ele>175</ele>
        <time>2013-06-07T10:12:51Z</time>
      </trkpt>
      <trkpt lat="48.36362" lon="0.0695">
        <ele>175</ele>
        <time>2013-06-07T10:13:01Z</time>
      </trkpt>
      <trkpt lat="48.36358" lon="0.06966">
        <ele>175</ele>
        <time>2013-06-07T10:13:08Z</time>
      </trkpt>
      <trkpt lat="48.36353" lon="0.06979">
        <ele>175</ele>
        <time>2013-06-07T10:13:20Z</time>
      </trkpt>
      <trkpt lat="48.36347" lon="0.0699">
        <ele>175</ele>
        <time>2013-06-07T10:13:28Z</time>
      </trkpt>
      <trkpt lat="48.36342" lon="0.07002">
        <ele>181</ele>
        <time>2013-06-07T10:13:34Z</time>
      </trkpt>
      <trkpt lat="48.36335" lon="0.07013">
        <ele>181</ele>
        <time>2013-06-07T10:13:45Z</time>
      </trkpt>
      <trkpt lat="48.36329" lon="0.07026">
        <ele>181</ele>
        <time>2013-06-07T10:13:56Z</time>
      </trkpt>
      <trkpt lat="48.36326" lon="0.07039">
        <ele>181</ele>
        <time>2013-06-07T10:14:03Z</time>
      </trkpt>
      <trkpt lat="48.36321" lon="0.07052">
        <ele>181</ele>
        <time>2013-06-07T10:14:12Z</time>
      </trkpt>
      <trkpt lat="48.36316" lon="0.07064">
        <ele>181</ele>
        <time>2013-06-07T10:14:23Z</time>
      </trkpt>
      <trkpt lat="48.36311" lon="0.07077">
        <ele>175</ele>
        <time>2013-06-07T10:14:33Z</time>
      </trkpt>
      <trkpt lat="48.36304" lon="0.07087">
        <ele>175</ele>
        <time>2013-06-07T10:14:41Z</time>
      </trkpt>
      <trkpt lat="48.36296" lon="0.07097">
        <ele>183</ele>
        <time>2013-06-07T10:14:49Z</time>
      </trkpt>
      <trkpt lat="48.36292" lon="0.07109">
        <ele>175</ele>
        <time>2013-06-07T10:14:59Z</time>
      </trkpt>
      <trkpt lat="48.36286" lon="0.07121">
        <ele>175</ele>
        <time>2013-06-07T10:15:08Z</time>
      </trkpt>
      <trkpt lat="48.36281" lon="0.07134">
        <ele>175</ele>
        <time>2013-06-07T10:15:18Z</time>
      </trkpt>
      <trkpt lat="48.36276" lon="0.07147">
        <ele>175</ele>
        <time>2013-06-07T10:15:29Z</time>
      </trkpt>
      <trkpt lat="48.36274" lon="0.07162">
        <ele>175</ele>
        <time>2013-06-07T10:15:38Z</time>
      </trkpt>
      <trkpt lat="48.36272" lon="0.07176">
        <ele>170</ele>
        <time>2013-06-07T10:15:47Z</time>
      </trkpt>
      <trkpt lat="48.36268" lon="0.07189">
        <ele>170</ele>
        <time>2013-06-07T10:15:56Z</time>
      </trkpt>
      <trkpt lat="48.36262" lon="0.072">
        <ele>170</ele>
        <time>2013-06-07T10:16:04Z</time>
      </trkpt>
      <trkpt lat="48.36261" lon="0.07214">
        <ele>170</ele>
        <time>2013-06-07T10:16:11Z</time>
      </trkpt>
      <trkpt lat="48.36263" lon="0.07229">
        <ele>170</ele>
        <time>2013-06-07T10:16:22Z</time>
      </trkpt>
      <trkpt lat="48.36262" lon="0.07243">
        <ele>170</ele>
        <time>2013-06-07T10:16:30Z</time>
      </trkpt>
      <trkpt lat="48.36263" lon="0.07258">
        <ele>170</ele>
        <time>2013-06-07T10:16:46Z</time>
      </trkpt>
      <trkpt lat="48.36262" lon="0.07273">
        <ele>170</ele>
        <time>2013-06-07T10:17:00Z</time>
      </trkpt>
      <trkpt lat="48.36268" lon="0.07285">
        <ele>170</ele>
        <time>2013-06-07T10:17:09Z</time>
      </trkpt>
      <trkpt lat="48.36273" lon="0.07298">
        <ele>170</ele>
        <time>2013-06-07T10:17:19Z</time>
      </trkpt>
      <trkpt lat="48.36277" lon="0.07311">
        <ele>170</ele>
        <time>2013-06-07T10:17:28Z</time>
      </trkpt>
      <trkpt lat="48.36283" lon="0.07323">
        <ele>170</ele>
        <time>2013-06-07T10:17:57Z</time>
      </trkpt>
      <trkpt lat="48.36288" lon="0.07337">
        <ele>170</ele>
        <time>2013-06-07T10:18:06Z</time>
      </trkpt>
      <trkpt lat="48.36292" lon="0.07351">
        <ele>170</ele>
        <time>2013-06-07T10:18:15Z</time>
      </trkpt>
      <trkpt lat="48.36296" lon="0.07364">
        <ele>170</ele>
        <time>2013-06-07T10:18:24Z</time>
      </trkpt>
      <trkpt lat="48.36302" lon="0.07375">
        <ele>170</ele>
        <time>2013-06-07T10:18:32Z</time>
      </trkpt>
      <trkpt lat="48.36308" lon="0.07385">
        <ele>170</ele>
        <time>2013-06-07T10:18:40Z</time>
      </trkpt>
      <trkpt lat="48.36315" lon="0.07396">
        <ele>170</ele>
        <time>2013-06-07T10:18:49Z</time>
      </trkpt>
      <trkpt lat="48.36323" lon="0.07406">
        <ele>170</ele>
        <time>2013-06-07T10:18:58Z</time>
      </trkpt>
      <trkpt lat="48.3633" lon="0.07415">
        <ele>170</ele>
        <time>2013-06-07T10:19:06Z</time>
      </trkpt>
      <trkpt lat="48.36337" lon="0.07425">
        <ele>170</ele>
        <time>2013-06-07T10:19:14Z</time>
      </trkpt>
      <trkpt lat="48.36344" lon="0.07436">
        <ele>170</ele>
        <time>2013-06-07T10:19:24Z</time>
      </trkpt>
      <trkpt lat="48.3635" lon="0.07446">
        <ele>170</ele>
        <time>2013-06-07T10:19:33Z</time>
      </trkpt>
      <trkpt lat="48.36357" lon="0.07456">
        <ele>170</ele>
        <time>2013-06-07T10:19:42Z</time>
      </trkpt>
      <trkpt lat="48.36365" lon="0.07466">
        <ele>170</ele>
        <time>2013-06-07T10:19:49Z</time>
      </trkpt>
      <trkpt lat="48.3637" lon="0.07478">
        <ele>170</ele>
        <time>2013-06-07T10:19:57Z</time>
      </trkpt>
      <trkpt lat="48.36375" lon="0.0749">
        <ele>170</ele>
        <time>2013-06-07T10:20:07Z</time>
      </trkpt>
      <trkpt lat="48.3638" lon="0.07503">
        <ele>170</ele>
        <time>2013-06-07T10:20:16Z</time>
      </trkpt>
      <trkpt lat="48.36384" lon="0.07516">
        <ele>170</ele>
        <time>2013-06-07T10:20:25Z</time>
      </trkpt>
      <trkpt lat="48.36378" lon="0.07529">
        <ele>170</ele>
        <time>2013-06-07T10:20:38Z</time>
      </trkpt>
      <trkpt lat="48.36369" lon="0.07532">
        <ele>170</ele>
        <time>2013-06-07T10:20:47Z</time>
      </trkpt>
      <trkpt lat="48.36359" lon="0.07534">
        <ele>170</ele>
        <time>2013-06-07T10:20:57Z</time>
      </trkpt>
      <trkpt lat="48.3635" lon="0.07541">
        <ele>170</ele>
        <time>2013-06-07T10:21:05Z</time>
      </trkpt>
      <trkpt lat="48.36341" lon="0.07544">
        <ele>170</ele>
        <time>2013-06-07T10:21:20Z</time>
      </trkpt>
      <trkpt lat="48.36333" lon="0.07553">
        <ele>170</ele>
        <time>2013-06-07T10:22:35Z</time>
      </trkpt>
      <trkpt lat="48.36326" lon="0.07562">
        <ele>170</ele>
        <time>2013-06-07T10:23:21Z</time>
      </trkpt>
      <trkpt lat="48.36329" lon="0.07549">
        <ele>170</ele>
        <time>2013-06-07T10:24:16Z</time>
      </trkpt>
      <trkpt lat="48.36339" lon="0.07547">
        <ele>170</ele>
        <time>2013-06-07T10:24:46Z</time>
      </trkpt>
      <trkpt lat="48.36329" lon="0.0754">
        <ele>175</ele>
        <time>2013-06-07T10:25:13Z</time>
      </trkpt>
      <trkpt lat="48.36321" lon="0.0753">
        <ele>175</ele>
        <time>2013-06-07T10:25:15Z</time>
      </trkpt>
      <trkpt lat="48.3631" lon="0.07518">
        <ele>175</ele>
        <time>2013-06-07T10:25:18Z</time>
      </trkpt>
      <trkpt lat="48.3632" lon="0.07526">
        <ele>170</ele>
        <time>2013-06-07T10:25:21Z</time>
      </trkpt>
      <trkpt lat="48.36329" lon="0.07539">
        <ele>170</ele>
        <time>2013-06-07T10:25:24Z</time>
      </trkpt>
      <trkpt lat="48.36335" lon="0.07549">
        <ele>176</ele>
        <time>2013-06-07T10:25:38Z</time>
      </trkpt>
      <trkpt lat="48.36325" lon="0.0755">
        <ele>176</ele>
        <time>2013-06-07T10:40:22Z</time>
      </trkpt>
      <trkpt lat="48.36334" lon="0.07554">
        <ele>189</ele>
        <time>2013-06-07T10:41:06Z</time>
      </trkpt>
      <trkpt lat="48.36333" lon="0.0754">
        <ele>164</ele>
        <time>2013-06-07T10:46:06Z</time>
      </trkpt>
      <trkpt lat="48.36336" lon="0.07553">
        <ele>180</ele>
        <time>2013-06-07T10:47:28Z</time>
      </trkpt>
      <trkpt lat="48.36336" lon="0.07567">
        <ele>205</ele>
        <time>2013-06-07T10:54:34Z</time>
      </trkpt>
      <trkpt lat="48.36335" lon="0.07553">
        <ele>181</ele>
        <time>2013-06-07T10:55:42Z</time>
      </trkpt>
      <trkpt lat="48.36334" lon="0.07539">
        <ele>162</ele>
        <time>2013-06-07T10:55:52Z</time>
      </trkpt>
      <trkpt lat="48.36333" lon="0.07553">
        <ele>178</ele>
        <time>2013-06-07T10:57:08Z</time>
      </trkpt>
      <trkpt lat="48.36336" lon="0.0754">
        <ele>170</ele>
        <time>2013-06-07T10:58:00Z</time>
      </trkpt>
      <trkpt lat="48.36345" lon="0.07546">
        <ele>178</ele>
        <time>2013-06-07T10:59:12Z</time>
      </trkpt>
      <trkpt lat="48.36335" lon="0.07544">
        <ele>168</ele>
        <time>2013-06-07T11:00:05Z</time>
      </trkpt>
      <trkpt lat="48.36345" lon="0.07544">
        <ele>168</ele>
        <time>2013-06-07T11:01:23Z</time>
      </trkpt>
      <trkpt lat="48.36335" lon="0.07542">
        <ele>153</ele>
        <time>2013-06-07T11:02:57Z</time>
      </trkpt>
      <trkpt lat="48.36344" lon="0.07549">
        <ele>172</ele>
        <time>2013-06-07T11:04:16Z</time>
      </trkpt>
      <trkpt lat="48.36353" lon="0.07541">
        <ele>177</ele>
        <time>2013-06-07T11:05:08Z</time>
      </trkpt>
      <trkpt lat="48.36362" lon="0.07535">
        <ele>177</ele>
        <time>2013-06-07T11:06:05Z</time>
      </trkpt>
      <trkpt lat="48.36372" lon="0.07532">
        <ele>177</ele>
        <time>2013-06-07T11:06:16Z</time>
      </trkpt>
      <trkpt lat="48.36382" lon="0.07532">
        <ele>177</ele>
        <time>2013-06-07T11:06:25Z</time>
      </trkpt>
      <trkpt lat="48.36392" lon="0.0753">
        <ele>177</ele>
        <time>2013-06-07T11:06:36Z</time>
      </trkpt>
      <trkpt lat="48.364" lon="0.07538">
        <ele>177</ele>
        <time>2013-06-07T11:06:49Z</time>
      </trkpt>
      <trkpt lat="48.36404" lon="0.07552">
        <ele>169</ele>
        <time>2013-06-07T11:07:00Z</time>
      </trkpt>
      <trkpt lat="48.36406" lon="0.07567">
        <ele>169</ele>
        <time>2013-06-07T11:07:08Z</time>
      </trkpt>
      <trkpt lat="48.36409" lon="0.07581">
        <ele>169</ele>
        <time>2013-06-07T11:07:17Z</time>
      </trkpt>
      <trkpt lat="48.36413" lon="0.07594">
        <ele>175</ele>
        <time>2013-06-07T11:07:24Z</time>
      </trkpt>
      <trkpt lat="48.36417" lon="0.07609">
        <ele>175</ele>
        <time>2013-06-07T11:07:34Z</time>
      </trkpt>
      <trkpt lat="48.36418" lon="0.07623">
        <ele>166</ele>
        <time>2013-06-07T11:07:43Z</time>
      </trkpt>
      <trkpt lat="48.3642" lon="0.07638">
        <ele>160</ele>
        <time>2013-06-07T11:07:53Z</time>
      </trkpt>
      <trkpt lat="48.36425" lon="0.0765">
        <ele>160</ele>
        <time>2013-06-07T11:08:02Z</time>
      </trkpt>
      <trkpt lat="48.36429" lon="0.07664">
        <ele>168</ele>
        <time>2013-06-07T11:08:08Z</time>
      </trkpt>
      <trkpt lat="48.36431" lon="0.07678">
        <ele>168</ele>
        <time>2013-06-07T11:08:14Z</time>
      </trkpt>
      <trkpt lat="48.36436" lon="0.07691">
        <ele>168</ele>
        <time>2013-06-07T11:08:24Z</time>
      </trkpt>
      <trkpt lat="48.36439" lon="0.07705">
        <ele>168</ele>
        <time>2013-06-07T11:08:32Z</time>
      </trkpt>
      <trkpt lat="48.36442" lon="0.07718">
        <ele>168</ele>
        <time>2013-06-07T11:08:41Z</time>
      </trkpt>
      <trkpt lat="48.36444" lon="0.07734">
        <ele>168</ele>
        <time>2013-06-07T11:08:49Z</time>
      </trkpt>
      <trkpt lat="48.36446" lon="0.07749">
        <ele>168</ele>
        <time>2013-06-07T11:08:58Z</time>
      </trkpt>
      <trkpt lat="48.36445" lon="0.07763">
        <ele>168</ele>
        <time>2013-06-07T11:09:06Z</time>
      </trkpt>
      <trkpt lat="48.36444" lon="0.07779">
        <ele>168</ele>
        <time>2013-06-07T11:09:15Z</time>
      </trkpt>
      <trkpt lat="48.36443" lon="0.07794">
        <ele>168</ele>
        <time>2013-06-07T11:09:21Z</time>
      </trkpt>
      <trkpt lat="48.36441" lon="0.07808">
        <ele>168</ele>
        <time>2013-06-07T11:09:29Z</time>
      </trkpt>
      <trkpt lat="48.36439" lon="0.07823">
        <ele>168</ele>
        <time>2013-06-07T11:09:38Z</time>
      </trkpt>
      <trkpt lat="48.36436" lon="0.07839">
        <ele>168</ele>
        <time>2013-06-07T11:09:47Z</time>
      </trkpt>
      <trkpt lat="48.36434" lon="0.07854">
        <ele>168</ele>
        <time>2013-06-07T11:09:56Z</time>
      </trkpt>
      <trkpt lat="48.36432" lon="0.07868">
        <ele>168</ele>
        <time>2013-06-07T11:10:04Z</time>
      </trkpt>
      <trkpt lat="48.3643" lon="0.07883">
        <ele>168</ele>
        <time>2013-06-07T11:10:12Z</time>
      </trkpt>
      <trkpt lat="48.36429" lon="0.07898">
        <ele>168</ele>
        <time>2013-06-07T11:10:20Z</time>
      </trkpt>
      <trkpt lat="48.36427" lon="0.07912">
        <ele>168</ele>
        <time>2013-06-07T11:10:28Z</time>
      </trkpt>
      <trkpt lat="48.36424" lon="0.07927">
        <ele>168</ele>
        <time>2013-06-07T11:10:36Z</time>
      </trkpt>
      <trkpt lat="48.36423" lon="0.07943">
        <ele>175</ele>
        <time>2013-06-07T11:10:44Z</time>
      </trkpt>
      <trkpt lat="48.36421" lon="0.07958">
        <ele>175</ele>
        <time>2013-06-07T11:10:51Z</time>
      </trkpt>
      <trkpt lat="48.36417" lon="0.07972">
        <ele>175</ele>
        <time>2013-06-07T11:11:00Z</time>
      </trkpt>
      <trkpt lat="48.36412" lon="0.07984">
        <ele>167</ele>
        <time>2013-06-07T11:11:09Z</time>
      </trkpt>
      <trkpt lat="48.36406" lon="0.07996">
        <ele>167</ele>
        <time>2013-06-07T11:11:17Z</time>
      </trkpt>
      <trkpt lat="48.36398" lon="0.08006">
        <ele>167</ele>
        <time>2013-06-07T11:11:26Z</time>
      </trkpt>
      <trkpt lat="48.36389" lon="0.08013">
        <ele>167</ele>
        <time>2013-06-07T11:11:35Z</time>
      </trkpt>
      <trkpt lat="48.36381" lon="0.08024">
        <ele>167</ele>
        <time>2013-06-07T11:11:44Z</time>
      </trkpt>
      <trkpt lat="48.36372" lon="0.08031">
        <ele>167</ele>
        <time>2013-06-07T11:11:52Z</time>
      </trkpt>
      <trkpt lat="48.36365" lon="0.08039">
        <ele>161</ele>
        <time>2013-06-07T11:12:01Z</time>
      </trkpt>
      <trkpt lat="48.36358" lon="0.08051">
        <ele>161</ele>
        <time>2013-06-07T11:12:09Z</time>
      </trkpt>
      <trkpt lat="48.36356" lon="0.08065">
        <ele>161</ele>
        <time>2013-06-07T11:12:18Z</time>
      </trkpt>
      <trkpt lat="48.36357" lon="0.08081">
        <ele>161</ele>
        <time>2013-06-07T11:12:26Z</time>
      </trkpt>
      <trkpt lat="48.3636" lon="0.08095">
        <ele>161</ele>
        <time>2013-06-07T11:12:35Z</time>
      </trkpt>
      <trkpt lat="48.36364" lon="0.08108">
        <ele>152</ele>
        <time>2013-06-07T11:12:44Z</time>
      </trkpt>
      <trkpt lat="48.36368" lon="0.08121">
        <ele>152</ele>
        <time>2013-06-07T11:12:51Z</time>
      </trkpt>
      <trkpt lat="48.36372" lon="0.08135">
        <ele>159</ele>
        <time>2013-06-07T11:12:59Z</time>
      </trkpt>
      <trkpt lat="48.36376" lon="0.08149">
        <ele>159</ele>
        <time>2013-06-07T11:13:06Z</time>
      </trkpt>
      <trkpt lat="48.36381" lon="0.08162">
        <ele>159</ele>
        <time>2013-06-07T11:13:17Z</time>
      </trkpt>
      <trkpt lat="48.36384" lon="0.08177">
        <ele>159</ele>
        <time>2013-06-07T11:13:26Z</time>
      </trkpt>
      <trkpt lat="48.36387" lon="0.08191">
        <ele>159</ele>
        <time>2013-06-07T11:13:35Z</time>
      </trkpt>
      <trkpt lat="48.3639" lon="0.08204">
        <ele>159</ele>
        <time>2013-06-07T11:13:48Z</time>
      </trkpt>
      <trkpt lat="48.36389" lon="0.08219">
        <ele>159</ele>
        <time>2013-06-07T11:14:01Z</time>
      </trkpt>
      <trkpt lat="48.36387" lon="0.08233">
        <ele>159</ele>
        <time>2013-06-07T11:14:10Z</time>
      </trkpt>
      <trkpt lat="48.36382" lon="0.08246">
        <ele>159</ele>
        <time>2013-06-07T11:14:29Z</time>
      </trkpt>
      <trkpt lat="48.36375" lon="0.08255">
        <ele>159</ele>
        <time>2013-06-07T11:14:37Z</time>
      </trkpt>
      <trkpt lat="48.36369" lon="0.08265">
        <ele>159</ele>
        <time>2013-06-07T11:14:45Z</time>
      </trkpt>
      <trkpt lat="48.36362" lon="0.08276">
        <ele>159</ele>
        <time>2013-06-07T11:14:53Z</time>
      </trkpt>
      <trkpt lat="48.36355" lon="0.08287">
        <ele>159</ele>
        <time>2013-06-07T11:15:02Z</time>
      </trkpt>
      <trkpt lat="48.36347" lon="0.08296">
        <ele>159</ele>
        <time>2013-06-07T11:15:10Z</time>
      </trkpt>
      <trkpt lat="48.36339" lon="0.08306">
        <ele>159</ele>
        <time>2013-06-07T11:15:18Z</time>
      </trkpt>
      <trkpt lat="48.36332" lon="0.08316">
        <ele>159</ele>
        <time>2013-06-07T11:15:26Z</time>
      </trkpt>
      <trkpt lat="48.36326" lon="0.08326">
        <ele>159</ele>
        <time>2013-06-07T11:15:33Z</time>
      </trkpt>
      <trkpt lat="48.3632" lon="0.08336">
        <ele>159</ele>
        <time>2013-06-07T11:15:41Z</time>
      </trkpt>
      <trkpt lat="48.36313" lon="0.08348">
        <ele>159</ele>
        <time>2013-06-07T11:15:50Z</time>
      </trkpt>
      <trkpt lat="48.36307" lon="0.08359">
        <ele>159</ele>
        <time>2013-06-07T11:15:57Z</time>
      </trkpt>
      <trkpt lat="48.36301" lon="0.08371">
        <ele>159</ele>
        <time>2013-06-07T11:16:05Z</time>
      </trkpt>
      <trkpt lat="48.36295" lon="0.08383">
        <ele>159</ele>
        <time>2013-06-07T11:16:13Z</time>
      </trkpt>
      <trkpt lat="48.3629" lon="0.08397">
        <ele>159</ele>
        <time>2013-06-07T11:16:22Z</time>
      </trkpt>
      <trkpt lat="48.36284" lon="0.08409">
        <ele>159</ele>
        <time>2013-06-07T11:16:30Z</time>
      </trkpt>
      <trkpt lat="48.3628" lon="0.08422">
        <ele>159</ele>
        <time>2013-06-07T11:16:37Z</time>
      </trkpt>
      <trkpt lat="48.36275" lon="0.08435">
        <ele>159</ele>
        <time>2013-06-07T11:16:45Z</time>
      </trkpt>
      <trkpt lat="48.3627" lon="0.08449">
        <ele>154</ele>
        <time>2013-06-07T11:16:54Z</time>
      </trkpt>
      <trkpt lat="48.36267" lon="0.08463">
        <ele>154</ele>
        <time>2013-06-07T11:17:03Z</time>
      </trkpt>
      <trkpt lat="48.36264" lon="0.08477">
        <ele>154</ele>
        <time>2013-06-07T11:17:13Z</time>
      </trkpt>
      <trkpt lat="48.36262" lon="0.08491">
        <ele>154</ele>
        <time>2013-06-07T11:17:22Z</time>
      </trkpt>
      <trkpt lat="48.3626" lon="0.08506">
        <ele>154</ele>
        <time>2013-06-07T11:17:33Z</time>
      </trkpt>
      <trkpt lat="48.3626" lon="0.08521">
        <ele>154</ele>
        <time>2013-06-07T11:17:41Z</time>
      </trkpt>
      <trkpt lat="48.3626" lon="0.08535">
        <ele>154</ele>
        <time>2013-06-07T11:17:50Z</time>
      </trkpt>
      <trkpt lat="48.36261" lon="0.0855">
        <ele>154</ele>
        <time>2013-06-07T11:17:59Z</time>
      </trkpt>
      <trkpt lat="48.36262" lon="0.08565">
        <ele>146</ele>
        <time>2013-06-07T11:18:09Z</time>
      </trkpt>
      <trkpt lat="48.36263" lon="0.0858">
        <ele>146</ele>
        <time>2013-06-07T11:18:19Z</time>
      </trkpt>
      <trkpt lat="48.36262" lon="0.08594">
        <ele>152</ele>
        <time>2013-06-07T11:18:44Z</time>
      </trkpt>
      <trkpt lat="48.36262" lon="0.08609">
        <ele>152</ele>
        <time>2013-06-07T11:18:55Z</time>
      </trkpt>
      <trkpt lat="48.36262" lon="0.08624">
        <ele>147</ele>
        <time>2013-06-07T11:19:02Z</time>
      </trkpt>
      <trkpt lat="48.36257" lon="0.08639">
        <ele>147</ele>
        <time>2013-06-07T11:19:11Z</time>
      </trkpt>
      <trkpt lat="48.36253" lon="0.08652">
        <ele>147</ele>
        <time>2013-06-07T11:19:20Z</time>
      </trkpt>
      <trkpt lat="48.36247" lon="0.08663">
        <ele>147</ele>
        <time>2013-06-07T11:19:28Z</time>
      </trkpt>
      <trkpt lat="48.36239" lon="0.08673">
        <ele>147</ele>
        <time>2013-06-07T11:19:36Z</time>
      </trkpt>
      <trkpt lat="48.36232" lon="0.08682">
        <ele>147</ele>
        <time>2013-06-07T11:19:46Z</time>
      </trkpt>
      <trkpt lat="48.36225" lon="0.0869">
        <ele>147</ele>
        <time>2013-06-07T11:19:54Z</time>
      </trkpt>
      <trkpt lat="48.36217" lon="0.087">
        <ele>147</ele>
        <time>2013-06-07T11:20:03Z</time>
      </trkpt>
      <trkpt lat="48.3621" lon="0.0871">
        <ele>147</ele>
        <time>2013-06-07T11:20:11Z</time>
      </trkpt>
      <trkpt lat="48.36202" lon="0.0872">
        <ele>147</ele>
        <time>2013-06-07T11:20:20Z</time>
      </trkpt>
      <trkpt lat="48.36196" lon="0.0873">
        <ele>147</ele>
        <time>2013-06-07T11:20:28Z</time>
      </trkpt>
      <trkpt lat="48.36191" lon="0.08742">
        <ele>147</ele>
        <time>2013-06-07T11:20:38Z</time>
      </trkpt>
      <trkpt lat="48.36192" lon="0.08757">
        <ele>147</ele>
        <time>2013-06-07T11:20:47Z</time>
      </trkpt>
      <trkpt lat="48.36195" lon="0.08771">
        <ele>147</ele>
        <time>2013-06-07T11:20:56Z</time>
      </trkpt>
      <trkpt lat="48.362" lon="0.08783">
        <ele>147</ele>
        <time>2013-06-07T11:21:03Z</time>
      </trkpt>
      <trkpt lat="48.36206" lon="0.08795">
        <ele>155</ele>
        <time>2013-06-07T11:21:11Z</time>
      </trkpt>
      <trkpt lat="48.36211" lon="0.08806">
        <ele>155</ele>
        <time>2013-06-07T11:21:21Z</time>
      </trkpt>
      <trkpt lat="48.36217" lon="0.08819">
        <ele>155</ele>
        <time>2013-06-07T11:21:31Z</time>
      </trkpt>
      <trkpt lat="48.36222" lon="0.08832">
        <ele>155</ele>
        <time>2013-06-07T11:21:40Z</time>
      </trkpt>
      <trkpt lat="48.36228" lon="0.08846">
        <ele>155</ele>
        <time>2013-06-07T11:21:50Z</time>
      </trkpt>
      <trkpt lat="48.36233" lon="0.08858">
        <ele>155</ele>
        <time>2013-06-07T11:21:58Z</time>
      </trkpt>
      <trkpt lat="48.36239" lon="0.08872">
        <ele>155</ele>
        <time>2013-06-07T11:22:07Z</time>
      </trkpt>
      <trkpt lat="48.36245" lon="0.08883">
        <ele>155</ele>
        <time>2013-06-07T11:22:15Z</time>
      </trkpt>
      <trkpt lat="48.36251" lon="0.08895">
        <ele>155</ele>
        <time>2013-06-07T11:22:24Z</time>
      </trkpt>
      <trkpt lat="48.3626" lon="0.08901">
        <ele>155</ele>
        <time>2013-06-07T11:22:33Z</time>
      </trkpt>
      <trkpt lat="48.36268" lon="0.0891">
        <ele>155</ele>
        <time>2013-06-07T11:22:42Z</time>
      </trkpt>
      <trkpt lat="48.36276" lon="0.08919">
        <ele>155</ele>
        <time>2013-06-07T11:22:52Z</time>
      </trkpt>
      <trkpt lat="48.36284" lon="0.08928">
        <ele>155</ele>
        <time>2013-06-07T11:23:01Z</time>
      </trkpt>
      <trkpt lat="48.36291" lon="0.08937">
        <ele>155</ele>
        <time>2013-06-07T11:23:08Z</time>
      </trkpt>
      <trkpt lat="48.36299" lon="0.08945">
        <ele>161</ele>
        <time>2013-06-07T11:23:16Z</time>
      </trkpt>
      <trkpt lat="48.36305" lon="0.08956">
        <ele>161</ele>
        <time>2013-06-07T11:23:25Z</time>
      </trkpt>
      <trkpt lat="48.3631" lon="0.08969">
        <ele>161</ele>
        <time>2013-06-07T11:23:43Z</time>
      </trkpt>
      <trkpt lat="48.36308" lon="0.08983">
        <ele>161</ele>
        <time>2013-06-07T11:23:52Z</time>
      </trkpt>
      <trkpt lat="48.36307" lon="0.08998">
        <ele>161</ele>
        <time>2013-06-07T11:24:41Z</time>
      </trkpt>
      <trkpt lat="48.36315" lon="0.09007">
        <ele>161</ele>
        <time>2013-06-07T11:26:39Z</time>
      </trkpt>
      <trkpt lat="48.36318" lon="0.09021">
        <ele>161</ele>
        <time>2013-06-07T11:26:50Z</time>
      </trkpt>
      <trkpt lat="48.36321" lon="0.09034">
        <ele>161</ele>
        <time>2013-06-07T11:26:58Z</time>
      </trkpt>
      <trkpt lat="48.36324" lon="0.09048">
        <ele>161</ele>
        <time>2013-06-07T11:27:06Z</time>
      </trkpt>
      <trkpt lat="48.36327" lon="0.09061">
        <ele>161</ele>
        <time>2013-06-07T11:27:14Z</time>
      </trkpt>
      <trkpt lat="48.36328" lon="0.09076">
        <ele>161</ele>
        <time>2013-06-07T11:27:22Z</time>
      </trkpt>
      <trkpt lat="48.36329" lon="0.0909">
        <ele>161</ele>
        <time>2013-06-07T11:27:30Z</time>
      </trkpt>
      <trkpt lat="48.36328" lon="0.09105">
        <ele>154</ele>
        <time>2013-06-07T11:27:40Z</time>
      </trkpt>
      <trkpt lat="48.36329" lon="0.09121">
        <ele>154</ele>
        <time>2013-06-07T11:27:50Z</time>
      </trkpt>
      <trkpt lat="48.36327" lon="0.09136">
        <ele>154</ele>
        <time>2013-06-07T11:27:58Z</time>
      </trkpt>
      <trkpt lat="48.36326" lon="0.0915">
        <ele>154</ele>
        <time>2013-06-07T11:28:06Z</time>
      </trkpt>
      <trkpt lat="48.36324" lon="0.09166">
        <ele>154</ele>
        <time>2013-06-07T11:28:15Z</time>
      </trkpt>
      <trkpt lat="48.36323" lon="0.0918">
        <ele>154</ele>
        <time>2013-06-07T11:28:23Z</time>
      </trkpt>
      <trkpt lat="48.36321" lon="0.09194">
        <ele>154</ele>
        <time>2013-06-07T11:28:33Z</time>
      </trkpt>
      <trkpt lat="48.36319" lon="0.09208">
        <ele>145</ele>
        <time>2013-06-07T11:28:42Z</time>
      </trkpt>
      <trkpt lat="48.36317" lon="0.09223">
        <ele>145</ele>
        <time>2013-06-07T11:28:51Z</time>
      </trkpt>
      <trkpt lat="48.36319" lon="0.09239">
        <ele>145</ele>
        <time>2013-06-07T11:28:59Z</time>
      </trkpt>
      <trkpt lat="48.36324" lon="0.09253">
        <ele>145</ele>
        <time>2013-06-07T11:29:07Z</time>
      </trkpt>
      <trkpt lat="48.36331" lon="0.09263">
        <ele>154</ele>
        <time>2013-06-07T11:29:14Z</time>
      </trkpt>
      <trkpt lat="48.36339" lon="0.09272">
        <ele>154</ele>
        <time>2013-06-07T11:29:22Z</time>
      </trkpt>
      <trkpt lat="48.36347" lon="0.09279">
        <ele>154</ele>
        <time>2013-06-07T11:29:30Z</time>
      </trkpt>
      <trkpt lat="48.36355" lon="0.09287">
        <ele>154</ele>
        <time>2013-06-07T11:29:39Z</time>
      </trkpt>
      <trkpt lat="48.36363" lon="0.09294">
        <ele>154</ele>
        <time>2013-06-07T11:29:47Z</time>
      </trkpt>
      <trkpt lat="48.36371" lon="0.09302">
        <ele>154</ele>
        <time>2013-06-07T11:29:56Z</time>
      </trkpt>
      <trkpt lat="48.36379" lon="0.0931">
        <ele>154</ele>
        <time>2013-06-07T11:30:05Z</time>
      </trkpt>
      <trkpt lat="48.36377" lon="0.09324">
        <ele>154</ele>
        <time>2013-06-07T11:30:16Z</time>
      </trkpt>
      <trkpt lat="48.36368" lon="0.09328">
        <ele>154</ele>
        <time>2013-06-07T11:30:24Z</time>
      </trkpt>
      <trkpt lat="48.36358" lon="0.0933">
        <ele>154</ele>
        <time>2013-06-07T11:30:33Z</time>
      </trkpt>
      <trkpt lat="48.36348" lon="0.09332">
        <ele>154</ele>
        <time>2013-06-07T11:30:42Z</time>
      </trkpt>
      <trkpt lat="48.36339" lon="0.09332">
        <ele>154</ele>
        <time>2013-06-07T11:30:51Z</time>
      </trkpt>
      <trkpt lat="48.36329" lon="0.09329">
        <ele>154</ele>
        <time>2013-06-07T11:31:00Z</time>
      </trkpt>
      <trkpt lat="48.36319" lon="0.09328">
        <ele>154</ele>
        <time>2013-06-07T11:31:09Z</time>
      </trkpt>
      <trkpt lat="48.3631" lon="0.09323">
        <ele>149</ele>
        <time>2013-06-07T11:31:20Z</time>
      </trkpt>
      <trkpt lat="48.36299" lon="0.09324">
        <ele>149</ele>
        <time>2013-06-07T11:31:28Z</time>
      </trkpt>
      <trkpt lat="48.36289" lon="0.09323">
        <ele>149</ele>
        <time>2013-06-07T11:31:37Z</time>
      </trkpt>
      <trkpt lat="48.3628" lon="0.09324">
        <ele>156</ele>
        <time>2013-06-07T11:31:46Z</time>
      </trkpt>
      <trkpt lat="48.3627" lon="0.09325">
        <ele>156</ele>
        <time>2013-06-07T11:31:53Z</time>
      </trkpt>
      <trkpt lat="48.3626" lon="0.09326">
        <ele>156</ele>
        <time>2013-06-07T11:32:01Z</time>
      </trkpt>
      <trkpt lat="48.36251" lon="0.09329">
        <ele>156</ele>
        <time>2013-06-07T11:32:09Z</time>
      </trkpt>
      <trkpt lat="48.36241" lon="0.09329">
        <ele>156</ele>
        <time>2013-06-07T11:32:18Z</time>
      </trkpt>
      <trkpt lat="48.36232" lon="0.09333">
        <ele>156</ele>
        <time>2013-06-07T11:32:26Z</time>
      </trkpt>
      <trkpt lat="48.36221" lon="0.09336">
        <ele>156</ele>
        <time>2013-06-07T11:32:35Z</time>
      </trkpt>
      <trkpt lat="48.36211" lon="0.0934">
        <ele>156</ele>
        <time>2013-06-07T11:32:45Z</time>
      </trkpt>
      <trkpt lat="48.36201" lon="0.09342">
        <ele>156</ele>
        <time>2013-06-07T11:32:53Z</time>
      </trkpt>
      <trkpt lat="48.36192" lon="0.09343">
        <ele>156</ele>
        <time>2013-06-07T11:33:01Z</time>
      </trkpt>
      <trkpt lat="48.36182" lon="0.09345">
        <ele>156</ele>
        <time>2013-06-07T11:33:10Z</time>
      </trkpt>
      <trkpt lat="48.36172" lon="0.09345">
        <ele>151</ele>
        <time>2013-06-07T11:33:19Z</time>
      </trkpt>
      <trkpt lat="48.36163" lon="0.09344">
        <ele>151</ele>
        <time>2013-06-07T11:33:28Z</time>
      </trkpt>
      <trkpt lat="48.36153" lon="0.09343">
        <ele>151</ele>
        <time>2013-06-07T11:33:35Z</time>
      </trkpt>
      <trkpt lat="48.36144" lon="0.09343">
        <ele>151</ele>
        <time>2013-06-07T11:33:42Z</time>
      </trkpt>
      <trkpt lat="48.36134" lon="0.09343">
        <ele>151</ele>
        <time>2013-06-07T11:33:51Z</time>
      </trkpt>
      <trkpt lat="48.36125" lon="0.09343">
        <ele>151</ele>
        <time>2013-06-07T11:34:00Z</time>
      </trkpt>
      <trkpt lat="48.36115" lon="0.09343">
        <ele>151</ele>
        <time>2013-06-07T11:34:08Z</time>
      </trkpt>
      <trkpt lat="48.36104" lon="0.09342">
        <ele>151</ele>
        <time>2013-06-07T11:34:17Z</time>
      </trkpt>
      <trkpt lat="48.36094" lon="0.09343">
        <ele>151</ele>
        <time>2013-06-07T11:34:26Z</time>
      </trkpt>
      <trkpt lat="48.36084" lon="0.09344">
        <ele>151</ele>
        <time>2013-06-07T11:34:34Z</time>
      </trkpt>
      <trkpt lat="48.36074" lon="0.09347">
        <ele>151</ele>
        <time>2013-06-07T11:34:42Z</time>
      </trkpt>
      <trkpt lat="48.36064" lon="0.09349">
        <ele>151</ele>
        <time>2013-06-07T11:34:51Z</time>
      </trkpt>
      <trkpt lat="48.36054" lon="0.09349">
        <ele>151</ele>
        <time>2013-06-07T11:35:00Z</time>
      </trkpt>
      <trkpt lat="48.36044" lon="0.0935">
        <ele>151</ele>
        <time>2013-06-07T11:35:09Z</time>
      </trkpt>
      <trkpt lat="48.36035" lon="0.09352">
        <ele>151</ele>
        <time>2013-06-07T11:35:18Z</time>
      </trkpt>
      <trkpt lat="48.36024" lon="0.09353">
        <ele>151</ele>
        <time>2013-06-07T11:35:26Z</time>
      </trkpt>
      <trkpt lat="48.36014" lon="0.09357">
        <ele>151</ele>
        <time>2013-06-07T11:35:34Z</time>
      </trkpt>
      <trkpt lat="48.36005" lon="0.09363">
        <ele>151</ele>
        <time>2013-06-07T11:35:42Z</time>
      </trkpt>
      <trkpt lat="48.35997" lon="0.09369">
        <ele>151</ele>
        <time>2013-06-07T11:35:50Z</time>
      </trkpt>
      <trkpt lat="48.35989" lon="0.09378">
        <ele>151</ele>
        <time>2013-06-07T11:35:59Z</time>
      </trkpt>
      <trkpt lat="48.3598" lon="0.09381">
        <ele>151</ele>
        <time>2013-06-07T11:36:07Z</time>
      </trkpt>
      <trkpt lat="48.35971" lon="0.09387">
        <ele>151</ele>
        <time>2013-06-07T11:36:15Z</time>
      </trkpt>
      <trkpt lat="48.35961" lon="0.09394">
        <ele>151</ele>
        <time>2013-06-07T11:36:25Z</time>
      </trkpt>
      <trkpt lat="48.35952" lon="0.09402">
        <ele>151</ele>
        <time>2013-06-07T11:36:35Z</time>
      </trkpt>
      <trkpt lat="48.35944" lon="0.09409">
        <ele>151</ele>
        <time>2013-06-07T11:36:43Z</time>
      </trkpt>
      <trkpt lat="48.35935" lon="0.09414">
        <ele>151</ele>
        <time>2013-06-07T11:36:51Z</time>
      </trkpt>
      <trkpt lat="48.35926" lon="0.09422">
        <ele>151</ele>
        <time>2013-06-07T11:37:00Z</time>
      </trkpt>
      <trkpt lat="48.35917" lon="0.09427">
        <ele>151</ele>
        <time>2013-06-07T11:37:28Z</time>
      </trkpt>
      <trkpt lat="48.35907" lon="0.09433">
        <ele>151</ele>
        <time>2013-06-07T11:37:37Z</time>
      </trkpt>
      <trkpt lat="48.35899" lon="0.0944">
        <ele>151</ele>
        <time>2013-06-07T11:37:47Z</time>
      </trkpt>
      <trkpt lat="48.3589" lon="0.09445">
        <ele>151</ele>
        <time>2013-06-07T11:37:55Z</time>
      </trkpt>
      <trkpt lat="48.35881" lon="0.09452">
        <ele>151</ele>
        <time>2013-06-07T11:38:03Z</time>
      </trkpt>
      <trkpt lat="48.35873" lon="0.0946">
        <ele>151</ele>
        <time>2013-06-07T11:38:11Z</time>
      </trkpt>
      <trkpt lat="48.35865" lon="0.09469">
        <ele>151</ele>
        <time>2013-06-07T11:38:20Z</time>
      </trkpt>
      <trkpt lat="48.35858" lon="0.09478">
        <ele>151</ele>
        <time>2013-06-07T11:38:29Z</time>
      </trkpt>
      <trkpt lat="48.35849" lon="0.09487">
        <ele>151</ele>
        <time>2013-06-07T11:38:38Z</time>
      </trkpt>
      <trkpt lat="48.3584" lon="0.09493">
        <ele>151</ele>
        <time>2013-06-07T11:38:54Z</time>
      </trkpt>
      <trkpt lat="48.35831" lon="0.09498">
        <ele>151</ele>
        <time>2013-06-07T11:39:05Z</time>
      </trkpt>
      <trkpt lat="48.35822" lon="0.09503">
        <ele>151</ele>
        <time>2013-06-07T11:39:13Z</time>
      </trkpt>
      <trkpt lat="48.35811" lon="0.0951">
        <ele>151</ele>
        <time>2013-06-07T11:39:22Z</time>
      </trkpt>
      <trkpt lat="48.35802" lon="0.09515">
        <ele>151</ele>
        <time>2013-06-07T11:39:30Z</time>
      </trkpt>
      <trkpt lat="48.35793" lon="0.09522">
        <ele>151</ele>
        <time>2013-06-07T11:39:37Z</time>
      </trkpt>
      <trkpt lat="48.35784" lon="0.09526">
        <ele>151</ele>
        <time>2013-06-07T11:39:45Z</time>
      </trkpt>
      <trkpt lat="48.35776" lon="0.09529">
        <ele>151</ele>
        <time>2013-06-07T11:39:54Z</time>
      </trkpt>
      <trkpt lat="48.35766" lon="0.09535">
        <ele>151</ele>
        <time>2013-06-07T11:40:03Z</time>
      </trkpt>
      <trkpt lat="48.35756" lon="0.09538">
        <ele>151</ele>
        <time>2013-06-07T11:40:12Z</time>
      </trkpt>
      <trkpt lat="48.35747" lon="0.09541">
        <ele>151</ele>
        <time>2013-06-07T11:40:20Z</time>
      </trkpt>
      <trkpt lat="48.35737" lon="0.09542">
        <ele>151</ele>
        <time>2013-06-07T11:40:29Z</time>
      </trkpt>
      <trkpt lat="48.35727" lon="0.09543">
        <ele>151</ele>
        <time>2013-06-07T11:40:38Z</time>
      </trkpt>
      <trkpt lat="48.35717" lon="0.09542">
        <ele>151</ele>
        <time>2013-06-07T11:40:47Z</time>
      </trkpt>
      <trkpt lat="48.35707" lon="0.09541">
        <ele>151</ele>
        <time>2013-06-07T11:40:55Z</time>
      </trkpt>
      <trkpt lat="48.35697" lon="0.09541">
        <ele>151</ele>
        <time>2013-06-07T11:41:04Z</time>
      </trkpt>
      <trkpt lat="48.35687" lon="0.0954">
        <ele>151</ele>
        <time>2013-06-07T11:41:13Z</time>
      </trkpt>
      <trkpt lat="48.35677" lon="0.09537">
        <ele>151</ele>
        <time>2013-06-07T11:41:21Z</time>
      </trkpt>
      <trkpt lat="48.35668" lon="0.09535">
        <ele>151</ele>
        <time>2013-06-07T11:41:29Z</time>
      </trkpt>
      <trkpt lat="48.35658" lon="0.09533">
        <ele>151</ele>
        <time>2013-06-07T11:41:38Z</time>
      </trkpt>
      <trkpt lat="48.35647" lon="0.0953">
        <ele>151</ele>
        <time>2013-06-07T11:41:47Z</time>
      </trkpt>
      <trkpt lat="48.35637" lon="0.09528">
        <ele>151</ele>
        <time>2013-06-07T11:41:55Z</time>
      </trkpt>
      <trkpt lat="48.35628" lon="0.09528">
        <ele>151</ele>
        <time>2013-06-07T11:42:04Z</time>
      </trkpt>
      <trkpt lat="48.35618" lon="0.09528">
        <ele>151</ele>
        <time>2013-06-07T11:42:12Z</time>
      </trkpt>
      <trkpt lat="48.35608" lon="0.09528">
        <ele>151</ele>
        <time>2013-06-07T11:42:20Z</time>
      </trkpt>
      <trkpt lat="48.35598" lon="0.09528">
        <ele>151</ele>
        <time>2013-06-07T11:42:29Z</time>
      </trkpt>
      <trkpt lat="48.35588" lon="0.09527">
        <ele>151</ele>
        <time>2013-06-07T11:42:38Z</time>
      </trkpt>
      <trkpt lat="48.35579" lon="0.09528">
        <ele>151</ele>
        <time>2013-06-07T11:42:46Z</time>
      </trkpt>
      <trkpt lat="48.35568" lon="0.09528">
        <ele>151</ele>
        <time>2013-06-07T11:42:55Z</time>
      </trkpt>
      <trkpt lat="48.35559" lon="0.09527">
        <ele>151</ele>
        <time>2013-06-07T11:43:03Z</time>
      </trkpt>
      <trkpt lat="48.35549" lon="0.09527">
        <ele>151</ele>
        <time>2013-06-07T11:43:12Z</time>
      </trkpt>
      <trkpt lat="48.35538" lon="0.09528">
        <ele>151</ele>
        <time>2013-06-07T11:43:21Z</time>
      </trkpt>
      <trkpt lat="48.35529" lon="0.09528">
        <ele>151</ele>
        <time>2013-06-07T11:43:29Z</time>
      </trkpt>
      <trkpt lat="48.35519" lon="0.0953">
        <ele>151</ele>
        <time>2013-06-07T11:43:37Z</time>
      </trkpt>
      <trkpt lat="48.35508" lon="0.09531">
        <ele>151</ele>
        <time>2013-06-07T11:43:45Z</time>
      </trkpt>
      <trkpt lat="48.35499" lon="0.09534">
        <ele>151</ele>
        <time>2013-06-07T11:43:54Z</time>
      </trkpt>
      <trkpt lat="48.3549" lon="0.09537">
        <ele>151</ele>
        <time>2013-06-07T11:44:02Z</time>
      </trkpt>
      <trkpt lat="48.3548" lon="0.0954">
        <ele>151</ele>
        <time>2013-06-07T11:44:11Z</time>
      </trkpt>
      <trkpt lat="48.35471" lon="0.09542">
        <ele>151</ele>
        <time>2013-06-07T11:44:19Z</time>
      </trkpt>
      <trkpt lat="48.35461" lon="0.09545">
        <ele>151</ele>
        <time>2013-06-07T11:44:28Z</time>
      </trkpt>
      <trkpt lat="48.3545" lon="0.09545">
        <ele>151</ele>
        <time>2013-06-07T11:44:36Z</time>
      </trkpt>
      <trkpt lat="48.3544" lon="0.09546">
        <ele>151</ele>
        <time>2013-06-07T11:44:45Z</time>
      </trkpt>
      <trkpt lat="48.3543" lon="0.09547">
        <ele>151</ele>
        <time>2013-06-07T11:44:53Z</time>
      </trkpt>
      <trkpt lat="48.3542" lon="0.09546">
        <ele>151</ele>
        <time>2013-06-07T11:45:01Z</time>
      </trkpt>
      <trkpt lat="48.3541" lon="0.09548">
        <ele>151</ele>
        <time>2013-06-07T11:45:09Z</time>
      </trkpt>
      <trkpt lat="48.354" lon="0.09549">
        <ele>151</ele>
        <time>2013-06-07T11:45:18Z</time>
      </trkpt>
      <trkpt lat="48.3539" lon="0.09551">
        <ele>151</ele>
        <time>2013-06-07T11:45:27Z</time>
      </trkpt>
      <trkpt lat="48.3538" lon="0.09552">
        <ele>151</ele>
        <time>2013-06-07T11:45:35Z</time>
      </trkpt>
      <trkpt lat="48.3537" lon="0.09552">
        <ele>146</ele>
        <time>2013-06-07T11:45:43Z</time>
      </trkpt>
      <trkpt lat="48.35361" lon="0.09554">
        <ele>146</ele>
        <time>2013-06-07T11:45:52Z</time>
      </trkpt>
      <trkpt lat="48.35351" lon="0.09555">
        <ele>146</ele>
        <time>2013-06-07T11:46:01Z</time>
      </trkpt>
      <trkpt lat="48.35341" lon="0.09556">
        <ele>146</ele>
        <time>2013-06-07T11:46:10Z</time>
      </trkpt>
      <trkpt lat="48.35331" lon="0.09556">
        <ele>146</ele>
        <time>2013-06-07T11:46:18Z</time>
      </trkpt>
      <trkpt lat="48.35322" lon="0.09556">
        <ele>146</ele>
        <time>2013-06-07T11:46:26Z</time>
      </trkpt>
      <trkpt lat="48.35312" lon="0.09556">
        <ele>146</ele>
        <time>2013-06-07T11:46:35Z</time>
      </trkpt>
      <trkpt lat="48.35302" lon="0.09557">
        <ele>146</ele>
        <time>2013-06-07T11:46:44Z</time>
      </trkpt>
      <trkpt lat="48.35292" lon="0.09557">
        <ele>140</ele>
        <time>2013-06-07T11:46:52Z</time>
      </trkpt>
      <trkpt lat="48.35282" lon="0.09556">
        <ele>140</ele>
        <time>2013-06-07T11:47:01Z</time>
      </trkpt>
      <trkpt lat="48.35272" lon="0.09556">
        <ele>140</ele>
        <time>2013-06-07T11:47:09Z</time>
      </trkpt>
      <trkpt lat="48.35262" lon="0.09556">
        <ele>140</ele>
        <time>2013-06-07T11:47:17Z</time>
      </trkpt>
      <trkpt lat="48.35252" lon="0.09555">
        <ele>140</ele>
        <time>2013-06-07T11:47:25Z</time>
      </trkpt>
      <trkpt lat="48.35243" lon="0.09556">
        <ele>140</ele>
        <time>2013-06-07T11:47:33Z</time>
      </trkpt>
      <trkpt lat="48.35232" lon="0.09558">
        <ele>140</ele>
        <time>2013-06-07T11:47:42Z</time>
      </trkpt>
      <trkpt lat="48.35222" lon="0.0956">
        <ele>140</ele>
        <time>2013-06-07T11:47:51Z</time>
      </trkpt>
      <trkpt lat="48.35213" lon="0.09563">
        <ele>140</ele>
        <time>2013-06-07T11:48:00Z</time>
      </trkpt>
      <trkpt lat="48.35204" lon="0.09567">
        <ele>140</ele>
        <time>2013-06-07T11:48:08Z</time>
      </trkpt>
      <trkpt lat="48.35195" lon="0.09571">
        <ele>140</ele>
        <time>2013-06-07T11:48:16Z</time>
      </trkpt>
      <trkpt lat="48.35185" lon="0.09574">
        <ele>140</ele>
        <time>2013-06-07T11:48:26Z</time>
      </trkpt>
      <trkpt lat="48.35176" lon="0.09578">
        <ele>140</ele>
        <time>2013-06-07T11:48:33Z</time>
      </trkpt>
      <trkpt lat="48.35167" lon="0.09582">
        <ele>140</ele>
        <time>2013-06-07T11:48:42Z</time>
      </trkpt>
      <trkpt lat="48.35158" lon="0.09588">
        <ele>140</ele>
        <time>2013-06-07T11:48:50Z</time>
      </trkpt>
      <trkpt lat="48.35148" lon="0.0959">
        <ele>140</ele>
        <time>2013-06-07T11:48:58Z</time>
      </trkpt>
      <trkpt lat="48.35139" lon="0.09594">
        <ele>140</ele>
        <time>2013-06-07T11:49:06Z</time>
      </trkpt>
      <trkpt lat="48.3513" lon="0.09598">
        <ele>140</ele>
        <time>2013-06-07T11:49:13Z</time>
      </trkpt>
      <trkpt lat="48.35121" lon="0.09602">
        <ele>140</ele>
        <time>2013-06-07T11:49:20Z</time>
      </trkpt>
      <trkpt lat="48.35111" lon="0.09605">
        <ele>140</ele>
        <time>2013-06-07T11:49:28Z</time>
      </trkpt>
      <trkpt lat="48.35102" lon="0.09609">
        <ele>140</ele>
        <time>2013-06-07T11:49:37Z</time>
      </trkpt>
      <trkpt lat="48.35092" lon="0.09611">
        <ele>140</ele>
        <time>2013-06-07T11:49:46Z</time>
      </trkpt>
      <trkpt lat="48.35083" lon="0.09613">
        <ele>140</ele>
        <time>2013-06-07T11:49:54Z</time>
      </trkpt>
      <trkpt lat="48.35074" lon="0.09609">
        <ele>140</ele>
        <time>2013-06-07T11:50:03Z</time>
      </trkpt>
      <trkpt lat="48.35067" lon="0.09599">
        <ele>140</ele>
        <time>2013-06-07T11:50:15Z</time>
      </trkpt>
      <trkpt lat="48.35061" lon="0.09588">
        <ele>140</ele>
        <time>2013-06-07T11:50:23Z</time>
      </trkpt>
      <trkpt lat="48.35058" lon="0.09574">
        <ele>140</ele>
        <time>2013-06-07T11:50:31Z</time>
      </trkpt>
      <trkpt lat="48.35055" lon="0.09561">
        <ele>135</ele>
        <time>2013-06-07T11:50:40Z</time>
      </trkpt>
      <trkpt lat="48.35053" lon="0.09546">
        <ele>135</ele>
        <time>2013-06-07T11:50:49Z</time>
      </trkpt>
      <trkpt lat="48.35052" lon="0.0953">
        <ele>141</ele>
        <time>2013-06-07T11:52:21Z</time>
      </trkpt>
      <trkpt lat="48.3505" lon="0.09515">
        <ele>141</ele>
        <time>2013-06-07T11:52:30Z</time>
      </trkpt>
      <trkpt lat="48.35047" lon="0.09501">
        <ele>141</ele>
        <time>2013-06-07T11:52:39Z</time>
      </trkpt>
      <trkpt lat="48.3504" lon="0.09489">
        <ele>141</ele>
        <time>2013-06-07T11:52:48Z</time>
      </trkpt>
      <trkpt lat="48.35032" lon="0.0948">
        <ele>141</ele>
        <time>2013-06-07T11:52:57Z</time>
      </trkpt>
      <trkpt lat="48.35024" lon="0.09473">
        <ele>141</ele>
        <time>2013-06-07T11:53:06Z</time>
      </trkpt>
      <trkpt lat="48.35015" lon="0.09468">
        <ele>141</ele>
        <time>2013-06-07T11:53:32Z</time>
      </trkpt>
      <trkpt lat="48.35009" lon="0.09458">
        <ele>141</ele>
        <time>2013-06-07T11:54:30Z</time>
      </trkpt>
      <trkpt lat="48.35008" lon="0.09443">
        <ele>141</ele>
        <time>2013-06-07T11:54:39Z</time>
      </trkpt>
      <trkpt lat="48.35008" lon="0.09429">
        <ele>141</ele>
        <time>2013-06-07T11:54:47Z</time>
      </trkpt>
      <trkpt lat="48.35007" lon="0.09414">
        <ele>141</ele>
        <time>2013-06-07T11:54:55Z</time>
      </trkpt>
      <trkpt lat="48.35007" lon="0.094">
        <ele>141</ele>
        <time>2013-06-07T11:55:03Z</time>
      </trkpt>
      <trkpt lat="48.35007" lon="0.09386">
        <ele>141</ele>
        <time>2013-06-07T11:55:11Z</time>
      </trkpt>
      <trkpt lat="48.35007" lon="0.0937">
        <ele>141</ele>
        <time>2013-06-07T11:55:20Z</time>
      </trkpt>
      <trkpt lat="48.35007" lon="0.09356">
        <ele>141</ele>
        <time>2013-06-07T11:55:29Z</time>
      </trkpt>
      <trkpt lat="48.35007" lon="0.09341">
        <ele>141</ele>
        <time>2013-06-07T11:55:38Z</time>
      </trkpt>
      <trkpt lat="48.35006" lon="0.09325">
        <ele>135</ele>
        <time>2013-06-07T11:55:48Z</time>
      </trkpt>
      <trkpt lat="48.35006" lon="0.0931">
        <ele>135</ele>
        <time>2013-06-07T11:55:56Z</time>
      </trkpt>
      <trkpt lat="48.35005" lon="0.09295">
        <ele>135</ele>
        <time>2013-06-07T11:56:05Z</time>
      </trkpt>
      <trkpt lat="48.35004" lon="0.0928">
        <ele>135</ele>
        <time>2013-06-07T11:56:14Z</time>
      </trkpt>
      <trkpt lat="48.35004" lon="0.09265">
        <ele>135</ele>
        <time>2013-06-07T11:56:24Z</time>
      </trkpt>
      <trkpt lat="48.35002" lon="0.0925">
        <ele>135</ele>
        <time>2013-06-07T11:56:32Z</time>
      </trkpt>
      <trkpt lat="48.35" lon="0.09236">
        <ele>135</ele>
        <time>2013-06-07T11:56:41Z</time>
      </trkpt>
      <trkpt lat="48.34997" lon="0.09221">
        <ele>135</ele>
        <time>2013-06-07T11:56:51Z</time>
      </trkpt>
      <trkpt lat="48.34994" lon="0.09208">
        <ele>135</ele>
        <time>2013-06-07T11:57:00Z</time>
      </trkpt>
      <trkpt lat="48.34994" lon="0.09193">
        <ele>135</ele>
        <time>2013-06-07T11:57:08Z</time>
      </trkpt>
      <trkpt lat="48.34992" lon="0.09177">
        <ele>135</ele>
        <time>2013-06-07T11:57:15Z</time>
      </trkpt>
      <trkpt lat="48.34989" lon="0.09163">
        <ele>141</ele>
        <time>2013-06-07T11:57:20Z</time>
      </trkpt>
      <trkpt lat="48.34985" lon="0.0915">
        <ele>141</ele>
        <time>2013-06-07T11:57:27Z</time>
      </trkpt>
      <trkpt lat="48.34977" lon="0.09141">
        <ele>141</ele>
        <time>2013-06-07T11:57:41Z</time>
      </trkpt>
      <trkpt lat="48.34967" lon="0.09141">
        <ele>141</ele>
        <time>2013-06-07T11:58:00Z</time>
      </trkpt>
      <trkpt lat="48.34967" lon="0.09127">
        <ele>132</ele>
        <time>2013-06-07T11:58:14Z</time>
      </trkpt>
      <trkpt lat="48.34971" lon="0.09113">
        <ele>132</ele>
        <time>2013-06-07T11:58:23Z</time>
      </trkpt>
      <trkpt lat="48.3497" lon="0.09098">
        <ele>132</ele>
        <time>2013-06-07T11:58:31Z</time>
      </trkpt>
      <trkpt lat="48.3497" lon="0.09084">
        <ele>132</ele>
        <time>2013-06-07T11:58:40Z</time>
      </trkpt>
      <trkpt lat="48.34967" lon="0.0907">
        <ele>132</ele>
        <time>2013-06-07T11:58:47Z</time>
      </trkpt>
      <trkpt lat="48.34965" lon="0.09054">
        <ele>132</ele>
        <time>2013-06-07T11:58:56Z</time>
      </trkpt>
      <trkpt lat="48.34963" lon="0.0904">
        <ele>132</ele>
        <time>2013-06-07T11:59:03Z</time>
      </trkpt>
      <trkpt lat="48.34961" lon="0.09025">
        <ele>132</ele>
        <time>2013-06-07T11:59:11Z</time>
      </trkpt>
      <trkpt lat="48.34958" lon="0.0901">
        <ele>138</ele>
        <time>2013-06-07T11:59:19Z</time>
      </trkpt>
      <trkpt lat="48.34956" lon="0.08996">
        <ele>138</ele>
        <time>2013-06-07T11:59:29Z</time>
      </trkpt>
      <trkpt lat="48.34952" lon="0.08981">
        <ele>138</ele>
        <time>2013-06-07T11:59:38Z</time>
      </trkpt>
      <trkpt lat="48.34949" lon="0.08968">
        <ele>132</ele>
        <time>2013-06-07T11:59:46Z</time>
      </trkpt>
      <trkpt lat="48.34946" lon="0.08954">
        <ele>132</ele>
        <time>2013-06-07T11:59:56Z</time>
      </trkpt>
      <trkpt lat="48.34943" lon="0.0894">
        <ele>123</ele>
        <time>2013-06-07T12:00:05Z</time>
      </trkpt>
      <trkpt lat="48.3494" lon="0.08927">
        <ele>123</ele>
        <time>2013-06-07T12:00:15Z</time>
      </trkpt>
      <trkpt lat="48.34937" lon="0.0891">
        <ele>123</ele>
        <time>2013-06-07T12:00:24Z</time>
      </trkpt>
      <trkpt lat="48.34934" lon="0.08896">
        <ele>123</ele>
        <time>2013-06-07T12:00:32Z</time>
      </trkpt>
      <trkpt lat="48.3493" lon="0.08883">
        <ele>123</ele>
        <time>2013-06-07T12:00:45Z</time>
      </trkpt>
      <trkpt lat="48.34927" lon="0.0887">
        <ele>123</ele>
        <time>2013-06-07T12:00:55Z</time>
      </trkpt>
      <trkpt lat="48.34924" lon="0.08857">
        <ele>123</ele>
        <time>2013-06-07T12:01:03Z</time>
      </trkpt>
      <trkpt lat="48.34918" lon="0.08846">
        <ele>123</ele>
        <time>2013-06-07T12:01:10Z</time>
      </trkpt>
      <trkpt lat="48.34914" lon="0.08832">
        <ele>118</ele>
        <time>2013-06-07T12:01:21Z</time>
      </trkpt>
      <trkpt lat="48.34909" lon="0.0882">
        <ele>118</ele>
        <time>2013-06-07T12:01:27Z</time>
      </trkpt>
      <trkpt lat="48.34904" lon="0.08807">
        <ele>118</ele>
        <time>2013-06-07T12:01:36Z</time>
      </trkpt>
      <trkpt lat="48.349" lon="0.08795">
        <ele>118</ele>
        <time>2013-06-07T12:01:42Z</time>
      </trkpt>
      <trkpt lat="48.34897" lon="0.0878">
        <ele>123</ele>
        <time>2013-06-07T12:01:48Z</time>
      </trkpt>
      <trkpt lat="48.34893" lon="0.08766">
        <ele>129</ele>
        <time>2013-06-07T12:01:52Z</time>
      </trkpt>
      <trkpt lat="48.34889" lon="0.08751">
        <ele>129</ele>
        <time>2013-06-07T12:01:59Z</time>
      </trkpt>
      <trkpt lat="48.34885" lon="0.08736">
        <ele>129</ele>
        <time>2013-06-07T12:02:08Z</time>
      </trkpt>
      <trkpt lat="48.3488" lon="0.08724">
        <ele>129</ele>
        <time>2013-06-07T12:02:17Z</time>
      </trkpt>
      <trkpt lat="48.34876" lon="0.08708">
        <ele>136</ele>
        <time>2013-06-07T12:02:23Z</time>
      </trkpt>
      <trkpt lat="48.34873" lon="0.08695">
        <ele>136</ele>
        <time>2013-06-07T12:02:30Z</time>
      </trkpt>
      <trkpt lat="48.34872" lon="0.0868">
        <ele>136</ele>
        <time>2013-06-07T12:02:38Z</time>
      </trkpt>
      <trkpt lat="48.34868" lon="0.08667">
        <ele>136</ele>
        <time>2013-06-07T12:02:52Z</time>
      </trkpt>
      <trkpt lat="48.34868" lon="0.08653">
        <ele>136</ele>
        <time>2013-06-07T12:04:10Z</time>
      </trkpt>
      <trkpt lat="48.34873" lon="0.0864">
        <ele>136</ele>
        <time>2013-06-07T12:04:24Z</time>
      </trkpt>
      <trkpt lat="48.34874" lon="0.08654">
        <ele>148</ele>
        <time>2013-06-07T12:04:42Z</time>
      </trkpt>
      <trkpt lat="48.3488" lon="0.08666">
        <ele>161</ele>
        <time>2013-06-07T12:05:11Z</time>
      </trkpt>
      <trkpt lat="48.34887" lon="0.08656">
        <ele>161</ele>
        <time>2013-06-07T12:06:49Z</time>
      </trkpt>
      <trkpt lat="48.34879" lon="0.08663">
        <ele>173</ele>
        <time>2013-06-07T12:07:17Z</time>
      </trkpt>
      <trkpt lat="48.34885" lon="0.08651">
        <ele>157</ele>
        <time>2013-06-07T12:07:49Z</time>
      </trkpt>
      <trkpt lat="48.34891" lon="0.0864">
        <ele>136</ele>
        <time>2013-06-07T12:08:11Z</time>
      </trkpt>
      <trkpt lat="48.34881" lon="0.08639">
        <ele>136</ele>
        <time>2013-06-07T12:08:42Z</time>
      </trkpt>
      <trkpt lat="48.34871" lon="0.0864">
        <ele>136</ele>
        <time>2013-06-07T12:09:23Z</time>
      </trkpt>
      <trkpt lat="48.34872" lon="0.08655">
        <ele>141</ele>
        <time>2013-06-07T12:09:48Z</time>
      </trkpt>
      <trkpt lat="48.34864" lon="0.08667">
        <ele>149</ele>
        <time>2013-06-07T12:09:59Z</time>
      </trkpt>
      <trkpt lat="48.34857" lon="0.08658">
        <ele>149</ele>
        <time>2013-06-07T12:10:11Z</time>
      </trkpt>
      <trkpt lat="48.34852" lon="0.08645">
        <ele>138</ele>
        <time>2013-06-07T12:10:23Z</time>
      </trkpt>
      <trkpt lat="48.34843" lon="0.08638">
        <ele>133</ele>
        <time>2013-06-07T12:10:34Z</time>
      </trkpt>
      <trkpt lat="48.34839" lon="0.08626">
        <ele>133</ele>
        <time>2013-06-07T12:10:41Z</time>
      </trkpt>
      <trkpt lat="48.34832" lon="0.08615">
        <ele>133</ele>
        <time>2013-06-07T12:10:50Z</time>
      </trkpt>
      <trkpt lat="48.34822" lon="0.08612">
        <ele>133</ele>
        <time>2013-06-07T12:11:03Z</time>
      </trkpt>
      <trkpt lat="48.3481" lon="0.08611">
        <ele>139</ele>
        <time>2013-06-07T12:11:08Z</time>
      </trkpt>
      <trkpt lat="48.34802" lon="0.08618">
        <ele>139</ele>
        <time>2013-06-07T12:11:17Z</time>
      </trkpt>
      <trkpt lat="48.34791" lon="0.08619">
        <ele>139</ele>
        <time>2013-06-07T12:11:26Z</time>
      </trkpt>
      <trkpt lat="48.34782" lon="0.08623">
        <ele>139</ele>
        <time>2013-06-07T12:11:35Z</time>
      </trkpt>
      <trkpt lat="48.34773" lon="0.08626">
        <ele>133</ele>
        <time>2013-06-07T12:11:45Z</time>
      </trkpt>
      <trkpt lat="48.34762" lon="0.08627">
        <ele>133</ele>
        <time>2013-06-07T12:11:55Z</time>
      </trkpt>
      <trkpt lat="48.34752" lon="0.08627">
        <ele>133</ele>
        <time>2013-06-07T12:12:04Z</time>
      </trkpt>
      <trkpt lat="48.34743" lon="0.08632">
        <ele>127</ele>
        <time>2013-06-07T12:12:14Z</time>
      </trkpt>
      <trkpt lat="48.34733" lon="0.08633">
        <ele>127</ele>
        <time>2013-06-07T12:12:23Z</time>
      </trkpt>
      <trkpt lat="48.34724" lon="0.08633">
        <ele>127</ele>
        <time>2013-06-07T12:12:30Z</time>
      </trkpt>
      <trkpt lat="48.34714" lon="0.08634">
        <ele>127</ele>
        <time>2013-06-07T12:12:42Z</time>
      </trkpt>
      <trkpt lat="48.34704" lon="0.08635">
        <ele>127</ele>
        <time>2013-06-07T12:12:51Z</time>
      </trkpt>
      <trkpt lat="48.34694" lon="0.08636">
        <ele>127</ele>
        <time>2013-06-07T12:12:58Z</time>
      </trkpt>
      <trkpt lat="48.34685" lon="0.08635">
        <ele>127</ele>
        <time>2013-06-07T12:13:05Z</time>
      </trkpt>
      <trkpt lat="48.34675" lon="0.08633">
        <ele>127</ele>
        <time>2013-06-07T12:13:14Z</time>
      </trkpt>
      <trkpt lat="48.34665" lon="0.08631">
        <ele>127</ele>
        <time>2013-06-07T12:13:23Z</time>
      </trkpt>
      <trkpt lat="48.34655" lon="0.08631">
        <ele>127</ele>
        <time>2013-06-07T12:13:29Z</time>
      </trkpt>
      <trkpt lat="48.34646" lon="0.08632">
        <ele>127</ele>
        <time>2013-06-07T12:13:39Z</time>
      </trkpt>
      <trkpt lat="48.34635" lon="0.08627">
        <ele>127</ele>
        <time>2013-06-07T12:13:46Z</time>
      </trkpt>
      <trkpt lat="48.34625" lon="0.08625">
        <ele>127</ele>
        <time>2013-06-07T12:13:54Z</time>
      </trkpt>
      <trkpt lat="48.34615" lon="0.08625">
        <ele>127</ele>
        <time>2013-06-07T12:14:04Z</time>
      </trkpt>
      <trkpt lat="48.34605" lon="0.08627">
        <ele>127</ele>
        <time>2013-06-07T12:14:15Z</time>
      </trkpt>
      <trkpt lat="48.34595" lon="0.08629">
        <ele>127</ele>
        <time>2013-06-07T12:14:27Z</time>
      </trkpt>
      <trkpt lat="48.34586" lon="0.08636">
        <ele>127</ele>
        <time>2013-06-07T12:14:51Z</time>
      </trkpt>
      <trkpt lat="48.34579" lon="0.08645">
        <ele>127</ele>
        <time>2013-06-07T12:15:01Z</time>
      </trkpt>
      <trkpt lat="48.3457" lon="0.08649">
        <ele>127</ele>
        <time>2013-06-07T12:16:05Z</time>
      </trkpt>
      <trkpt lat="48.34562" lon="0.08658">
        <ele>118</ele>
        <time>2013-06-07T12:16:17Z</time>
      </trkpt>
      <trkpt lat="48.34565" lon="0.08671">
        <ele>118</ele>
        <time>2013-06-07T12:16:39Z</time>
      </trkpt>
      <trkpt lat="48.3457" lon="0.08685">
        <ele>125</ele>
        <time>2013-06-07T12:16:48Z</time>
      </trkpt>
      <trkpt lat="48.34573" lon="0.08698">
        <ele>125</ele>
        <time>2013-06-07T12:17:06Z</time>
      </trkpt>
      <trkpt lat="48.34582" lon="0.08699">
        <ele>125</ele>
        <time>2013-06-07T12:21:40Z</time>
      </trkpt>
      <trkpt lat="48.34573" lon="0.08704">
        <ele>125</ele>
        <time>2013-06-07T12:21:51Z</time>
      </trkpt>
      <trkpt lat="48.34569" lon="0.08691">
        <ele>125</ele>
        <time>2013-06-07T12:22:14Z</time>
      </trkpt>
      <trkpt lat="48.34565" lon="0.08677">
        <ele>125</ele>
        <time>2013-06-07T12:22:30Z</time>
      </trkpt>
      <trkpt lat="48.34561" lon="0.08663">
        <ele>125</ele>
        <time>2013-06-07T12:22:42Z</time>
      </trkpt>
      <trkpt lat="48.34565" lon="0.0865">
        <ele>118</ele>
        <time>2013-06-07T12:24:33Z</time>
      </trkpt>
      <trkpt lat="48.34575" lon="0.08647">
        <ele>118</ele>
        <time>2013-06-07T12:25:03Z</time>
      </trkpt>
      <trkpt lat="48.34582" lon="0.08638">
        <ele>124</ele>
        <time>2013-06-07T12:25:14Z</time>
      </trkpt>
      <trkpt lat="48.34589" lon="0.08629">
        <ele>124</ele>
        <time>2013-06-07T12:25:27Z</time>
      </trkpt>
      <trkpt lat="48.34591" lon="0.08615">
        <ele>124</ele>
        <time>2013-06-07T12:25:37Z</time>
      </trkpt>
      <trkpt lat="48.34589" lon="0.08601">
        <ele>119</ele>
        <time>2013-06-07T12:25:47Z</time>
      </trkpt>
      <trkpt lat="48.34586" lon="0.08587">
        <ele>119</ele>
        <time>2013-06-07T12:25:56Z</time>
      </trkpt>
      <trkpt lat="48.34583" lon="0.08573">
        <ele>119</ele>
        <time>2013-06-07T12:26:04Z</time>
      </trkpt>
      <trkpt lat="48.3458" lon="0.08558">
        <ele>119</ele>
        <time>2013-06-07T12:26:13Z</time>
      </trkpt>
      <trkpt lat="48.34576" lon="0.08546">
        <ele>119</ele>
        <time>2013-06-07T12:26:21Z</time>
      </trkpt>
      <trkpt lat="48.34571" lon="0.08534">
        <ele>119</ele>
        <time>2013-06-07T12:26:29Z</time>
      </trkpt>
      <trkpt lat="48.34564" lon="0.08524">
        <ele>119</ele>
        <time>2013-06-07T12:26:38Z</time>
      </trkpt>
      <trkpt lat="48.34555" lon="0.08518">
        <ele>119</ele>
        <time>2013-06-07T12:26:46Z</time>
      </trkpt>
      <trkpt lat="48.34546" lon="0.08513">
        <ele>119</ele>
        <time>2013-06-07T12:26:55Z</time>
      </trkpt>
      <trkpt lat="48.34536" lon="0.0851">
        <ele>119</ele>
        <time>2013-06-07T12:27:02Z</time>
      </trkpt>
      <trkpt lat="48.34527" lon="0.08504">
        <ele>119</ele>
        <time>2013-06-07T12:27:10Z</time>
      </trkpt>
      <trkpt lat="48.34517" lon="0.08501">
        <ele>119</ele>
        <time>2013-06-07T12:27:19Z</time>
      </trkpt>
      <trkpt lat="48.34508" lon="0.08496">
        <ele>119</ele>
        <time>2013-06-07T12:27:26Z</time>
      </trkpt>
      <trkpt lat="48.34498" lon="0.08491">
        <ele>119</ele>
        <time>2013-06-07T12:27:34Z</time>
      </trkpt>
      <trkpt lat="48.34489" lon="0.08487">
        <ele>119</ele>
        <time>2013-06-07T12:27:42Z</time>
      </trkpt>
      <trkpt lat="48.3448" lon="0.08483">
        <ele>119</ele>
        <time>2013-06-07T12:27:50Z</time>
      </trkpt>
      <trkpt lat="48.34472" lon="0.08476">
        <ele>119</ele>
        <time>2013-06-07T12:27:58Z</time>
      </trkpt>
      <trkpt lat="48.34463" lon="0.08468">
        <ele>119</ele>
        <time>2013-06-07T12:28:06Z</time>
      </trkpt>
      <trkpt lat="48.34455" lon="0.08459">
        <ele>119</ele>
        <time>2013-06-07T12:28:14Z</time>
      </trkpt>
      <trkpt lat="48.34448" lon="0.08451">
        <ele>113</ele>
        <time>2013-06-07T12:28:21Z</time>
      </trkpt>
      <trkpt lat="48.34441" lon="0.08441">
        <ele>113</ele>
        <time>2013-06-07T12:28:29Z</time>
      </trkpt>
      <trkpt lat="48.34434" lon="0.08431">
        <ele>113</ele>
        <time>2013-06-07T12:28:36Z</time>
      </trkpt>
      <trkpt lat="48.34426" lon="0.08421">
        <ele>113</ele>
        <time>2013-06-07T12:28:44Z</time>
      </trkpt>
      <trkpt lat="48.34418" lon="0.08414">
        <ele>113</ele>
        <time>2013-06-07T12:28:52Z</time>
      </trkpt>
      <trkpt lat="48.34409" lon="0.08408">
        <ele>113</ele>
        <time>2013-06-07T12:29:00Z</time>
      </trkpt>
      <trkpt lat="48.344" lon="0.08403">
        <ele>113</ele>
        <time>2013-06-07T12:29:08Z</time>
      </trkpt>
      <trkpt lat="48.34391" lon="0.08399">
        <ele>113</ele>
        <time>2013-06-07T12:29:16Z</time>
      </trkpt>
      <trkpt lat="48.34381" lon="0.08397">
        <ele>119</ele>
        <time>2013-06-07T12:29:24Z</time>
      </trkpt>
      <trkpt lat="48.34371" lon="0.08394">
        <ele>119</ele>
        <time>2013-06-07T12:29:33Z</time>
      </trkpt>
      <trkpt lat="48.34361" lon="0.08391">
        <ele>119</ele>
        <time>2013-06-07T12:29:41Z</time>
      </trkpt>
      <trkpt lat="48.34351" lon="0.08388">
        <ele>119</ele>
        <time>2013-06-07T12:29:49Z</time>
      </trkpt>
      <trkpt lat="48.34341" lon="0.08385">
        <ele>119</ele>
        <time>2013-06-07T12:29:57Z</time>
      </trkpt>
      <trkpt lat="48.34332" lon="0.08383">
        <ele>119</ele>
        <time>2013-06-07T12:30:05Z</time>
      </trkpt>
      <trkpt lat="48.34322" lon="0.08382">
        <ele>119</ele>
        <time>2013-06-07T12:30:13Z</time>
      </trkpt>
      <trkpt lat="48.34311" lon="0.08384">
        <ele>119</ele>
        <time>2013-06-07T12:30:21Z</time>
      </trkpt>
      <trkpt lat="48.34301" lon="0.08387">
        <ele>119</ele>
        <time>2013-06-07T12:30:29Z</time>
      </trkpt>
      <trkpt lat="48.34292" lon="0.0839">
        <ele>119</ele>
        <time>2013-06-07T12:30:37Z</time>
      </trkpt>
      <trkpt lat="48.34283" lon="0.08397">
        <ele>113</ele>
        <time>2013-06-07T12:30:45Z</time>
      </trkpt>
      <trkpt lat="48.34273" lon="0.084">
        <ele>113</ele>
        <time>2013-06-07T12:30:53Z</time>
      </trkpt>
      <trkpt lat="48.34264" lon="0.08402">
        <ele>113</ele>
        <time>2013-06-07T12:31:01Z</time>
      </trkpt>
      <trkpt lat="48.34253" lon="0.08406">
        <ele>118</ele>
        <time>2013-06-07T12:31:09Z</time>
      </trkpt>
      <trkpt lat="48.34244" lon="0.08409">
        <ele>118</ele>
        <time>2013-06-07T12:31:17Z</time>
      </trkpt>
      <trkpt lat="48.34235" lon="0.08417">
        <ele>118</ele>
        <time>2013-06-07T12:31:26Z</time>
      </trkpt>
      <trkpt lat="48.34226" lon="0.08423">
        <ele>118</ele>
        <time>2013-06-07T12:31:34Z</time>
      </trkpt>
      <trkpt lat="48.34217" lon="0.08427">
        <ele>118</ele>
        <time>2013-06-07T12:31:42Z</time>
      </trkpt>
      <trkpt lat="48.34208" lon="0.08433">
        <ele>118</ele>
        <time>2013-06-07T12:31:50Z</time>
      </trkpt>
      <trkpt lat="48.34198" lon="0.08436">
        <ele>118</ele>
        <time>2013-06-07T12:31:58Z</time>
      </trkpt>
      <trkpt lat="48.34188" lon="0.08439">
        <ele>118</ele>
        <time>2013-06-07T12:32:07Z</time>
      </trkpt>
      <trkpt lat="48.34178" lon="0.08441">
        <ele>118</ele>
        <time>2013-06-07T12:32:15Z</time>
      </trkpt>
      <trkpt lat="48.34168" lon="0.08441">
        <ele>118</ele>
        <time>2013-06-07T12:32:23Z</time>
      </trkpt>
      <trkpt lat="48.34159" lon="0.08442">
        <ele>118</ele>
        <time>2013-06-07T12:32:32Z</time>
      </trkpt>
      <trkpt lat="48.34149" lon="0.08442">
        <ele>118</ele>
        <time>2013-06-07T12:32:41Z</time>
      </trkpt>
      <trkpt lat="48.3414" lon="0.08436">
        <ele>118</ele>
        <time>2013-06-07T12:32:50Z</time>
      </trkpt>
      <trkpt lat="48.34131" lon="0.0843">
        <ele>118</ele>
        <time>2013-06-07T12:32:59Z</time>
      </trkpt>
      <trkpt lat="48.34122" lon="0.08423">
        <ele>118</ele>
        <time>2013-06-07T12:33:07Z</time>
      </trkpt>
      <trkpt lat="48.34114" lon="0.08415">
        <ele>118</ele>
        <time>2013-06-07T12:33:14Z</time>
      </trkpt>
      <trkpt lat="48.34106" lon="0.08406">
        <ele>118</ele>
        <time>2013-06-07T12:33:22Z</time>
      </trkpt>
      <trkpt lat="48.34098" lon="0.08398">
        <ele>118</ele>
        <time>2013-06-07T12:33:30Z</time>
      </trkpt>
      <trkpt lat="48.34089" lon="0.08391">
        <ele>118</ele>
        <time>2013-06-07T12:33:40Z</time>
      </trkpt>
      <trkpt lat="48.34082" lon="0.08382">
        <ele>118</ele>
        <time>2013-06-07T12:33:48Z</time>
      </trkpt>
      <trkpt lat="48.34074" lon="0.08374">
        <ele>118</ele>
        <time>2013-06-07T12:33:56Z</time>
      </trkpt>
      <trkpt lat="48.34065" lon="0.08364">
        <ele>118</ele>
        <time>2013-06-07T12:34:06Z</time>
      </trkpt>
      <trkpt lat="48.34059" lon="0.08353">
        <ele>118</ele>
        <time>2013-06-07T12:35:00Z</time>
      </trkpt>
      <trkpt lat="48.34053" lon="0.08341">
        <ele>118</ele>
        <time>2013-06-07T12:35:09Z</time>
      </trkpt>
      <trkpt lat="48.34048" lon="0.08327">
        <ele>118</ele>
        <time>2013-06-07T12:35:19Z</time>
      </trkpt>
      <trkpt lat="48.34043" lon="0.08315">
        <ele>118</ele>
        <time>2013-06-07T12:35:27Z</time>
      </trkpt>
      <trkpt lat="48.34038" lon="0.08303">
        <ele>118</ele>
        <time>2013-06-07T12:35:35Z</time>
      </trkpt>
      <trkpt lat="48.34032" lon="0.0829">
        <ele>118</ele>
        <time>2013-06-07T12:35:44Z</time>
      </trkpt>
      <trkpt lat="48.34026" lon="0.08278">
        <ele>118</ele>
        <time>2013-06-07T12:35:53Z</time>
      </trkpt>
      <trkpt lat="48.34017" lon="0.08274">
        <ele>118</ele>
        <time>2013-06-07T12:36:02Z</time>
      </trkpt>
      <trkpt lat="48.34007" lon="0.08274">
        <ele>118</ele>
        <time>2013-06-07T12:36:10Z</time>
      </trkpt>
      <trkpt lat="48.33998" lon="0.08277">
        <ele>118</ele>
        <time>2013-06-07T12:36:18Z</time>
      </trkpt>
      <trkpt lat="48.33989" lon="0.08283">
        <ele>118</ele>
        <time>2013-06-07T12:36:26Z</time>
      </trkpt>
      <trkpt lat="48.3398" lon="0.08289">
        <ele>118</ele>
        <time>2013-06-07T12:36:34Z</time>
      </trkpt>
      <trkpt lat="48.33971" lon="0.08296">
        <ele>118</ele>
        <time>2013-06-07T12:36:42Z</time>
      </trkpt>
      <trkpt lat="48.33962" lon="0.08301">
        <ele>118</ele>
        <time>2013-06-07T12:36:50Z</time>
      </trkpt>
      <trkpt lat="48.33953" lon="0.08308">
        <ele>118</ele>
        <time>2013-06-07T12:36:57Z</time>
      </trkpt>
      <trkpt lat="48.33944" lon="0.08313">
        <ele>118</ele>
        <time>2013-06-07T12:37:05Z</time>
      </trkpt>
      <trkpt lat="48.33934" lon="0.08319">
        <ele>118</ele>
        <time>2013-06-07T12:37:14Z</time>
      </trkpt>
      <trkpt lat="48.33925" lon="0.08326">
        <ele>118</ele>
        <time>2013-06-07T12:37:23Z</time>
      </trkpt>
      <trkpt lat="48.33915" lon="0.0833">
        <ele>118</ele>
        <time>2013-06-07T12:37:31Z</time>
      </trkpt>
      <trkpt lat="48.33905" lon="0.08335">
        <ele>118</ele>
        <time>2013-06-07T12:37:39Z</time>
      </trkpt>
      <trkpt lat="48.33897" lon="0.08341">
        <ele>118</ele>
        <time>2013-06-07T12:37:47Z</time>
      </trkpt>
      <trkpt lat="48.33888" lon="0.08348">
        <ele>118</ele>
        <time>2013-06-07T12:37:55Z</time>
      </trkpt>
      <trkpt lat="48.33879" lon="0.08355">
        <ele>118</ele>
        <time>2013-06-07T12:38:03Z</time>
      </trkpt>
      <trkpt lat="48.3387" lon="0.08362">
        <ele>118</ele>
        <time>2013-06-07T12:38:11Z</time>
      </trkpt>
      <trkpt lat="48.33861" lon="0.08367">
        <ele>118</ele>
        <time>2013-06-07T12:38:19Z</time>
      </trkpt>
      <trkpt lat="48.33852" lon="0.08373">
        <ele>118</ele>
        <time>2013-06-07T12:38:27Z</time>
      </trkpt>
      <trkpt lat="48.33843" lon="0.0838">
        <ele>118</ele>
        <time>2013-06-07T12:38:35Z</time>
      </trkpt>
      <trkpt lat="48.33834" lon="0.08386">
        <ele>118</ele>
        <time>2013-06-07T12:38:43Z</time>
      </trkpt>
      <trkpt lat="48.33826" lon="0.08393">
        <ele>118</ele>
        <time>2013-06-07T12:38:51Z</time>
      </trkpt>
      <trkpt lat="48.33817" lon="0.08401">
        <ele>118</ele>
        <time>2013-06-07T12:38:59Z</time>
      </trkpt>
      <trkpt lat="48.33808" lon="0.08407">
        <ele>118</ele>
        <time>2013-06-07T12:39:07Z</time>
      </trkpt>
      <trkpt lat="48.33799" lon="0.08415">
        <ele>118</ele>
        <time>2013-06-07T12:39:15Z</time>
      </trkpt>
      <trkpt lat="48.3379" lon="0.08422">
        <ele>118</ele>
        <time>2013-06-07T12:39:23Z</time>
      </trkpt>
      <trkpt lat="48.33781" lon="0.08429">
        <ele>118</ele>
        <time>2013-06-07T12:39:31Z</time>
      </trkpt>
      <trkpt lat="48.33773" lon="0.08434">
        <ele>118</ele>
        <time>2013-06-07T12:39:39Z</time>
      </trkpt>
      <trkpt lat="48.33763" lon="0.08441">
        <ele>118</ele>
        <time>2013-06-07T12:39:47Z</time>
      </trkpt>
      <trkpt lat="48.33754" lon="0.08447">
        <ele>118</ele>
        <time>2013-06-07T12:39:55Z</time>
      </trkpt>
      <trkpt lat="48.33746" lon="0.08455">
        <ele>118</ele>
        <time>2013-06-07T12:40:03Z</time>
      </trkpt>
      <trkpt lat="48.33737" lon="0.08461">
        <ele>124</ele>
        <time>2013-06-07T12:40:11Z</time>
      </trkpt>
      <trkpt lat="48.33727" lon="0.08468">
        <ele>124</ele>
        <time>2013-06-07T12:40:19Z</time>
      </trkpt>
      <trkpt lat="48.33719" lon="0.08474">
        <ele>124</ele>
        <time>2013-06-07T12:40:27Z</time>
      </trkpt>
      <trkpt lat="48.3371" lon="0.08478">
        <ele>124</ele>
        <time>2013-06-07T12:40:34Z</time>
      </trkpt>
      <trkpt lat="48.33701" lon="0.08486">
        <ele>124</ele>
        <time>2013-06-07T12:40:42Z</time>
      </trkpt>
      <trkpt lat="48.33692" lon="0.08493">
        <ele>124</ele>
        <time>2013-06-07T12:40:50Z</time>
      </trkpt>
      <trkpt lat="48.33682" lon="0.08495">
        <ele>124</ele>
        <time>2013-06-07T12:40:58Z</time>
      </trkpt>
      <trkpt lat="48.33672" lon="0.08502">
        <ele>124</ele>
        <time>2013-06-07T12:41:06Z</time>
      </trkpt>
      <trkpt lat="48.33664" lon="0.08505">
        <ele>124</ele>
        <time>2013-06-07T12:41:13Z</time>
      </trkpt>
      <trkpt lat="48.33655" lon="0.08512">
        <ele>118</ele>
        <time>2013-06-07T12:41:21Z</time>
      </trkpt>
      <trkpt lat="48.33646" lon="0.08517">
        <ele>118</ele>
        <time>2013-06-07T12:41:29Z</time>
      </trkpt>
      <trkpt lat="48.33637" lon="0.08521">
        <ele>118</ele>
        <time>2013-06-07T12:41:36Z</time>
      </trkpt>
      <trkpt lat="48.33628" lon="0.08527">
        <ele>118</ele>
        <time>2013-06-07T12:41:44Z</time>
      </trkpt>
      <trkpt lat="48.33619" lon="0.08533">
        <ele>118</ele>
        <time>2013-06-07T12:41:52Z</time>
      </trkpt>
      <trkpt lat="48.3361" lon="0.0854">
        <ele>118</ele>
        <time>2013-06-07T12:42:00Z</time>
      </trkpt>
      <trkpt lat="48.33601" lon="0.08546">
        <ele>118</ele>
        <time>2013-06-07T12:42:08Z</time>
      </trkpt>
      <trkpt lat="48.33592" lon="0.08552">
        <ele>118</ele>
        <time>2013-06-07T12:42:16Z</time>
      </trkpt>
      <trkpt lat="48.33583" lon="0.08556">
        <ele>118</ele>
        <time>2013-06-07T12:42:23Z</time>
      </trkpt>
      <trkpt lat="48.33574" lon="0.08559">
        <ele>118</ele>
        <time>2013-06-07T12:42:30Z</time>
      </trkpt>
      <trkpt lat="48.33565" lon="0.08564">
        <ele>118</ele>
        <time>2013-06-07T12:42:37Z</time>
      </trkpt>
      <trkpt lat="48.33556" lon="0.08571">
        <ele>118</ele>
        <time>2013-06-07T12:42:45Z</time>
      </trkpt>
      <trkpt lat="48.33547" lon="0.08577">
        <ele>118</ele>
        <time>2013-06-07T12:42:53Z</time>
      </trkpt>
      <trkpt lat="48.33538" lon="0.08583">
        <ele>118</ele>
        <time>2013-06-07T12:43:01Z</time>
      </trkpt>
      <trkpt lat="48.33529" lon="0.08591">
        <ele>118</ele>
        <time>2013-06-07T12:43:09Z</time>
      </trkpt>
      <trkpt lat="48.3352" lon="0.08597">
        <ele>118</ele>
        <time>2013-06-07T12:43:17Z</time>
      </trkpt>
      <trkpt lat="48.3351" lon="0.08603">
        <ele>118</ele>
        <time>2013-06-07T12:43:25Z</time>
      </trkpt>
      <trkpt lat="48.33501" lon="0.08609">
        <ele>118</ele>
        <time>2013-06-07T12:43:33Z</time>
      </trkpt>
      <trkpt lat="48.33491" lon="0.08615">
        <ele>118</ele>
        <time>2013-06-07T12:43:41Z</time>
      </trkpt>
      <trkpt lat="48.33482" lon="0.0862">
        <ele>118</ele>
        <time>2013-06-07T12:43:49Z</time>
      </trkpt>
      <trkpt lat="48.33473" lon="0.08626">
        <ele>118</ele>
        <time>2013-06-07T12:43:57Z</time>
      </trkpt>
      <trkpt lat="48.33463" lon="0.08631">
        <ele>110</ele>
        <time>2013-06-07T12:44:05Z</time>
      </trkpt>
      <trkpt lat="48.33454" lon="0.08636">
        <ele>110</ele>
        <time>2013-06-07T12:44:12Z</time>
      </trkpt>
      <trkpt lat="48.33445" lon="0.0864">
        <ele>110</ele>
        <time>2013-06-07T12:44:20Z</time>
      </trkpt>
      <trkpt lat="48.33436" lon="0.08645">
        <ele>110</ele>
        <time>2013-06-07T12:44:28Z</time>
      </trkpt>
      <trkpt lat="48.33426" lon="0.08651">
        <ele>110</ele>
        <time>2013-06-07T12:44:37Z</time>
      </trkpt>
      <trkpt lat="48.33417" lon="0.08656">
        <ele>110</ele>
        <time>2013-06-07T12:44:45Z</time>
      </trkpt>
      <trkpt lat="48.33407" lon="0.08661">
        <ele>110</ele>
        <time>2013-06-07T12:44:53Z</time>
      </trkpt>
      <trkpt lat="48.33398" lon="0.08664">
        <ele>110</ele>
        <time>2013-06-07T12:45:00Z</time>
      </trkpt>
      <trkpt lat="48.33389" lon="0.08671">
        <ele>110</ele>
        <time>2013-06-07T12:45:09Z</time>
      </trkpt>
      <trkpt lat="48.33379" lon="0.08674">
        <ele>110</ele>
        <time>2013-06-07T12:45:17Z</time>
      </trkpt>
      <trkpt lat="48.3337" lon="0.08678">
        <ele>110</ele>
        <time>2013-06-07T12:45:25Z</time>
      </trkpt>
      <trkpt lat="48.3336" lon="0.08678">
        <ele>110</ele>
        <time>2013-06-07T12:45:33Z</time>
      </trkpt>
      <trkpt lat="48.3335" lon="0.08678">
        <ele>110</ele>
        <time>2013-06-07T12:45:41Z</time>
      </trkpt>
      <trkpt lat="48.3334" lon="0.0868">
        <ele>110</ele>
        <time>2013-06-07T12:45:51Z</time>
      </trkpt>
      <trkpt lat="48.3333" lon="0.0868">
        <ele>110</ele>
        <time>2013-06-07T12:45:59Z</time>
      </trkpt>
      <trkpt lat="48.33321" lon="0.08676">
        <ele>110</ele>
        <time>2013-06-07T12:46:05Z</time>
      </trkpt>
      <trkpt lat="48.33312" lon="0.08671">
        <ele>110</ele>
        <time>2013-06-07T12:46:10Z</time>
      </trkpt>
      <trkpt lat="48.33302" lon="0.08669">
        <ele>116</ele>
        <time>2013-06-07T12:46:17Z</time>
      </trkpt>
      <trkpt lat="48.33292" lon="0.08668">
        <ele>116</ele>
        <time>2013-06-07T12:46:25Z</time>
      </trkpt>
      <trkpt lat="48.33282" lon="0.08665">
        <ele>116</ele>
        <time>2013-06-07T12:46:34Z</time>
      </trkpt>
      <trkpt lat="48.33272" lon="0.08663">
        <ele>116</ele>
        <time>2013-06-07T12:46:42Z</time>
      </trkpt>
      <trkpt lat="48.33263" lon="0.0866">
        <ele>116</ele>
        <time>2013-06-07T12:46:50Z</time>
      </trkpt>
      <trkpt lat="48.33253" lon="0.08657">
        <ele>110</ele>
        <time>2013-06-07T12:46:59Z</time>
      </trkpt>
      <trkpt lat="48.33244" lon="0.08652">
        <ele>110</ele>
        <time>2013-06-07T12:47:08Z</time>
      </trkpt>
      <trkpt lat="48.33235" lon="0.08648">
        <ele>110</ele>
        <time>2013-06-07T12:47:17Z</time>
      </trkpt>
      <trkpt lat="48.33226" lon="0.08644">
        <ele>110</ele>
        <time>2013-06-07T12:47:25Z</time>
      </trkpt>
      <trkpt lat="48.33215" lon="0.08638">
        <ele>110</ele>
        <time>2013-06-07T12:47:32Z</time>
      </trkpt>
      <trkpt lat="48.33205" lon="0.08636">
        <ele>110</ele>
        <time>2013-06-07T12:47:40Z</time>
      </trkpt>
      <trkpt lat="48.33195" lon="0.08634">
        <ele>110</ele>
        <time>2013-06-07T12:47:48Z</time>
      </trkpt>
      <trkpt lat="48.33185" lon="0.08634">
        <ele>110</ele>
        <time>2013-06-07T12:47:56Z</time>
      </trkpt>
      <trkpt lat="48.33175" lon="0.08632">
        <ele>110</ele>
        <time>2013-06-07T12:48:04Z</time>
      </trkpt>
      <trkpt lat="48.33165" lon="0.08632">
        <ele>110</ele>
        <time>2013-06-07T12:48:12Z</time>
      </trkpt>
      <trkpt lat="48.33154" lon="0.08633">
        <ele>110</ele>
        <time>2013-06-07T12:48:20Z</time>
      </trkpt>
      <trkpt lat="48.33144" lon="0.08634">
        <ele>110</ele>
        <time>2013-06-07T12:48:29Z</time>
      </trkpt>
      <trkpt lat="48.33134" lon="0.08631">
        <ele>110</ele>
        <time>2013-06-07T12:48:36Z</time>
      </trkpt>
      <trkpt lat="48.33124" lon="0.0863">
        <ele>110</ele>
        <time>2013-06-07T12:48:45Z</time>
      </trkpt>
      <trkpt lat="48.33114" lon="0.08631">
        <ele>110</ele>
        <time>2013-06-07T12:48:54Z</time>
      </trkpt>
      <trkpt lat="48.33105" lon="0.08636">
        <ele>110</ele>
        <time>2013-06-07T12:49:02Z</time>
      </trkpt>
      <trkpt lat="48.33095" lon="0.08637">
        <ele>110</ele>
        <time>2013-06-07T12:49:10Z</time>
      </trkpt>
      <trkpt lat="48.33084" lon="0.08638">
        <ele>110</ele>
        <time>2013-06-07T12:49:18Z</time>
      </trkpt>
      <trkpt lat="48.33075" lon="0.08643">
        <ele>110</ele>
        <time>2013-06-07T12:49:26Z</time>
      </trkpt>
      <trkpt lat="48.33064" lon="0.08647">
        <ele>110</ele>
        <time>2013-06-07T12:49:34Z</time>
      </trkpt>
      <trkpt lat="48.33054" lon="0.08653">
        <ele>110</ele>
        <time>2013-06-07T12:49:43Z</time>
      </trkpt>
      <trkpt lat="48.33045" lon="0.08658">
        <ele>110</ele>
        <time>2013-06-07T12:49:51Z</time>
      </trkpt>
      <trkpt lat="48.33036" lon="0.08663">
        <ele>110</ele>
        <time>2013-06-07T12:49:59Z</time>
      </trkpt>
      <trkpt lat="48.33027" lon="0.08667">
        <ele>110</ele>
        <time>2013-06-07T12:50:06Z</time>
      </trkpt>
      <trkpt lat="48.33017" lon="0.08671">
        <ele>110</ele>
        <time>2013-06-07T12:50:14Z</time>
      </trkpt>
      <trkpt lat="48.33007" lon="0.08674">
        <ele>110</ele>
        <time>2013-06-07T12:50:23Z</time>
      </trkpt>
      <trkpt lat="48.32997" lon="0.0868">
        <ele>110</ele>
        <time>2013-06-07T12:50:32Z</time>
      </trkpt>
      <trkpt lat="48.32989" lon="0.08687">
        <ele>110</ele>
        <time>2013-06-07T12:54:18Z</time>
      </trkpt>
      <trkpt lat="48.32979" lon="0.08687">
        <ele>110</ele>
        <time>2013-06-07T12:54:28Z</time>
      </trkpt>
      <trkpt lat="48.32969" lon="0.08689">
        <ele>103</ele>
        <time>2013-06-07T12:54:37Z</time>
      </trkpt>
      <trkpt lat="48.3296" lon="0.08693">
        <ele>103</ele>
        <time>2013-06-07T12:54:45Z</time>
      </trkpt>
      <trkpt lat="48.32951" lon="0.08697">
        <ele>103</ele>
        <time>2013-06-07T12:54:53Z</time>
      </trkpt>
      <trkpt lat="48.32941" lon="0.08699">
        <ele>103</ele>
        <time>2013-06-07T12:55:02Z</time>
      </trkpt>
      <trkpt lat="48.3293" lon="0.08702">
        <ele>103</ele>
        <time>2013-06-07T12:55:11Z</time>
      </trkpt>
      <trkpt lat="48.3292" lon="0.08702">
        <ele>103</ele>
        <time>2013-06-07T12:55:19Z</time>
      </trkpt>
      <trkpt lat="48.32911" lon="0.08697">
        <ele>103</ele>
        <time>2013-06-07T12:55:29Z</time>
      </trkpt>
      <trkpt lat="48.32902" lon="0.08688">
        <ele>103</ele>
        <time>2013-06-07T12:55:38Z</time>
      </trkpt>
      <trkpt lat="48.32896" lon="0.08676">
        <ele>103</ele>
        <time>2013-06-07T12:55:46Z</time>
      </trkpt>
      <trkpt lat="48.32891" lon="0.08663">
        <ele>103</ele>
        <time>2013-06-07T12:55:54Z</time>
      </trkpt>
      <trkpt lat="48.32886" lon="0.08651">
        <ele>103</ele>
        <time>2013-06-07T12:56:02Z</time>
      </trkpt>
      <trkpt lat="48.32881" lon="0.08638">
        <ele>97</ele>
        <time>2013-06-07T12:56:11Z</time>
      </trkpt>
      <trkpt lat="48.32875" lon="0.08627">
        <ele>97</ele>
        <time>2013-06-07T12:56:19Z</time>
      </trkpt>
      <trkpt lat="48.3287" lon="0.08612">
        <ele>97</ele>
        <time>2013-06-07T12:56:27Z</time>
      </trkpt>
      <trkpt lat="48.32867" lon="0.08598">
        <ele>97</ele>
        <time>2013-06-07T12:56:35Z</time>
      </trkpt>
      <trkpt lat="48.32863" lon="0.08585">
        <ele>97</ele>
        <time>2013-06-07T12:56:44Z</time>
      </trkpt>
      <trkpt lat="48.32857" lon="0.08574">
        <ele>97</ele>
        <time>2013-06-07T12:56:53Z</time>
      </trkpt>
      <trkpt lat="48.32851" lon="0.08561">
        <ele>97</ele>
        <time>2013-06-07T12:57:02Z</time>
      </trkpt>
      <trkpt lat="48.32845" lon="0.08549">
        <ele>91</ele>
        <time>2013-06-07T12:57:11Z</time>
      </trkpt>
      <trkpt lat="48.32839" lon="0.08536">
        <ele>91</ele>
        <time>2013-06-07T12:57:20Z</time>
      </trkpt>
      <trkpt lat="48.32835" lon="0.08523">
        <ele>85</ele>
        <time>2013-06-07T12:57:29Z</time>
      </trkpt>
      <trkpt lat="48.32831" lon="0.08509">
        <ele>85</ele>
        <time>2013-06-07T12:57:35Z</time>
      </trkpt>
      <trkpt lat="48.32828" lon="0.08495">
        <ele>92</ele>
        <time>2013-06-07T12:57:42Z</time>
      </trkpt>
      <trkpt lat="48.32824" lon="0.08481">
        <ele>92</ele>
        <time>2013-06-07T12:57:51Z</time>
      </trkpt>
      <trkpt lat="48.32822" lon="0.08468">
        <ele>92</ele>
        <time>2013-06-07T12:57:58Z</time>
      </trkpt>
      <trkpt lat="48.3282" lon="0.08454">
        <ele>92</ele>
        <time>2013-06-07T12:58:05Z</time>
      </trkpt>
      <trkpt lat="48.32817" lon="0.08441">
        <ele>92</ele>
        <time>2013-06-07T12:58:13Z</time>
      </trkpt>
      <trkpt lat="48.32812" lon="0.08427">
        <ele>92</ele>
        <time>2013-06-07T12:58:22Z</time>
      </trkpt>
      <trkpt lat="48.32808" lon="0.08415">
        <ele>92</ele>
        <time>2013-06-07T12:58:31Z</time>
      </trkpt>
      <trkpt lat="48.32805" lon="0.08401">
        <ele>92</ele>
        <time>2013-06-07T12:58:38Z</time>
      </trkpt>
      <trkpt lat="48.32801" lon="0.08389">
        <ele>92</ele>
        <time>2013-06-07T12:58:46Z</time>
      </trkpt>
      <trkpt lat="48.32797" lon="0.08375">
        <ele>92</ele>
        <time>2013-06-07T12:58:54Z</time>
      </trkpt>
      <trkpt lat="48.32794" lon="0.08362">
        <ele>92</ele>
        <time>2013-06-07T12:59:03Z</time>
      </trkpt>
      <trkpt lat="48.3279" lon="0.08346">
        <ele>92</ele>
        <time>2013-06-07T12:59:11Z</time>
      </trkpt>
      <trkpt lat="48.32786" lon="0.08332">
        <ele>92</ele>
        <time>2013-06-07T12:59:20Z</time>
      </trkpt>
      <trkpt lat="48.32782" lon="0.08318">
        <ele>92</ele>
        <time>2013-06-07T12:59:28Z</time>
      </trkpt>
      <trkpt lat="48.32778" lon="0.08304">
        <ele>92</ele>
        <time>2013-06-07T12:59:37Z</time>
      </trkpt>
      <trkpt lat="48.32775" lon="0.08291">
        <ele>92</ele>
        <time>2013-06-07T12:59:45Z</time>
      </trkpt>
      <trkpt lat="48.32771" lon="0.08277">
        <ele>92</ele>
        <time>2013-06-07T12:59:53Z</time>
      </trkpt>
      <trkpt lat="48.32767" lon="0.08264">
        <ele>92</ele>
        <time>2013-06-07T13:00:01Z</time>
      </trkpt>
      <trkpt lat="48.32763" lon="0.08249">
        <ele>92</ele>
        <time>2013-06-07T13:00:10Z</time>
      </trkpt>
      <trkpt lat="48.32758" lon="0.08236">
        <ele>92</ele>
        <time>2013-06-07T13:00:19Z</time>
      </trkpt>
      <trkpt lat="48.32755" lon="0.08222">
        <ele>92</ele>
        <time>2013-06-07T13:00:27Z</time>
      </trkpt>
      <trkpt lat="48.32751" lon="0.08208">
        <ele>92</ele>
        <time>2013-06-07T13:00:35Z</time>
      </trkpt>
      <trkpt lat="48.32747" lon="0.08194">
        <ele>92</ele>
        <time>2013-06-07T13:00:44Z</time>
      </trkpt>
      <trkpt lat="48.32743" lon="0.08182">
        <ele>92</ele>
        <time>2013-06-07T13:00:52Z</time>
      </trkpt>
      <trkpt lat="48.32737" lon="0.08168">
        <ele>92</ele>
        <time>2013-06-07T13:01:05Z</time>
      </trkpt>
      <trkpt lat="48.32731" lon="0.08158">
        <ele>92</ele>
        <time>2013-06-07T13:01:14Z</time>
      </trkpt>
      <trkpt lat="48.32726" lon="0.08144">
        <ele>92</ele>
        <time>2013-06-07T13:01:24Z</time>
      </trkpt>
      <trkpt lat="48.32719" lon="0.08134">
        <ele>92</ele>
        <time>2013-06-07T13:01:32Z</time>
      </trkpt>
      <trkpt lat="48.32714" lon="0.08123">
        <ele>92</ele>
        <time>2013-06-07T13:01:41Z</time>
      </trkpt>
      <trkpt lat="48.32708" lon="0.08111">
        <ele>92</ele>
        <time>2013-06-07T13:01:50Z</time>
      </trkpt>
      <trkpt lat="48.32702" lon="0.08097">
        <ele>92</ele>
        <time>2013-06-07T13:02:00Z</time>
      </trkpt>
      <trkpt lat="48.32696" lon="0.08087">
        <ele>92</ele>
        <time>2013-06-07T13:02:09Z</time>
      </trkpt>
      <trkpt lat="48.32692" lon="0.08074">
        <ele>92</ele>
        <time>2013-06-07T13:02:17Z</time>
      </trkpt>
      <trkpt lat="48.32688" lon="0.08061">
        <ele>92</ele>
        <time>2013-06-07T13:02:24Z</time>
      </trkpt>
      <trkpt lat="48.32685" lon="0.08047">
        <ele>92</ele>
        <time>2013-06-07T13:02:33Z</time>
      </trkpt>
      <trkpt lat="48.32681" lon="0.08034">
        <ele>92</ele>
        <time>2013-06-07T13:02:42Z</time>
      </trkpt>
      <trkpt lat="48.32678" lon="0.08019">
        <ele>92</ele>
        <time>2013-06-07T13:02:51Z</time>
      </trkpt>
      <trkpt lat="48.32675" lon="0.08005">
        <ele>92</ele>
        <time>2013-06-07T13:03:00Z</time>
      </trkpt>
      <trkpt lat="48.3267" lon="0.07991">
        <ele>97</ele>
        <time>2013-06-07T13:03:08Z</time>
      </trkpt>
      <trkpt lat="48.32664" lon="0.07979">
        <ele>97</ele>
        <time>2013-06-07T13:03:16Z</time>
      </trkpt>
      <trkpt lat="48.32662" lon="0.07965">
        <ele>97</ele>
        <time>2013-06-07T13:03:25Z</time>
      </trkpt>
      <trkpt lat="48.32657" lon="0.07953">
        <ele>97</ele>
        <time>2013-06-07T13:03:35Z</time>
      </trkpt>
      <trkpt lat="48.32651" lon="0.07942">
        <ele>97</ele>
        <time>2013-06-07T13:03:46Z</time>
      </trkpt>
      <trkpt lat="48.32645" lon="0.07929">
        <ele>105</ele>
        <time>2013-06-07T13:03:57Z</time>
      </trkpt>
      <trkpt lat="48.32642" lon="0.07916">
        <ele>105</ele>
        <time>2013-06-07T13:04:06Z</time>
      </trkpt>
      <trkpt lat="48.32634" lon="0.07906">
        <ele>105</ele>
        <time>2013-06-07T13:04:17Z</time>
      </trkpt>
      <trkpt lat="48.32627" lon="0.07897">
        <ele>105</ele>
        <time>2013-06-07T13:04:31Z</time>
      </trkpt>
      <trkpt lat="48.32621" lon="0.07885">
        <ele>105</ele>
        <time>2013-06-07T13:04:39Z</time>
      </trkpt>
      <trkpt lat="48.32618" lon="0.07871">
        <ele>105</ele>
        <time>2013-06-07T13:04:47Z</time>
      </trkpt>
      <trkpt lat="48.32616" lon="0.07856">
        <ele>105</ele>
        <time>2013-06-07T13:04:55Z</time>
      </trkpt>
      <trkpt lat="48.32613" lon="0.07841">
        <ele>105</ele>
        <time>2013-06-07T13:05:06Z</time>
      </trkpt>
      <trkpt lat="48.32611" lon="0.07827">
        <ele>105</ele>
        <time>2013-06-07T13:05:16Z</time>
      </trkpt>
      <trkpt lat="48.3261" lon="0.07812">
        <ele>105</ele>
        <time>2013-06-07T13:05:24Z</time>
      </trkpt>
      <trkpt lat="48.32612" lon="0.07797">
        <ele>105</ele>
        <time>2013-06-07T13:05:33Z</time>
      </trkpt>
      <trkpt lat="48.32613" lon="0.07782">
        <ele>105</ele>
        <time>2013-06-07T13:05:43Z</time>
      </trkpt>
      <trkpt lat="48.32612" lon="0.07766">
        <ele>105</ele>
        <time>2013-06-07T13:05:52Z</time>
      </trkpt>
      <trkpt lat="48.32613" lon="0.07751">
        <ele>105</ele>
        <time>2013-06-07T13:06:01Z</time>
      </trkpt>
      <trkpt lat="48.32613" lon="0.07735">
        <ele>99</ele>
        <time>2013-06-07T13:06:11Z</time>
      </trkpt>
      <trkpt lat="48.32615" lon="0.07721">
        <ele>99</ele>
        <time>2013-06-07T13:06:19Z</time>
      </trkpt>
      <trkpt lat="48.32616" lon="0.07706">
        <ele>99</ele>
        <time>2013-06-07T13:06:27Z</time>
      </trkpt>
      <trkpt lat="48.32617" lon="0.07691">
        <ele>106</ele>
        <time>2013-06-07T13:06:34Z</time>
      </trkpt>
      <trkpt lat="48.32618" lon="0.07677">
        <ele>106</ele>
        <time>2013-06-07T13:06:46Z</time>
      </trkpt>
      <trkpt lat="48.32621" lon="0.07664">
        <ele>106</ele>
        <time>2013-06-07T13:07:04Z</time>
      </trkpt>
      <trkpt lat="48.32628" lon="0.07654">
        <ele>99</ele>
        <time>2013-06-07T13:07:42Z</time>
      </trkpt>
      <trkpt lat="48.32632" lon="0.0764">
        <ele>99</ele>
        <time>2013-06-07T13:08:13Z</time>
      </trkpt>
      <trkpt lat="48.32637" lon="0.07628">
        <ele>105</ele>
        <time>2013-06-07T13:08:22Z</time>
      </trkpt>
      <trkpt lat="48.32641" lon="0.07615">
        <ele>105</ele>
        <time>2013-06-07T13:08:31Z</time>
      </trkpt>
      <trkpt lat="48.32645" lon="0.07602">
        <ele>105</ele>
        <time>2013-06-07T13:08:40Z</time>
      </trkpt>
      <trkpt lat="48.32649" lon="0.0759">
        <ele>105</ele>
        <time>2013-06-07T13:08:48Z</time>
      </trkpt>
      <trkpt lat="48.32652" lon="0.07576">
        <ele>105</ele>
        <time>2013-06-07T13:08:57Z</time>
      </trkpt>
      <trkpt lat="48.32657" lon="0.07562">
        <ele>105</ele>
        <time>2013-06-07T13:09:06Z</time>
      </trkpt>
      <trkpt lat="48.32663" lon="0.07551">
        <ele>105</ele>
        <time>2013-06-07T13:09:15Z</time>
      </trkpt>
      <trkpt lat="48.32668" lon="0.07539">
        <ele>105</ele>
        <time>2013-06-07T13:09:25Z</time>
      </trkpt>
      <trkpt lat="48.32672" lon="0.07525">
        <ele>105</ele>
        <time>2013-06-07T13:09:35Z</time>
      </trkpt>
      <trkpt lat="48.32679" lon="0.07514">
        <ele>105</ele>
        <time>2013-06-07T13:09:45Z</time>
      </trkpt>
      <trkpt lat="48.32683" lon="0.07499">
        <ele>105</ele>
        <time>2013-06-07T13:09:57Z</time>
      </trkpt>
      <trkpt lat="48.32686" lon="0.07486">
        <ele>105</ele>
        <time>2013-06-07T13:11:06Z</time>
      </trkpt>
      <trkpt lat="48.32693" lon="0.07476">
        <ele>105</ele>
        <time>2013-06-07T13:11:19Z</time>
      </trkpt>
      <trkpt lat="48.32702" lon="0.07475">
        <ele>105</ele>
        <time>2013-06-07T13:13:44Z</time>
      </trkpt>
      <trkpt lat="48.32709" lon="0.07466">
        <ele>105</ele>
        <time>2013-06-07T13:14:37Z</time>
      </trkpt>
      <trkpt lat="48.32717" lon="0.07457">
        <ele>105</ele>
        <time>2013-06-07T13:14:48Z</time>
      </trkpt>
      <trkpt lat="48.32726" lon="0.07451">
        <ele>105</ele>
        <time>2013-06-07T13:14:57Z</time>
      </trkpt>
      <trkpt lat="48.32735" lon="0.07445">
        <ele>105</ele>
        <time>2013-06-07T13:15:06Z</time>
      </trkpt>
      <trkpt lat="48.32744" lon="0.07442">
        <ele>105</ele>
        <time>2013-06-07T13:15:14Z</time>
      </trkpt>
      <trkpt lat="48.32754" lon="0.07438">
        <ele>105</ele>
        <time>2013-06-07T13:15:22Z</time>
      </trkpt>
      <trkpt lat="48.32763" lon="0.07434">
        <ele>105</ele>
        <time>2013-06-07T13:15:31Z</time>
      </trkpt>
      <trkpt lat="48.32773" lon="0.07429">
        <ele>105</ele>
        <time>2013-06-07T13:15:41Z</time>
      </trkpt>
      <trkpt lat="48.32782" lon="0.07424">
        <ele>105</ele>
        <time>2013-06-07T13:15:48Z</time>
      </trkpt>
      <trkpt lat="48.32791" lon="0.07416">
        <ele>105</ele>
        <time>2013-06-07T13:15:57Z</time>
      </trkpt>
      <trkpt lat="48.32799" lon="0.07407">
        <ele>105</ele>
        <time>2013-06-07T13:16:06Z</time>
      </trkpt>
      <trkpt lat="48.32806" lon="0.07397">
        <ele>105</ele>
        <time>2013-06-07T13:16:17Z</time>
      </trkpt>
      <trkpt lat="48.32813" lon="0.07386">
        <ele>105</ele>
        <time>2013-06-07T13:16:26Z</time>
      </trkpt>
      <trkpt lat="48.3282" lon="0.07376">
        <ele>105</ele>
        <time>2013-06-07T13:16:35Z</time>
      </trkpt>
      <trkpt lat="48.32827" lon="0.07365">
        <ele>105</ele>
        <time>2013-06-07T13:16:44Z</time>
      </trkpt>
      <trkpt lat="48.32835" lon="0.07354">
        <ele>105</ele>
        <time>2013-06-07T13:16:53Z</time>
      </trkpt>
      <trkpt lat="48.32841" lon="0.07344">
        <ele>105</ele>
        <time>2013-06-07T13:17:02Z</time>
      </trkpt>
      <trkpt lat="48.32848" lon="0.07335">
        <ele>105</ele>
        <time>2013-06-07T13:17:09Z</time>
      </trkpt>
      <trkpt lat="48.32855" lon="0.07326">
        <ele>105</ele>
        <time>2013-06-07T13:17:17Z</time>
      </trkpt>
      <trkpt lat="48.32863" lon="0.07317">
        <ele>105</ele>
        <time>2013-06-07T13:17:27Z</time>
      </trkpt>
      <trkpt lat="48.32872" lon="0.0731">
        <ele>105</ele>
        <time>2013-06-07T13:17:35Z</time>
      </trkpt>
      <trkpt lat="48.32881" lon="0.07302">
        <ele>105</ele>
        <time>2013-06-07T13:17:43Z</time>
      </trkpt>
      <trkpt lat="48.3289" lon="0.07296">
        <ele>105</ele>
        <time>2013-06-07T13:17:51Z</time>
      </trkpt>
      <trkpt lat="48.32899" lon="0.0729">
        <ele>105</ele>
        <time>2013-06-07T13:17:59Z</time>
      </trkpt>
      <trkpt lat="48.32908" lon="0.07283">
        <ele>105</ele>
        <time>2013-06-07T13:18:07Z</time>
      </trkpt>
      <trkpt lat="48.32917" lon="0.07276">
        <ele>105</ele>
        <time>2013-06-07T13:18:15Z</time>
      </trkpt>
      <trkpt lat="48.32925" lon="0.0727">
        <ele>105</ele>
        <time>2013-06-07T13:18:23Z</time>
      </trkpt>
      <trkpt lat="48.32934" lon="0.07264">
        <ele>105</ele>
        <time>2013-06-07T13:18:31Z</time>
      </trkpt>
      <trkpt lat="48.32942" lon="0.07258">
        <ele>105</ele>
        <time>2013-06-07T13:18:39Z</time>
      </trkpt>
      <trkpt lat="48.32951" lon="0.0725">
        <ele>105</ele>
        <time>2013-06-07T13:18:47Z</time>
      </trkpt>
      <trkpt lat="48.32959" lon="0.07243">
        <ele>105</ele>
        <time>2013-06-07T13:18:55Z</time>
      </trkpt>
      <trkpt lat="48.32967" lon="0.07235">
        <ele>105</ele>
        <time>2013-06-07T13:19:03Z</time>
      </trkpt>
      <trkpt lat="48.32976" lon="0.07228">
        <ele>105</ele>
        <time>2013-06-07T13:19:11Z</time>
      </trkpt>
      <trkpt lat="48.32985" lon="0.07221">
        <ele>105</ele>
        <time>2013-06-07T13:19:20Z</time>
      </trkpt>
      <trkpt lat="48.32993" lon="0.07213">
        <ele>105</ele>
        <time>2013-06-07T13:19:28Z</time>
      </trkpt>
      <trkpt lat="48.33002" lon="0.07205">
        <ele>105</ele>
        <time>2013-06-07T13:19:37Z</time>
      </trkpt>
      <trkpt lat="48.3301" lon="0.07196">
        <ele>105</ele>
        <time>2013-06-07T13:19:46Z</time>
      </trkpt>
      <trkpt lat="48.33019" lon="0.0719">
        <ele>110</ele>
        <time>2013-06-07T13:20:09Z</time>
      </trkpt>
      <trkpt lat="48.33027" lon="0.07181">
        <ele>110</ele>
        <time>2013-06-07T13:20:18Z</time>
      </trkpt>
      <trkpt lat="48.33035" lon="0.07173">
        <ele>110</ele>
        <time>2013-06-07T13:20:29Z</time>
      </trkpt>
      <trkpt lat="48.33042" lon="0.07163">
        <ele>110</ele>
        <time>2013-06-07T13:20:38Z</time>
      </trkpt>
      <trkpt lat="48.33049" lon="0.07154">
        <ele>110</ele>
        <time>2013-06-07T13:20:46Z</time>
      </trkpt>
      <trkpt lat="48.33056" lon="0.07143">
        <ele>104</ele>
        <time>2013-06-07T13:20:54Z</time>
      </trkpt>
      <trkpt lat="48.33064" lon="0.07134">
        <ele>104</ele>
        <time>2013-06-07T13:21:04Z</time>
      </trkpt>
      <trkpt lat="48.33071" lon="0.07124">
        <ele>104</ele>
        <time>2013-06-07T13:21:11Z</time>
      </trkpt>
      <trkpt lat="48.33077" lon="0.07114">
        <ele>109</ele>
        <time>2013-06-07T13:21:18Z</time>
      </trkpt>
      <trkpt lat="48.33084" lon="0.07103">
        <ele>109</ele>
        <time>2013-06-07T13:21:27Z</time>
      </trkpt>
      <trkpt lat="48.33091" lon="0.07092">
        <ele>109</ele>
        <time>2013-06-07T13:21:36Z</time>
      </trkpt>
      <trkpt lat="48.33098" lon="0.07083">
        <ele>109</ele>
        <time>2013-06-07T13:21:44Z</time>
      </trkpt>
      <trkpt lat="48.33105" lon="0.07073">
        <ele>109</ele>
        <time>2013-06-07T13:21:52Z</time>
      </trkpt>
      <trkpt lat="48.33112" lon="0.07064">
        <ele>109</ele>
        <time>2013-06-07T13:21:59Z</time>
      </trkpt>
      <trkpt lat="48.3312" lon="0.07056">
        <ele>109</ele>
        <time>2013-06-07T13:22:07Z</time>
      </trkpt>
      <trkpt lat="48.33129" lon="0.07046">
        <ele>104</ele>
        <time>2013-06-07T13:22:17Z</time>
      </trkpt>
      <trkpt lat="48.33138" lon="0.07039">
        <ele>104</ele>
        <time>2013-06-07T13:22:26Z</time>
      </trkpt>
      <trkpt lat="48.33146" lon="0.07033">
        <ele>104</ele>
        <time>2013-06-07T13:22:33Z</time>
      </trkpt>
      <trkpt lat="48.33155" lon="0.07028">
        <ele>104</ele>
        <time>2013-06-07T13:22:40Z</time>
      </trkpt>
      <trkpt lat="48.33165" lon="0.07026">
        <ele>104</ele>
        <time>2013-06-07T13:22:48Z</time>
      </trkpt>
      <trkpt lat="48.33175" lon="0.07026">
        <ele>104</ele>
        <time>2013-06-07T13:22:57Z</time>
      </trkpt>
      <trkpt lat="48.33184" lon="0.07027">
        <ele>104</ele>
        <time>2013-06-07T13:23:06Z</time>
      </trkpt>
      <trkpt lat="48.33194" lon="0.07026">
        <ele>104</ele>
        <time>2013-06-07T13:23:16Z</time>
      </trkpt>
      <trkpt lat="48.33204" lon="0.07025">
        <ele>104</ele>
        <time>2013-06-07T13:23:25Z</time>
      </trkpt>
      <trkpt lat="48.33214" lon="0.07023">
        <ele>104</ele>
        <time>2013-06-07T13:23:33Z</time>
      </trkpt>
      <trkpt lat="48.33204" lon="0.07027">
        <ele>115</ele>
        <time>2013-06-07T13:23:57Z</time>
      </trkpt>
      <trkpt lat="48.33211" lon="0.07037">
        <ele>99</ele>
        <time>2013-06-07T13:24:29Z</time>
      </trkpt>
      <trkpt lat="48.33218" lon="0.07046">
        <ele>91</ele>
        <time>2013-06-07T13:24:38Z</time>
      </trkpt>
      <trkpt lat="48.33224" lon="0.07036">
        <ele>106</ele>
        <time>2013-06-07T13:24:59Z</time>
      </trkpt>
      <trkpt lat="48.33232" lon="0.07027">
        <ele>106</ele>
        <time>2013-06-07T13:25:10Z</time>
      </trkpt>
      <trkpt lat="48.33241" lon="0.07023">
        <ele>106</ele>
        <time>2013-06-07T13:25:27Z</time>
      </trkpt>
      <trkpt lat="48.3325" lon="0.07026">
        <ele>106</ele>
        <time>2013-06-07T13:25:39Z</time>
      </trkpt>
      <trkpt lat="48.3326" lon="0.07028">
        <ele>111</ele>
        <time>2013-06-07T13:25:48Z</time>
      </trkpt>
      <trkpt lat="48.3327" lon="0.07029">
        <ele>111</ele>
        <time>2013-06-07T13:25:57Z</time>
      </trkpt>
      <trkpt lat="48.33279" lon="0.07033">
        <ele>111</ele>
        <time>2013-06-07T13:26:05Z</time>
      </trkpt>
      <trkpt lat="48.3329" lon="0.07033">
        <ele>111</ele>
        <time>2013-06-07T13:26:14Z</time>
      </trkpt>
      <trkpt lat="48.33299" lon="0.07033">
        <ele>111</ele>
        <time>2013-06-07T13:26:24Z</time>
      </trkpt>
      <trkpt lat="48.33309" lon="0.07029">
        <ele>105</ele>
        <time>2013-06-07T13:26:38Z</time>
      </trkpt>
      <trkpt lat="48.33319" lon="0.07029">
        <ele>105</ele>
        <time>2013-06-07T13:26:48Z</time>
      </trkpt>
      <trkpt lat="48.33329" lon="0.0703">
        <ele>105</ele>
        <time>2013-06-07T13:26:58Z</time>
      </trkpt>
      <trkpt lat="48.33338" lon="0.07026">
        <ele>105</ele>
        <time>2013-06-07T13:27:20Z</time>
      </trkpt>
      <trkpt lat="48.33335" lon="0.07011">
        <ele>105</ele>
        <time>2013-06-07T13:27:33Z</time>
      </trkpt>
      <trkpt lat="48.33337" lon="0.07026">
        <ele>111</ele>
        <time>2013-06-07T13:28:00Z</time>
      </trkpt>
      <trkpt lat="48.33347" lon="0.07027">
        <ele>127</ele>
        <time>2013-06-07T13:28:24Z</time>
      </trkpt>
      <trkpt lat="48.33356" lon="0.07031">
        <ele>110</ele>
        <time>2013-06-07T13:29:22Z</time>
      </trkpt>
      <trkpt lat="48.33365" lon="0.07031">
        <ele>110</ele>
        <time>2013-06-07T13:29:30Z</time>
      </trkpt>
      <trkpt lat="48.33375" lon="0.07034">
        <ele>110</ele>
        <time>2013-06-07T13:29:39Z</time>
      </trkpt>
      <trkpt lat="48.33385" lon="0.07037">
        <ele>110</ele>
        <time>2013-06-07T13:29:47Z</time>
      </trkpt>
      <trkpt lat="48.33395" lon="0.07038">
        <ele>110</ele>
        <time>2013-06-07T13:29:55Z</time>
      </trkpt>
      <trkpt lat="48.33405" lon="0.07042">
        <ele>110</ele>
        <time>2013-06-07T13:30:04Z</time>
      </trkpt>
      <trkpt lat="48.33414" lon="0.07045">
        <ele>110</ele>
        <time>2013-06-07T13:30:13Z</time>
      </trkpt>
      <trkpt lat="48.33424" lon="0.07046">
        <ele>110</ele>
        <time>2013-06-07T13:30:21Z</time>
      </trkpt>
      <trkpt lat="48.33434" lon="0.07045">
        <ele>110</ele>
        <time>2013-06-07T13:30:29Z</time>
      </trkpt>
      <trkpt lat="48.33443" lon="0.07042">
        <ele>110</ele>
        <time>2013-06-07T13:30:37Z</time>
      </trkpt>
      <trkpt lat="48.33452" lon="0.07036">
        <ele>110</ele>
        <time>2013-06-07T13:30:46Z</time>
      </trkpt>
      <trkpt lat="48.33461" lon="0.07029">
        <ele>110</ele>
        <time>2013-06-07T13:30:54Z</time>
      </trkpt>
      <trkpt lat="48.33469" lon="0.0702">
        <ele>110</ele>
        <time>2013-06-07T13:31:03Z</time>
      </trkpt>
      <trkpt lat="48.33478" lon="0.07014">
        <ele>110</ele>
        <time>2013-06-07T13:31:27Z</time>
      </trkpt>
      <trkpt lat="48.33485" lon="0.07005">
        <ele>110</ele>
        <time>2013-06-07T13:31:35Z</time>
      </trkpt>
      <trkpt lat="48.33492" lon="0.06996">
        <ele>110</ele>
        <time>2013-06-07T13:31:43Z</time>
      </trkpt>
      <trkpt lat="48.33499" lon="0.06985">
        <ele>110</ele>
        <time>2013-06-07T13:31:52Z</time>
      </trkpt>
      <trkpt lat="48.33507" lon="0.06974">
        <ele>110</ele>
        <time>2013-06-07T13:32:02Z</time>
      </trkpt>
      <trkpt lat="48.33513" lon="0.06962">
        <ele>110</ele>
        <time>2013-06-07T13:32:11Z</time>
      </trkpt>
      <trkpt lat="48.33521" lon="0.06952">
        <ele>110</ele>
        <time>2013-06-07T13:32:19Z</time>
      </trkpt>
      <trkpt lat="48.33527" lon="0.06941">
        <ele>110</ele>
        <time>2013-06-07T13:32:26Z</time>
      </trkpt>
      <trkpt lat="48.33532" lon="0.0693">
        <ele>110</ele>
        <time>2013-06-07T13:32:34Z</time>
      </trkpt>
      <trkpt lat="48.33539" lon="0.0692">
        <ele>110</ele>
        <time>2013-06-07T13:32:41Z</time>
      </trkpt>
      <trkpt lat="48.33545" lon="0.06907">
        <ele>110</ele>
        <time>2013-06-07T13:32:50Z</time>
      </trkpt>
      <trkpt lat="48.33552" lon="0.06896">
        <ele>110</ele>
        <time>2013-06-07T13:32:59Z</time>
      </trkpt>
      <trkpt lat="48.33557" lon="0.06885">
        <ele>110</ele>
        <time>2013-06-07T13:33:06Z</time>
      </trkpt>
      <trkpt lat="48.33563" lon="0.06872">
        <ele>110</ele>
        <time>2013-06-07T13:33:15Z</time>
      </trkpt>
      <trkpt lat="48.33569" lon="0.0686">
        <ele>110</ele>
        <time>2013-06-07T13:33:24Z</time>
      </trkpt>
      <trkpt lat="48.33575" lon="0.06849">
        <ele>110</ele>
        <time>2013-06-07T13:33:31Z</time>
      </trkpt>
      <trkpt lat="48.33582" lon="0.06839">
        <ele>110</ele>
        <time>2013-06-07T13:33:38Z</time>
      </trkpt>
      <trkpt lat="48.33586" lon="0.06825">
        <ele>101</ele>
        <time>2013-06-07T13:33:46Z</time>
      </trkpt>
      <trkpt lat="48.33592" lon="0.06813">
        <ele>101</ele>
        <time>2013-06-07T13:33:54Z</time>
      </trkpt>
      <trkpt lat="48.33596" lon="0.06799">
        <ele>96</ele>
        <time>2013-06-07T13:34:02Z</time>
      </trkpt>
      <trkpt lat="48.33602" lon="0.06788">
        <ele>96</ele>
        <time>2013-06-07T13:34:10Z</time>
      </trkpt>
      <trkpt lat="48.33606" lon="0.06775">
        <ele>96</ele>
        <time>2013-06-07T13:34:18Z</time>
      </trkpt>
      <trkpt lat="48.33613" lon="0.06764">
        <ele>90</ele>
        <time>2013-06-07T13:34:28Z</time>
      </trkpt>
      <trkpt lat="48.33617" lon="0.06752">
        <ele>90</ele>
        <time>2013-06-07T13:34:40Z</time>
      </trkpt>
      <trkpt lat="48.33625" lon="0.06738">
        <ele>90</ele>
        <time>2013-06-07T13:34:47Z</time>
      </trkpt>
      <trkpt lat="48.33631" lon="0.06725">
        <ele>90</ele>
        <time>2013-06-07T13:34:53Z</time>
      </trkpt>
      <trkpt lat="48.3364" lon="0.06719">
        <ele>90</ele>
        <time>2013-06-07T13:34:59Z</time>
      </trkpt>
      <trkpt lat="48.33647" lon="0.06708">
        <ele>90</ele>
        <time>2013-06-07T13:35:07Z</time>
      </trkpt>
      <trkpt lat="48.33654" lon="0.06696">
        <ele>90</ele>
        <time>2013-06-07T13:35:16Z</time>
      </trkpt>
      <trkpt lat="48.33657" lon="0.06683">
        <ele>90</ele>
        <time>2013-06-07T13:35:25Z</time>
      </trkpt>
      <trkpt lat="48.33663" lon="0.06671">
        <ele>99</ele>
        <time>2013-06-07T13:35:34Z</time>
      </trkpt>
      <trkpt lat="48.33668" lon="0.06659">
        <ele>99</ele>
        <time>2013-06-07T13:35:40Z</time>
      </trkpt>
      <trkpt lat="48.33673" lon="0.06647">
        <ele>99</ele>
        <time>2013-06-07T13:35:50Z</time>
      </trkpt>
      <trkpt lat="48.33677" lon="0.06634">
        <ele>99</ele>
        <time>2013-06-07T13:35:58Z</time>
      </trkpt>
      <trkpt lat="48.33683" lon="0.06621">
        <ele>99</ele>
        <time>2013-06-07T13:36:05Z</time>
      </trkpt>
      <trkpt lat="48.33687" lon="0.06607">
        <ele>99</ele>
        <time>2013-06-07T13:36:12Z</time>
      </trkpt>
      <trkpt lat="48.33692" lon="0.06594">
        <ele>99</ele>
        <time>2013-06-07T13:36:20Z</time>
      </trkpt>
      <trkpt lat="48.33698" lon="0.06581">
        <ele>99</ele>
        <time>2013-06-07T13:36:29Z</time>
      </trkpt>
      <trkpt lat="48.33705" lon="0.06569">
        <ele>99</ele>
        <time>2013-06-07T13:36:39Z</time>
      </trkpt>
      <trkpt lat="48.33712" lon="0.0656">
        <ele>99</ele>
        <time>2013-06-07T13:36:46Z</time>
      </trkpt>
      <trkpt lat="48.33719" lon="0.0655">
        <ele>99</ele>
        <time>2013-06-07T13:36:54Z</time>
      </trkpt>
      <trkpt lat="48.33725" lon="0.06538">
        <ele>99</ele>
        <time>2013-06-07T13:37:02Z</time>
      </trkpt>
      <trkpt lat="48.33733" lon="0.06528">
        <ele>99</ele>
        <time>2013-06-07T13:37:11Z</time>
      </trkpt>
      <trkpt lat="48.3374" lon="0.06519">
        <ele>99</ele>
        <time>2013-06-07T13:37:18Z</time>
      </trkpt>
      <trkpt lat="48.33747" lon="0.06509">
        <ele>99</ele>
        <time>2013-06-07T13:37:27Z</time>
      </trkpt>
      <trkpt lat="48.33755" lon="0.06501">
        <ele>99</ele>
        <time>2013-06-07T13:37:35Z</time>
      </trkpt>
      <trkpt lat="48.33764" lon="0.06493">
        <ele>99</ele>
        <time>2013-06-07T13:37:44Z</time>
      </trkpt>
      <trkpt lat="48.33771" lon="0.06485">
        <ele>99</ele>
        <time>2013-06-07T13:37:54Z</time>
      </trkpt>
      <trkpt lat="48.33781" lon="0.06482">
        <ele>104</ele>
        <time>2013-06-07T13:38:07Z</time>
      </trkpt>
      <trkpt lat="48.33788" lon="0.06472">
        <ele>104</ele>
        <time>2013-06-07T13:38:24Z</time>
      </trkpt>
      <trkpt lat="48.33781" lon="0.06463">
        <ele>109</ele>
        <time>2013-06-07T13:39:13Z</time>
      </trkpt>
      <trkpt lat="48.33773" lon="0.06454">
        <ele>109</ele>
        <time>2013-06-07T13:39:23Z</time>
      </trkpt>
      <trkpt lat="48.33764" lon="0.06446">
        <ele>109</ele>
        <time>2013-06-07T13:39:34Z</time>
      </trkpt>
      <trkpt lat="48.33757" lon="0.06436">
        <ele>109</ele>
        <time>2013-06-07T13:39:44Z</time>
      </trkpt>
      <trkpt lat="48.33749" lon="0.06428">
        <ele>109</ele>
        <time>2013-06-07T13:39:54Z</time>
      </trkpt>
      <trkpt lat="48.33741" lon="0.0642">
        <ele>109</ele>
        <time>2013-06-07T13:40:03Z</time>
      </trkpt>
      <trkpt lat="48.33734" lon="0.06411">
        <ele>109</ele>
        <time>2013-06-07T13:40:12Z</time>
      </trkpt>
      <trkpt lat="48.33726" lon="0.06402">
        <ele>109</ele>
        <time>2013-06-07T13:40:23Z</time>
      </trkpt>
      <trkpt lat="48.33718" lon="0.06394">
        <ele>109</ele>
        <time>2013-06-07T13:40:34Z</time>
      </trkpt>
      <trkpt lat="48.33711" lon="0.06383">
        <ele>109</ele>
        <time>2013-06-07T13:40:46Z</time>
      </trkpt>
      <trkpt lat="48.33703" lon="0.06375">
        <ele>109</ele>
        <time>2013-06-07T13:40:54Z</time>
      </trkpt>
      <trkpt lat="48.33696" lon="0.06365">
        <ele>109</ele>
        <time>2013-06-07T13:41:03Z</time>
      </trkpt>
      <trkpt lat="48.33688" lon="0.06357">
        <ele>115</ele>
        <time>2013-06-07T13:41:11Z</time>
      </trkpt>
      <trkpt lat="48.3368" lon="0.06349">
        <ele>115</ele>
        <time>2013-06-07T13:41:19Z</time>
      </trkpt>
      <trkpt lat="48.33671" lon="0.06341">
        <ele>115</ele>
        <time>2013-06-07T13:41:31Z</time>
      </trkpt>
      <trkpt lat="48.33667" lon="0.06328">
        <ele>115</ele>
        <time>2013-06-07T13:41:41Z</time>
      </trkpt>
      <trkpt lat="48.33669" lon="0.06314">
        <ele>115</ele>
        <time>2013-06-07T13:41:49Z</time>
      </trkpt>
      <trkpt lat="48.33672" lon="0.063">
        <ele>115</ele>
        <time>2013-06-07T13:42:00Z</time>
      </trkpt>
      <trkpt lat="48.33678" lon="0.06286">
        <ele>115</ele>
        <time>2013-06-07T13:42:12Z</time>
      </trkpt>
      <trkpt lat="48.33681" lon="0.06272">
        <ele>115</ele>
        <time>2013-06-07T13:42:23Z</time>
      </trkpt>
      <trkpt lat="48.33685" lon="0.06258">
        <ele>115</ele>
        <time>2013-06-07T13:42:32Z</time>
      </trkpt>
      <trkpt lat="48.3369" lon="0.06245">
        <ele>115</ele>
        <time>2013-06-07T13:42:41Z</time>
      </trkpt>
      <trkpt lat="48.33695" lon="0.06232">
        <ele>115</ele>
        <time>2013-06-07T13:42:50Z</time>
      </trkpt>
      <trkpt lat="48.337" lon="0.06218">
        <ele>115</ele>
        <time>2013-06-07T13:42:59Z</time>
      </trkpt>
      <trkpt lat="48.33706" lon="0.06206">
        <ele>115</ele>
        <time>2013-06-07T13:43:07Z</time>
      </trkpt>
      <trkpt lat="48.33711" lon="0.06194">
        <ele>115</ele>
        <time>2013-06-07T13:43:16Z</time>
      </trkpt>
      <trkpt lat="48.33716" lon="0.06181">
        <ele>115</ele>
        <time>2013-06-07T13:43:25Z</time>
      </trkpt>
      <trkpt lat="48.3372" lon="0.06169">
        <ele>115</ele>
        <time>2013-06-07T13:43:33Z</time>
      </trkpt>
      <trkpt lat="48.33725" lon="0.06156">
        <ele>115</ele>
        <time>2013-06-07T13:43:43Z</time>
      </trkpt>
      <trkpt lat="48.33732" lon="0.06144">
        <ele>115</ele>
        <time>2013-06-07T13:43:51Z</time>
      </trkpt>
      <trkpt lat="48.33738" lon="0.06131">
        <ele>115</ele>
        <time>2013-06-07T13:44:00Z</time>
      </trkpt>
      <trkpt lat="48.33743" lon="0.06119">
        <ele>115</ele>
        <time>2013-06-07T13:44:08Z</time>
      </trkpt>
      <trkpt lat="48.33749" lon="0.06107">
        <ele>115</ele>
        <time>2013-06-07T13:44:17Z</time>
      </trkpt>
      <trkpt lat="48.33755" lon="0.06094">
        <ele>115</ele>
        <time>2013-06-07T13:44:27Z</time>
      </trkpt>
      <trkpt lat="48.33761" lon="0.06083">
        <ele>115</ele>
        <time>2013-06-07T13:44:35Z</time>
      </trkpt>
      <trkpt lat="48.33767" lon="0.06072">
        <ele>115</ele>
        <time>2013-06-07T13:44:44Z</time>
      </trkpt>
      <trkpt lat="48.33774" lon="0.06061">
        <ele>115</ele>
        <time>2013-06-07T13:44:53Z</time>
      </trkpt>
      <trkpt lat="48.33783" lon="0.06052">
        <ele>115</ele>
        <time>2013-06-07T13:45:02Z</time>
      </trkpt>
      <trkpt lat="48.33791" lon="0.06045">
        <ele>115</ele>
        <time>2013-06-07T13:45:10Z</time>
      </trkpt>
      <trkpt lat="48.33801" lon="0.06039">
        <ele>115</ele>
        <time>2013-06-07T13:45:19Z</time>
      </trkpt>
      <trkpt lat="48.3381" lon="0.06032">
        <ele>115</ele>
        <time>2013-06-07T13:45:27Z</time>
      </trkpt>
      <trkpt lat="48.3382" lon="0.06028">
        <ele>115</ele>
        <time>2013-06-07T13:45:35Z</time>
      </trkpt>
      <trkpt lat="48.33829" lon="0.06024">
        <ele>115</ele>
        <time>2013-06-07T13:45:42Z</time>
      </trkpt>
      <trkpt lat="48.33839" lon="0.06021">
        <ele>115</ele>
        <time>2013-06-07T13:45:50Z</time>
      </trkpt>
      <trkpt lat="48.33849" lon="0.06021">
        <ele>115</ele>
        <time>2013-06-07T13:45:58Z</time>
      </trkpt>
      <trkpt lat="48.33859" lon="0.0602">
        <ele>115</ele>
        <time>2013-06-07T13:46:06Z</time>
      </trkpt>
      <trkpt lat="48.33869" lon="0.0602">
        <ele>115</ele>
        <time>2013-06-07T13:46:15Z</time>
      </trkpt>
      <trkpt lat="48.33879" lon="0.06023">
        <ele>115</ele>
        <time>2013-06-07T13:46:23Z</time>
      </trkpt>
      <trkpt lat="48.33888" lon="0.06027">
        <ele>115</ele>
        <time>2013-06-07T13:46:30Z</time>
      </trkpt>
      <trkpt lat="48.33898" lon="0.0603">
        <ele>115</ele>
        <time>2013-06-07T13:46:38Z</time>
      </trkpt>
      <trkpt lat="48.33907" lon="0.06035">
        <ele>115</ele>
        <time>2013-06-07T13:46:46Z</time>
      </trkpt>
      <trkpt lat="48.33916" lon="0.0604">
        <ele>115</ele>
        <time>2013-06-07T13:46:54Z</time>
      </trkpt>
      <trkpt lat="48.33926" lon="0.06047">
        <ele>115</ele>
        <time>2013-06-07T13:47:02Z</time>
      </trkpt>
      <trkpt lat="48.33935" lon="0.06053">
        <ele>115</ele>
        <time>2013-06-07T13:47:11Z</time>
      </trkpt>
      <trkpt lat="48.33944" lon="0.06058">
        <ele>115</ele>
        <time>2013-06-07T13:47:19Z</time>
      </trkpt>
      <trkpt lat="48.33954" lon="0.06062">
        <ele>115</ele>
        <time>2013-06-07T13:47:27Z</time>
      </trkpt>
      <trkpt lat="48.33964" lon="0.06067">
        <ele>115</ele>
        <time>2013-06-07T13:47:36Z</time>
      </trkpt>
      <trkpt lat="48.33973" lon="0.06073">
        <ele>115</ele>
        <time>2013-06-07T13:47:45Z</time>
      </trkpt>
      <trkpt lat="48.33983" lon="0.06076">
        <ele>115</ele>
        <time>2013-06-07T13:47:54Z</time>
      </trkpt>
      <trkpt lat="48.33992" lon="0.06082">
        <ele>115</ele>
        <time>2013-06-07T13:48:02Z</time>
      </trkpt>
      <trkpt lat="48.34001" lon="0.06086">
        <ele>115</ele>
        <time>2013-06-07T13:48:10Z</time>
      </trkpt>
      <trkpt lat="48.3401" lon="0.06091">
        <ele>115</ele>
        <time>2013-06-07T13:48:18Z</time>
      </trkpt>
      <trkpt lat="48.34019" lon="0.06097">
        <ele>115</ele>
        <time>2013-06-07T13:48:25Z</time>
      </trkpt>
      <trkpt lat="48.34029" lon="0.061">
        <ele>115</ele>
        <time>2013-06-07T13:48:34Z</time>
      </trkpt>
      <trkpt lat="48.34037" lon="0.06091">
        <ele>109</ele>
        <time>2013-06-07T13:48:45Z</time>
      </trkpt>
      <trkpt lat="48.34043" lon="0.06078">
        <ele>109</ele>
        <time>2013-06-07T13:48:54Z</time>
      </trkpt>
      <trkpt lat="48.34047" lon="0.06065">
        <ele>109</ele>
        <time>2013-06-07T13:49:07Z</time>
      </trkpt>
      <trkpt lat="48.34049" lon="0.06051">
        <ele>109</ele>
        <time>2013-06-07T13:49:23Z</time>
      </trkpt>
      <trkpt lat="48.34051" lon="0.06037">
        <ele>109</ele>
        <time>2013-06-07T13:49:33Z</time>
      </trkpt>
      <trkpt lat="48.34053" lon="0.06022">
        <ele>103</ele>
        <time>2013-06-07T13:49:41Z</time>
      </trkpt>
      <trkpt lat="48.34053" lon="0.06008">
        <ele>103</ele>
        <time>2013-06-07T13:49:52Z</time>
      </trkpt>
      <trkpt lat="48.34055" lon="0.05994">
        <ele>108</ele>
        <time>2013-06-07T13:50:01Z</time>
      </trkpt>
      <trkpt lat="48.34058" lon="0.0598">
        <ele>108</ele>
        <time>2013-06-07T13:50:10Z</time>
      </trkpt>
      <trkpt lat="48.34059" lon="0.05966">
        <ele>108</ele>
        <time>2013-06-07T13:50:17Z</time>
      </trkpt>
      <trkpt lat="48.34059" lon="0.0595">
        <ele>108</ele>
        <time>2013-06-07T13:50:26Z</time>
      </trkpt>
      <trkpt lat="48.34059" lon="0.05935">
        <ele>108</ele>
        <time>2013-06-07T13:50:34Z</time>
      </trkpt>
      <trkpt lat="48.34058" lon="0.05921">
        <ele>115</ele>
        <time>2013-06-07T13:50:45Z</time>
      </trkpt>
      <trkpt lat="48.34055" lon="0.05906">
        <ele>115</ele>
        <time>2013-06-07T13:50:54Z</time>
      </trkpt>
      <trkpt lat="48.34054" lon="0.05891">
        <ele>115</ele>
        <time>2013-06-07T13:51:02Z</time>
      </trkpt>
      <trkpt lat="48.34052" lon="0.05876">
        <ele>115</ele>
        <time>2013-06-07T13:51:12Z</time>
      </trkpt>
      <trkpt lat="48.34048" lon="0.05862">
        <ele>115</ele>
        <time>2013-06-07T13:51:21Z</time>
      </trkpt>
      <trkpt lat="48.34044" lon="0.05847">
        <ele>115</ele>
        <time>2013-06-07T13:51:28Z</time>
      </trkpt>
      <trkpt lat="48.34043" lon="0.05833">
        <ele>115</ele>
        <time>2013-06-07T13:51:35Z</time>
      </trkpt>
      <trkpt lat="48.3404" lon="0.05819">
        <ele>120</ele>
        <time>2013-06-07T13:51:44Z</time>
      </trkpt>
      <trkpt lat="48.34039" lon="0.05804">
        <ele>120</ele>
        <time>2013-06-07T13:51:55Z</time>
      </trkpt>
      <trkpt lat="48.34037" lon="0.05791">
        <ele>120</ele>
        <time>2013-06-07T13:52:02Z</time>
      </trkpt>
      <trkpt lat="48.34037" lon="0.05775">
        <ele>120</ele>
        <time>2013-06-07T13:52:11Z</time>
      </trkpt>
      <trkpt lat="48.34042" lon="0.05762">
        <ele>125</ele>
        <time>2013-06-07T13:55:47Z</time>
      </trkpt>
      <trkpt lat="48.34044" lon="0.05748">
        <ele>125</ele>
        <time>2013-06-07T13:55:56Z</time>
      </trkpt>
      <trkpt lat="48.3405" lon="0.05737">
        <ele>125</ele>
        <time>2013-06-07T13:56:06Z</time>
      </trkpt>
      <trkpt lat="48.34058" lon="0.05728">
        <ele>125</ele>
        <time>2013-06-07T13:56:16Z</time>
      </trkpt>
      <trkpt lat="48.34059" lon="0.05713">
        <ele>119</ele>
        <time>2013-06-07T13:57:03Z</time>
      </trkpt>
      <trkpt lat="48.34058" lon="0.05699">
        <ele>119</ele>
        <time>2013-06-07T13:57:11Z</time>
      </trkpt>
      <trkpt lat="48.3406" lon="0.05685">
        <ele>119</ele>
        <time>2013-06-07T13:57:20Z</time>
      </trkpt>
      <trkpt lat="48.34061" lon="0.0567">
        <ele>119</ele>
        <time>2013-06-07T13:57:31Z</time>
      </trkpt>
      <trkpt lat="48.34061" lon="0.05656">
        <ele>126</ele>
        <time>2013-06-07T13:57:42Z</time>
      </trkpt>
      <trkpt lat="48.34061" lon="0.05641">
        <ele>126</ele>
        <time>2013-06-07T13:57:56Z</time>
      </trkpt>
      <trkpt lat="48.34064" lon="0.05627">
        <ele>126</ele>
        <time>2013-06-07T13:58:07Z</time>
      </trkpt>
      <trkpt lat="48.34065" lon="0.05613">
        <ele>126</ele>
        <time>2013-06-07T13:58:18Z</time>
      </trkpt>
      <trkpt lat="48.34067" lon="0.05599">
        <ele>126</ele>
        <time>2013-06-07T13:58:28Z</time>
      </trkpt>
      <trkpt lat="48.34068" lon="0.05585">
        <ele>131</ele>
        <time>2013-06-07T13:58:39Z</time>
      </trkpt>
      <trkpt lat="48.34071" lon="0.05571">
        <ele>131</ele>
        <time>2013-06-07T13:58:48Z</time>
      </trkpt>
      <trkpt lat="48.34074" lon="0.05558">
        <ele>125</ele>
        <time>2013-06-07T13:58:58Z</time>
      </trkpt>
      <trkpt lat="48.34077" lon="0.05544">
        <ele>125</ele>
        <time>2013-06-07T13:59:11Z</time>
      </trkpt>
      <trkpt lat="48.3408" lon="0.0553">
        <ele>125</ele>
        <time>2013-06-07T13:59:22Z</time>
      </trkpt>
      <trkpt lat="48.3408" lon="0.05516">
        <ele>125</ele>
        <time>2013-06-07T13:59:33Z</time>
      </trkpt>
      <trkpt lat="48.34083" lon="0.05501">
        <ele>125</ele>
        <time>2013-06-07T13:59:45Z</time>
      </trkpt>
      <trkpt lat="48.34086" lon="0.05488">
        <ele>130</ele>
        <time>2013-06-07T13:59:55Z</time>
      </trkpt>
      <trkpt lat="48.34087" lon="0.05473">
        <ele>130</ele>
        <time>2013-06-07T14:00:05Z</time>
      </trkpt>
      <trkpt lat="48.34089" lon="0.05459">
        <ele>130</ele>
        <time>2013-06-07T14:00:16Z</time>
      </trkpt>
      <trkpt lat="48.34092" lon="0.05446">
        <ele>130</ele>
        <time>2013-06-07T14:00:26Z</time>
      </trkpt>
      <trkpt lat="48.34094" lon="0.05432">
        <ele>130</ele>
        <time>2013-06-07T14:00:39Z</time>
      </trkpt>
      <trkpt lat="48.34096" lon="0.05418">
        <ele>130</ele>
        <time>2013-06-07T14:01:02Z</time>
      </trkpt>
      <trkpt lat="48.3409" lon="0.05407">
        <ele>130</ele>
        <time>2013-06-07T14:01:18Z</time>
      </trkpt>
      <trkpt lat="48.34091" lon="0.05393">
        <ele>130</ele>
        <time>2013-06-07T14:01:27Z</time>
      </trkpt>
      <trkpt lat="48.34092" lon="0.05377">
        <ele>130</ele>
        <time>2013-06-07T14:01:37Z</time>
      </trkpt>
      <trkpt lat="48.34095" lon="0.05364">
        <ele>130</ele>
        <time>2013-06-07T14:01:47Z</time>
      </trkpt>
      <trkpt lat="48.34097" lon="0.0535">
        <ele>136</ele>
        <time>2013-06-07T14:01:57Z</time>
      </trkpt>
      <trkpt lat="48.34098" lon="0.05334">
        <ele>136</ele>
        <time>2013-06-07T14:02:06Z</time>
      </trkpt>
      <trkpt lat="48.341" lon="0.0532">
        <ele>136</ele>
        <time>2013-06-07T14:02:16Z</time>
      </trkpt>
      <trkpt lat="48.34103" lon="0.05305">
        <ele>136</ele>
        <time>2013-06-07T14:02:27Z</time>
      </trkpt>
      <trkpt lat="48.34103" lon="0.0529">
        <ele>136</ele>
        <time>2013-06-07T14:02:41Z</time>
      </trkpt>
      <trkpt lat="48.34102" lon="0.05275">
        <ele>136</ele>
        <time>2013-06-07T14:02:55Z</time>
      </trkpt>
      <trkpt lat="48.34104" lon="0.05261">
        <ele>136</ele>
        <time>2013-06-07T14:03:07Z</time>
      </trkpt>
      <trkpt lat="48.34104" lon="0.05246">
        <ele>136</ele>
        <time>2013-06-07T14:03:18Z</time>
      </trkpt>
      <trkpt lat="48.34103" lon="0.05232">
        <ele>136</ele>
        <time>2013-06-07T14:03:29Z</time>
      </trkpt>
      <trkpt lat="48.34101" lon="0.05217">
        <ele>136</ele>
        <time>2013-06-07T14:03:42Z</time>
      </trkpt>
      <trkpt lat="48.34099" lon="0.05204">
        <ele>136</ele>
        <time>2013-06-07T14:03:51Z</time>
      </trkpt>
      <trkpt lat="48.34097" lon="0.0519">
        <ele>136</ele>
        <time>2013-06-07T14:04:00Z</time>
      </trkpt>
      <trkpt lat="48.34094" lon="0.05176">
        <ele>136</ele>
        <time>2013-06-07T14:04:09Z</time>
      </trkpt>
      <trkpt lat="48.34094" lon="0.05161">
        <ele>136</ele>
        <time>2013-06-07T14:04:21Z</time>
      </trkpt>
      <trkpt lat="48.34095" lon="0.05146">
        <ele>136</ele>
        <time>2013-06-07T14:04:33Z</time>
      </trkpt>
      <trkpt lat="48.34095" lon="0.05131">
        <ele>141</ele>
        <time>2013-06-07T14:04:41Z</time>
      </trkpt>
      <trkpt lat="48.34095" lon="0.05117">
        <ele>141</ele>
        <time>2013-06-07T14:04:50Z</time>
      </trkpt>
      <trkpt lat="48.34095" lon="0.05102">
        <ele>141</ele>
        <time>2013-06-07T14:05:00Z</time>
      </trkpt>
      <trkpt lat="48.34095" lon="0.05088">
        <ele>141</ele>
        <time>2013-06-07T14:05:10Z</time>
      </trkpt>
      <trkpt lat="48.34095" lon="0.05073">
        <ele>141</ele>
        <time>2013-06-07T14:05:21Z</time>
      </trkpt>
      <trkpt lat="48.34095" lon="0.05057">
        <ele>141</ele>
        <time>2013-06-07T14:05:32Z</time>
      </trkpt>
      <trkpt lat="48.34095" lon="0.05041">
        <ele>141</ele>
        <time>2013-06-07T14:05:42Z</time>
      </trkpt>
      <trkpt lat="48.34095" lon="0.05027">
        <ele>141</ele>
        <time>2013-06-07T14:05:51Z</time>
      </trkpt>
      <trkpt lat="48.34095" lon="0.05013">
        <ele>141</ele>
        <time>2013-06-07T14:06:00Z</time>
      </trkpt>
      <trkpt lat="48.34098" lon="0.04997">
        <ele>141</ele>
        <time>2013-06-07T14:06:12Z</time>
      </trkpt>
      <trkpt lat="48.34101" lon="0.04983">
        <ele>141</ele>
        <time>2013-06-07T14:06:33Z</time>
      </trkpt>
      <trkpt lat="48.34097" lon="0.0497">
        <ele>141</ele>
        <time>2013-06-07T14:07:31Z</time>
      </trkpt>
      <trkpt lat="48.34088" lon="0.04976">
        <ele>141</ele>
        <time>2013-06-07T14:08:38Z</time>
      </trkpt>
      <trkpt lat="48.3408" lon="0.04984">
        <ele>141</ele>
        <time>2013-06-07T14:08:54Z</time>
      </trkpt>
      <trkpt lat="48.34071" lon="0.04991">
        <ele>141</ele>
        <time>2013-06-07T14:09:05Z</time>
      </trkpt>
      <trkpt lat="48.34062" lon="0.04997">
        <ele>141</ele>
        <time>2013-06-07T14:09:15Z</time>
      </trkpt>
      <trkpt lat="48.34053" lon="0.05003">
        <ele>147</ele>
        <time>2013-06-07T14:09:24Z</time>
      </trkpt>
      <trkpt lat="48.34043" lon="0.05005">
        <ele>147</ele>
        <time>2013-06-07T14:09:34Z</time>
      </trkpt>
      <trkpt lat="48.34033" lon="0.05005">
        <ele>147</ele>
        <time>2013-06-07T14:09:43Z</time>
      </trkpt>
      <trkpt lat="48.34023" lon="0.05005">
        <ele>147</ele>
        <time>2013-06-07T14:09:52Z</time>
      </trkpt>
      <trkpt lat="48.34014" lon="0.05005">
        <ele>147</ele>
        <time>2013-06-07T14:10:00Z</time>
      </trkpt>
      <trkpt lat="48.34004" lon="0.05004">
        <ele>147</ele>
        <time>2013-06-07T14:10:09Z</time>
      </trkpt>
      <trkpt lat="48.33994" lon="0.05003">
        <ele>147</ele>
        <time>2013-06-07T14:10:18Z</time>
      </trkpt>
      <trkpt lat="48.33984" lon="0.05002">
        <ele>147</ele>
        <time>2013-06-07T14:10:27Z</time>
      </trkpt>
      <trkpt lat="48.33974" lon="0.05001">
        <ele>147</ele>
        <time>2013-06-07T14:10:37Z</time>
      </trkpt>
      <trkpt lat="48.33964" lon="0.05">
        <ele>147</ele>
        <time>2013-06-07T14:10:46Z</time>
      </trkpt>
      <trkpt lat="48.33953" lon="0.04999">
        <ele>147</ele>
        <time>2013-06-07T14:10:54Z</time>
      </trkpt>
      <trkpt lat="48.33943" lon="0.04997">
        <ele>147</ele>
        <time>2013-06-07T14:11:04Z</time>
      </trkpt>
      <trkpt lat="48.33933" lon="0.04993">
        <ele>147</ele>
        <time>2013-06-07T14:11:12Z</time>
      </trkpt>
      <trkpt lat="48.33923" lon="0.04989">
        <ele>147</ele>
        <time>2013-06-07T14:11:21Z</time>
      </trkpt>
      <trkpt lat="48.33915" lon="0.04982">
        <ele>147</ele>
        <time>2013-06-07T14:11:29Z</time>
      </trkpt>
      <trkpt lat="48.33907" lon="0.04974">
        <ele>147</ele>
        <time>2013-06-07T14:11:37Z</time>
      </trkpt>
      <trkpt lat="48.33899" lon="0.04966">
        <ele>147</ele>
        <time>2013-06-07T14:11:47Z</time>
      </trkpt>
      <trkpt lat="48.33891" lon="0.04958">
        <ele>147</ele>
        <time>2013-06-07T14:11:55Z</time>
      </trkpt>
      <trkpt lat="48.33883" lon="0.0495">
        <ele>147</ele>
        <time>2013-06-07T14:12:03Z</time>
      </trkpt>
      <trkpt lat="48.33876" lon="0.0494">
        <ele>147</ele>
        <time>2013-06-07T14:12:12Z</time>
      </trkpt>
      <trkpt lat="48.33868" lon="0.04931">
        <ele>147</ele>
        <time>2013-06-07T14:12:20Z</time>
      </trkpt>
      <trkpt lat="48.33859" lon="0.04923">
        <ele>147</ele>
        <time>2013-06-07T14:12:29Z</time>
      </trkpt>
      <trkpt lat="48.3385" lon="0.04916">
        <ele>147</ele>
        <time>2013-06-07T14:12:38Z</time>
      </trkpt>
      <trkpt lat="48.33841" lon="0.04908">
        <ele>147</ele>
        <time>2013-06-07T14:12:47Z</time>
      </trkpt>
      <trkpt lat="48.33833" lon="0.04899">
        <ele>147</ele>
        <time>2013-06-07T14:12:55Z</time>
      </trkpt>
      <trkpt lat="48.33824" lon="0.04892">
        <ele>147</ele>
        <time>2013-06-07T14:13:04Z</time>
      </trkpt>
      <trkpt lat="48.33816" lon="0.04885">
        <ele>147</ele>
        <time>2013-06-07T14:13:11Z</time>
      </trkpt>
      <trkpt lat="48.33807" lon="0.0488">
        <ele>147</ele>
        <time>2013-06-07T14:13:20Z</time>
      </trkpt>
      <trkpt lat="48.33798" lon="0.04873">
        <ele>147</ele>
        <time>2013-06-07T14:13:28Z</time>
      </trkpt>
      <trkpt lat="48.3379" lon="0.04866">
        <ele>147</ele>
        <time>2013-06-07T14:13:36Z</time>
      </trkpt>
      <trkpt lat="48.33781" lon="0.0486">
        <ele>147</ele>
        <time>2013-06-07T14:13:44Z</time>
      </trkpt>
      <trkpt lat="48.33773" lon="0.04853">
        <ele>147</ele>
        <time>2013-06-07T14:13:53Z</time>
      </trkpt>
      <trkpt lat="48.33765" lon="0.04845">
        <ele>147</ele>
        <time>2013-06-07T14:14:00Z</time>
      </trkpt>
      <trkpt lat="48.33755" lon="0.04838">
        <ele>147</ele>
        <time>2013-06-07T14:14:09Z</time>
      </trkpt>
      <trkpt lat="48.33746" lon="0.04832">
        <ele>147</ele>
        <time>2013-06-07T14:14:18Z</time>
      </trkpt>
      <trkpt lat="48.33736" lon="0.04828">
        <ele>147</ele>
        <time>2013-06-07T14:14:26Z</time>
      </trkpt>
      <trkpt lat="48.33727" lon="0.04822">
        <ele>147</ele>
        <time>2013-06-07T14:14:33Z</time>
      </trkpt>
      <trkpt lat="48.33718" lon="0.04817">
        <ele>147</ele>
        <time>2013-06-07T14:14:43Z</time>
      </trkpt>
      <trkpt lat="48.33708" lon="0.04811">
        <ele>147</ele>
        <time>2013-06-07T14:15:07Z</time>
      </trkpt>
      <trkpt lat="48.33699" lon="0.04807">
        <ele>147</ele>
        <time>2013-06-07T14:15:19Z</time>
      </trkpt>
      <trkpt lat="48.3369" lon="0.04802">
        <ele>156</ele>
        <time>2013-06-07T14:15:42Z</time>
      </trkpt>
      <trkpt lat="48.33681" lon="0.04797">
        <ele>149</ele>
        <time>2013-06-07T14:15:54Z</time>
      </trkpt>
      <trkpt lat="48.33672" lon="0.04793">
        <ele>149</ele>
        <time>2013-06-07T14:16:01Z</time>
      </trkpt>
      <trkpt lat="48.33662" lon="0.04792">
        <ele>149</ele>
        <time>2013-06-07T14:16:11Z</time>
      </trkpt>
      <trkpt lat="48.33653" lon="0.04786">
        <ele>140</ele>
        <time>2013-06-07T14:16:21Z</time>
      </trkpt>
      <trkpt lat="48.33644" lon="0.04781">
        <ele>140</ele>
        <time>2013-06-07T14:16:28Z</time>
      </trkpt>
      <trkpt lat="48.33634" lon="0.04778">
        <ele>140</ele>
        <time>2013-06-07T14:16:36Z</time>
      </trkpt>
      <trkpt lat="48.33624" lon="0.04775">
        <ele>140</ele>
        <time>2013-06-07T14:16:44Z</time>
      </trkpt>
      <trkpt lat="48.33614" lon="0.04768">
        <ele>140</ele>
        <time>2013-06-07T14:16:53Z</time>
      </trkpt>
      <trkpt lat="48.33605" lon="0.04763">
        <ele>140</ele>
        <time>2013-06-07T14:17:01Z</time>
      </trkpt>
      <trkpt lat="48.33596" lon="0.04757">
        <ele>140</ele>
        <time>2013-06-07T14:17:09Z</time>
      </trkpt>
      <trkpt lat="48.33587" lon="0.04754">
        <ele>140</ele>
        <time>2013-06-07T14:17:17Z</time>
      </trkpt>
      <trkpt lat="48.33577" lon="0.04748">
        <ele>140</ele>
        <time>2013-06-07T14:17:26Z</time>
      </trkpt>
      <trkpt lat="48.33568" lon="0.04743">
        <ele>140</ele>
        <time>2013-06-07T14:17:35Z</time>
      </trkpt>
      <trkpt lat="48.33559" lon="0.04737">
        <ele>140</ele>
        <time>2013-06-07T14:17:45Z</time>
      </trkpt>
      <trkpt lat="48.3355" lon="0.04731">
        <ele>140</ele>
        <time>2013-06-07T14:17:54Z</time>
      </trkpt>
      <trkpt lat="48.33541" lon="0.04727">
        <ele>140</ele>
        <time>2013-06-07T14:18:02Z</time>
      </trkpt>
      <trkpt lat="48.33532" lon="0.04721">
        <ele>140</ele>
        <time>2013-06-07T14:18:12Z</time>
      </trkpt>
      <trkpt lat="48.33522" lon="0.04719">
        <ele>140</ele>
        <time>2013-06-07T14:18:23Z</time>
      </trkpt>
      <trkpt lat="48.33513" lon="0.04724">
        <ele>140</ele>
        <time>2013-06-07T14:18:31Z</time>
      </trkpt>
      <trkpt lat="48.33505" lon="0.04733">
        <ele>140</ele>
        <time>2013-06-07T14:18:40Z</time>
      </trkpt>
      <trkpt lat="48.33499" lon="0.04743">
        <ele>140</ele>
        <time>2013-06-07T14:18:48Z</time>
      </trkpt>
      <trkpt lat="48.33492" lon="0.04753">
        <ele>140</ele>
        <time>2013-06-07T14:18:57Z</time>
      </trkpt>
      <trkpt lat="48.33483" lon="0.04761">
        <ele>140</ele>
        <time>2013-06-07T14:19:12Z</time>
      </trkpt>
      <trkpt lat="48.33475" lon="0.0477">
        <ele>140</ele>
        <time>2013-06-07T14:19:19Z</time>
      </trkpt>
      <trkpt lat="48.33467" lon="0.04778">
        <ele>140</ele>
        <time>2013-06-07T14:19:28Z</time>
      </trkpt>
      <trkpt lat="48.3346" lon="0.04789">
        <ele>140</ele>
        <time>2013-06-07T14:19:36Z</time>
      </trkpt>
      <trkpt lat="48.33453" lon="0.048">
        <ele>140</ele>
        <time>2013-06-07T14:19:43Z</time>
      </trkpt>
      <trkpt lat="48.33447" lon="0.04811">
        <ele>140</ele>
        <time>2013-06-07T14:19:51Z</time>
      </trkpt>
      <trkpt lat="48.33441" lon="0.04821">
        <ele>140</ele>
        <time>2013-06-07T14:20:01Z</time>
      </trkpt>
      <trkpt lat="48.33431" lon="0.04823">
        <ele>140</ele>
        <time>2013-06-07T14:20:12Z</time>
      </trkpt>
      <trkpt lat="48.33429" lon="0.04809">
        <ele>140</ele>
        <time>2013-06-07T14:20:22Z</time>
      </trkpt>
      <trkpt lat="48.33424" lon="0.04795">
        <ele>140</ele>
        <time>2013-06-07T14:20:30Z</time>
      </trkpt>
      <trkpt lat="48.3342" lon="0.04782">
        <ele>140</ele>
        <time>2013-06-07T14:20:39Z</time>
      </trkpt>
      <trkpt lat="48.33414" lon="0.04771">
        <ele>140</ele>
        <time>2013-06-07T14:20:46Z</time>
      </trkpt>
      <trkpt lat="48.33408" lon="0.04758">
        <ele>146</ele>
        <time>2013-06-07T14:20:53Z</time>
      </trkpt>
      <trkpt lat="48.33402" lon="0.04747">
        <ele>146</ele>
        <time>2013-06-07T14:21:01Z</time>
      </trkpt>
      <trkpt lat="48.33396" lon="0.04733">
        <ele>146</ele>
        <time>2013-06-07T14:21:11Z</time>
      </trkpt>
      <trkpt lat="48.3339" lon="0.04722">
        <ele>139</ele>
        <time>2013-06-07T14:21:20Z</time>
      </trkpt>
      <trkpt lat="48.33385" lon="0.04708">
        <ele>139</ele>
        <time>2013-06-07T14:21:31Z</time>
      </trkpt>
      <trkpt lat="48.33381" lon="0.04696">
        <ele>139</ele>
        <time>2013-06-07T14:21:40Z</time>
      </trkpt>
      <trkpt lat="48.33375" lon="0.04684">
        <ele>139</ele>
        <time>2013-06-07T14:21:51Z</time>
      </trkpt>
      <trkpt lat="48.33369" lon="0.0467">
        <ele>139</ele>
        <time>2013-06-07T14:22:00Z</time>
      </trkpt>
      <trkpt lat="48.33364" lon="0.04658">
        <ele>139</ele>
        <time>2013-06-07T14:22:09Z</time>
      </trkpt>
      <trkpt lat="48.33357" lon="0.04647">
        <ele>139</ele>
        <time>2013-06-07T14:22:18Z</time>
      </trkpt>
      <trkpt lat="48.3335" lon="0.04635">
        <ele>139</ele>
        <time>2013-06-07T14:22:24Z</time>
      </trkpt>
      <trkpt lat="48.33341" lon="0.04627">
        <ele>139</ele>
        <time>2013-06-07T14:22:34Z</time>
      </trkpt>
      <trkpt lat="48.33333" lon="0.0462">
        <ele>139</ele>
        <time>2013-06-07T14:22:43Z</time>
      </trkpt>
      <trkpt lat="48.33323" lon="0.04614">
        <ele>139</ele>
        <time>2013-06-07T14:22:53Z</time>
      </trkpt>
      <trkpt lat="48.33315" lon="0.04607">
        <ele>139</ele>
        <time>2013-06-07T14:23:02Z</time>
      </trkpt>
      <trkpt lat="48.33307" lon="0.04597">
        <ele>139</ele>
        <time>2013-06-07T14:23:11Z</time>
      </trkpt>
      <trkpt lat="48.33299" lon="0.0459">
        <ele>139</ele>
        <time>2013-06-07T14:23:20Z</time>
      </trkpt>
      <trkpt lat="48.3329" lon="0.04581">
        <ele>139</ele>
        <time>2013-06-07T14:23:29Z</time>
      </trkpt>
      <trkpt lat="48.33282" lon="0.04574">
        <ele>139</ele>
        <time>2013-06-07T14:23:37Z</time>
      </trkpt>
      <trkpt lat="48.33274" lon="0.04568">
        <ele>139</ele>
        <time>2013-06-07T14:23:45Z</time>
      </trkpt>
      <trkpt lat="48.33265" lon="0.04561">
        <ele>139</ele>
        <time>2013-06-07T14:23:54Z</time>
      </trkpt>
      <trkpt lat="48.33257" lon="0.04552">
        <ele>139</ele>
        <time>2013-06-07T14:24:02Z</time>
      </trkpt>
      <trkpt lat="48.33249" lon="0.04544">
        <ele>139</ele>
        <time>2013-06-07T14:24:10Z</time>
      </trkpt>
      <trkpt lat="48.33241" lon="0.04536">
        <ele>139</ele>
        <time>2013-06-07T14:24:18Z</time>
      </trkpt>
      <trkpt lat="48.33232" lon="0.04532">
        <ele>139</ele>
        <time>2013-06-07T14:24:26Z</time>
      </trkpt>
      <trkpt lat="48.33225" lon="0.04521">
        <ele>139</ele>
        <time>2013-06-07T14:24:35Z</time>
      </trkpt>
      <trkpt lat="48.33223" lon="0.04507">
        <ele>139</ele>
        <time>2013-06-07T14:24:43Z</time>
      </trkpt>
      <trkpt lat="48.33225" lon="0.04493">
        <ele>139</ele>
        <time>2013-06-07T14:24:54Z</time>
      </trkpt>
      <trkpt lat="48.33234" lon="0.04489">
        <ele>146</ele>
        <time>2013-06-07T14:25:14Z</time>
      </trkpt>
      <trkpt lat="48.33224" lon="0.04491">
        <ele>146</ele>
        <time>2013-06-07T14:25:32Z</time>
      </trkpt>
      <trkpt lat="48.33233" lon="0.04487">
        <ele>141</ele>
        <time>2013-06-07T14:25:47Z</time>
      </trkpt>
      <trkpt lat="48.33242" lon="0.0448">
        <ele>141</ele>
        <time>2013-06-07T14:25:55Z</time>
      </trkpt>
    </trkseg>
  </trk>
</gpx>